<?xml version="1.0" encoding="UTF-8" standalone="no" ?>
<gpx xmlns="http://www.topografix.com/GPX/1/1" xmlns:xsi="http://www.w3.org/2001/XMLSchema-instance" xsi:schemaLocation="http://www.topografix.com/GPX/1/1 http://www.topografix.com/GPX/1/1/gpx.xsd" version="1.1" creator="VisuGPX - https://www.visugpx.com">
  <metadata>
    <name>Col de Mouzoulès - lac des Pises - col Homme Mort</name>
    <desc><![CDATA[2016-06 - Col Mouzoulès - lac des Pises - col Homme Mort - La Pelucarie

[b]album[/b] : [url]https://goo.gl/photos/rnNhQnzmCwyZn7hY9[/url]

[img]https://2.bp.blogspot.com/-4X_3z0e6YGQ/WNGyny7QYFI/AAAAAAAARLU/rC3VFGqoO9UeGku-JEKI0hyVCRUUFP9WACLcB/s1600/2016-06_mouzoules_Pises_i.JPG[/img]

[b]Idées de randonnées dans la même région[/b]
Parcours : [url]https://www.visugpx.com/membres/24856/montagne/aigoual/[/url]
Photos : [url]https://jcvertygo.blogspot.com/p/mont-aigoual.html[/url]]]></desc>
  </metadata>
  <trk>
    <name><![CDATA[Col de Mouzoulès - lac des Pises - col Homme Mort_1]]></name>
    <trkseg>
      <trkpt lat="43.99966" lon="3.53671">
        <ele>744.8</ele>
        <time>2016-06-20T10:00:17Z</time>
      </trkpt>
      <trkpt lat="43.99966" lon="3.53672">
        <ele>744.8</ele>
        <time>2016-06-20T10:00:22Z</time>
      </trkpt>
      <trkpt lat="43.99962" lon="3.53666">
        <ele>744.8</ele>
        <time>2016-06-20T10:01:13Z</time>
      </trkpt>
      <trkpt lat="43.99967" lon="3.53658">
        <ele>739.87911001267</ele>
        <time>2016-06-20T10:01:23Z</time>
      </trkpt>
      <trkpt lat="43.99968" lon="3.53658">
        <ele>739.87911001267</ele>
        <time>2016-06-20T10:01:31Z</time>
      </trkpt>
      <trkpt lat="43.99974" lon="3.53658">
        <ele>739.87911001267</ele>
        <time>2016-06-20T10:01:47Z</time>
      </trkpt>
      <trkpt lat="44.00007" lon="3.53627">
        <ele>743.90004590821</ele>
        <time>2016-06-20T10:02:30Z</time>
      </trkpt>
      <trkpt lat="44.00014" lon="3.53619">
        <ele>747.95591687481</ele>
        <time>2016-06-20T10:02:30Z</time>
      </trkpt>
      <trkpt lat="44.00032" lon="3.53601">
        <ele>752.47085527728</ele>
        <time>2016-06-20T10:02:52Z</time>
      </trkpt>
      <trkpt lat="44.00049" lon="3.53579">
        <ele>757.03454949354</ele>
        <time>2016-06-20T10:03:14Z</time>
      </trkpt>
      <trkpt lat="44.00065" lon="3.53564">
        <ele>761.41147161821</ele>
        <time>2016-06-20T10:03:32Z</time>
      </trkpt>
      <trkpt lat="44.00084" lon="3.53548">
        <ele>765.6372702798</ele>
        <time>2016-06-20T10:03:53Z</time>
      </trkpt>
      <trkpt lat="44.00086" lon="3.53535">
        <ele>769.15386609491</ele>
        <time>2016-06-20T10:04:00Z</time>
      </trkpt>
      <trkpt lat="44.00088" lon="3.5353">
        <ele>769.15386609491</ele>
        <time>2016-06-20T10:04:02Z</time>
      </trkpt>
      <trkpt lat="44.0009" lon="3.53521">
        <ele>772.10539705631</ele>
        <time>2016-06-20T10:04:07Z</time>
      </trkpt>
      <trkpt lat="44.0009" lon="3.53514">
        <ele>772.10539705631</ele>
        <time>2016-06-20T10:04:12Z</time>
      </trkpt>
      <trkpt lat="44.00089" lon="3.53507">
        <ele>774.62644478776</ele>
        <time>2016-06-20T10:04:22Z</time>
      </trkpt>
      <trkpt lat="44.00088" lon="3.535">
        <ele>774.62644478776</ele>
        <time>2016-06-20T10:04:22Z</time>
      </trkpt>
      <trkpt lat="44.00089" lon="3.53492">
        <ele>776.53399939648</ele>
        <time>2016-06-20T10:04:27Z</time>
      </trkpt>
      <trkpt lat="44.00089" lon="3.53483">
        <ele>776.53399939648</ele>
        <time>2016-06-20T10:04:32Z</time>
      </trkpt>
      <trkpt lat="44.0009" lon="3.53476">
        <ele>777.88868046762</ele>
        <time>2016-06-20T10:04:37Z</time>
      </trkpt>
      <trkpt lat="44.00093" lon="3.53453">
        <ele>778.70082139069</ele>
        <time>2016-06-20T10:04:52Z</time>
      </trkpt>
      <trkpt lat="44.00094" lon="3.53448">
        <ele>778.70082139069</ele>
        <time>2016-06-20T10:04:57Z</time>
      </trkpt>
      <trkpt lat="44.00092" lon="3.53429">
        <ele>779.29450874256</ele>
        <time>2016-06-20T10:05:12Z</time>
      </trkpt>
      <trkpt lat="44.00091" lon="3.53425">
        <ele>779.29450874256</ele>
        <time>2016-06-20T10:05:12Z</time>
      </trkpt>
      <trkpt lat="44.00094" lon="3.53406">
        <ele>779.9191914879</ele>
        <time>2016-06-20T10:05:32Z</time>
      </trkpt>
      <trkpt lat="44.00096" lon="3.53397">
        <ele>779.9191914879</ele>
        <time>2016-06-20T10:05:32Z</time>
      </trkpt>
      <trkpt lat="44.00097" lon="3.53378">
        <ele>780.66335465793</ele>
        <time>2016-06-20T10:05:48Z</time>
      </trkpt>
      <trkpt lat="44.00098" lon="3.53373">
        <ele>780.66335465793</ele>
        <time>2016-06-20T10:05:48Z</time>
      </trkpt>
      <trkpt lat="44.00098" lon="3.53372">
        <ele>780.66335465793</ele>
        <time>2016-06-20T10:05:48Z</time>
      </trkpt>
      <trkpt lat="44.00099" lon="3.53358">
        <ele>781.46739435755</ele>
        <time>2016-06-20T10:06:08Z</time>
      </trkpt>
      <trkpt lat="44.00099" lon="3.53352">
        <ele>781.46739435755</ele>
        <time>2016-06-20T10:06:08Z</time>
      </trkpt>
      <trkpt lat="44.00098" lon="3.53342">
        <ele>782.30368065408</ele>
        <time>2016-06-20T10:06:23Z</time>
      </trkpt>
      <trkpt lat="44.001" lon="3.53321">
        <ele>783.22165358979</ele>
        <time>2016-06-20T10:06:32Z</time>
      </trkpt>
      <trkpt lat="44.00103" lon="3.53314">
        <ele>783.22165358979</ele>
        <time>2016-06-20T10:06:39Z</time>
      </trkpt>
      <trkpt lat="44.00106" lon="3.53293">
        <ele>784.5102094276</ele>
        <time>2016-06-20T10:06:53Z</time>
      </trkpt>
      <trkpt lat="44.00114" lon="3.53257">
        <ele>786.22957375687</ele>
        <time>2016-06-20T10:07:18Z</time>
      </trkpt>
      <trkpt lat="44.00114" lon="3.53227">
        <ele>787.84903071563</ele>
        <time>2016-06-20T10:07:33Z</time>
      </trkpt>
      <trkpt lat="44.00115" lon="3.53225">
        <ele>787.84903071563</ele>
        <time>2016-06-20T10:07:33Z</time>
      </trkpt>
      <trkpt lat="44.00126" lon="3.53199">
        <ele>789.95320910963</ele>
        <time>2016-06-20T10:08:02Z</time>
      </trkpt>
      <trkpt lat="44.00132" lon="3.53192">
        <ele>789.95320910963</ele>
        <time>2016-06-20T10:08:14Z</time>
      </trkpt>
      <trkpt lat="44.00139" lon="3.53151">
        <ele>792.8732515012</ele>
        <time>2016-06-20T10:08:38Z</time>
      </trkpt>
      <trkpt lat="44.00139" lon="3.53136">
        <ele>795.7471772093</ele>
        <time>2016-06-20T10:08:52Z</time>
      </trkpt>
      <trkpt lat="44.0014" lon="3.53132">
        <ele>795.7471772093</ele>
        <time>2016-06-20T10:09:00Z</time>
      </trkpt>
      <trkpt lat="44.00144" lon="3.53115">
        <ele>798.73692154766</ele>
        <time>2016-06-20T10:09:13Z</time>
      </trkpt>
      <trkpt lat="44.00145" lon="3.53108">
        <ele>798.73692154766</ele>
        <time>2016-06-20T10:09:13Z</time>
      </trkpt>
      <trkpt lat="44.00147" lon="3.53091">
        <ele>801.81487283091</ele>
        <time>2016-06-20T10:09:33Z</time>
      </trkpt>
      <trkpt lat="44.00149" lon="3.53079">
        <ele>801.81487283091</ele>
        <time>2016-06-20T10:09:33Z</time>
      </trkpt>
      <trkpt lat="44.00151" lon="3.53068">
        <ele>805.09762861695</ele>
        <time>2016-06-20T10:09:50Z</time>
      </trkpt>
      <trkpt lat="44.00159" lon="3.53031">
        <ele>808.50817175384</ele>
        <time>2016-06-20T10:10:07Z</time>
      </trkpt>
      <trkpt lat="44.00161" lon="3.53017">
        <ele>811.64269058112</ele>
        <time>2016-06-20T10:10:07Z</time>
      </trkpt>
      <trkpt lat="44.00164" lon="3.52968">
        <ele>814.57696171184</ele>
        <time>2016-06-20T10:10:34Z</time>
      </trkpt>
      <trkpt lat="44.00166" lon="3.52944">
        <ele>817.26837841212</ele>
        <time>2016-06-20T10:10:53Z</time>
      </trkpt>
      <trkpt lat="44.00169" lon="3.52924">
        <ele>819.81541797844</ele>
        <time>2016-06-20T10:11:13Z</time>
      </trkpt>
      <trkpt lat="44.00171" lon="3.52916">
        <ele>819.81541797844</ele>
        <time>2016-06-20T10:11:13Z</time>
      </trkpt>
      <trkpt lat="44.00171" lon="3.52901">
        <ele>822.28143558824</ele>
        <time>2016-06-20T10:11:33Z</time>
      </trkpt>
      <trkpt lat="44.00174" lon="3.52893">
        <ele>822.28143558824</ele>
        <time>2016-06-20T10:11:33Z</time>
      </trkpt>
      <trkpt lat="44.00178" lon="3.5288">
        <ele>824.64207252817</ele>
        <time>2016-06-20T10:11:50Z</time>
      </trkpt>
      <trkpt lat="44.00185" lon="3.5285">
        <ele>826.39823210188</ele>
        <time>2016-06-20T10:12:22Z</time>
      </trkpt>
      <trkpt lat="44.00191" lon="3.52847">
        <ele>826.39823210188</ele>
        <time>2016-06-20T10:12:22Z</time>
      </trkpt>
      <trkpt lat="44.00199" lon="3.52846">
        <ele>827.60067938609</ele>
        <time>2016-06-20T10:12:33Z</time>
      </trkpt>
      <trkpt lat="44.00207" lon="3.52848">
        <ele>827.60067938609</ele>
        <time>2016-06-20T10:12:39Z</time>
      </trkpt>
      <trkpt lat="44.00209" lon="3.52848">
        <ele>828.1708448923</ele>
        <time>2016-06-20T10:12:52Z</time>
      </trkpt>
      <trkpt lat="44.00216" lon="3.5285">
        <ele>828.1708448923</ele>
        <time>2016-06-20T10:13:33Z</time>
      </trkpt>
      <trkpt lat="44.00219" lon="3.52854">
        <ele>827.55079990739</ele>
        <time>2016-06-20T10:13:33Z</time>
      </trkpt>
      <trkpt lat="44.00239" lon="3.52872">
        <ele>826.8244075361</ele>
        <time>2016-06-20T10:14:13Z</time>
      </trkpt>
      <trkpt lat="44.00288" lon="3.52958">
        <ele>826.51687403943</ele>
        <time>2016-06-20T10:16:39Z</time>
      </trkpt>
      <trkpt lat="44.003" lon="3.52972">
        <ele>826.20838998322</ele>
        <time>2016-06-20T10:16:53Z</time>
      </trkpt>
      <trkpt lat="44.00302" lon="3.52976">
        <ele>826.20838998322</ele>
        <time>2016-06-20T10:16:57Z</time>
      </trkpt>
      <trkpt lat="44.00313" lon="3.52991">
        <ele>826.02877863525</ele>
        <time>2016-06-20T10:17:12Z</time>
      </trkpt>
      <trkpt lat="44.0033" lon="3.53015">
        <ele>825.96769137678</ele>
        <time>2016-06-20T10:17:34Z</time>
      </trkpt>
      <trkpt lat="44.00337" lon="3.5304">
        <ele>825.92549184153</ele>
        <time>2016-06-20T10:17:57Z</time>
      </trkpt>
      <trkpt lat="44.00364" lon="3.53099">
        <ele>826.18018599645</ele>
        <time>2016-06-20T10:18:34Z</time>
      </trkpt>
      <trkpt lat="44.00368" lon="3.531">
        <ele>826.18018599645</ele>
        <time>2016-06-20T10:18:39Z</time>
      </trkpt>
      <trkpt lat="44.00374" lon="3.53096">
        <ele>826.36271576627</ele>
        <time>2016-06-20T10:18:52Z</time>
      </trkpt>
      <trkpt lat="44.00378" lon="3.53091">
        <ele>826.36271576627</ele>
        <time>2016-06-20T10:18:52Z</time>
      </trkpt>
      <trkpt lat="44.0041" lon="3.53068">
        <ele>826.95217848449</ele>
        <time>2016-06-20T10:19:23Z</time>
      </trkpt>
      <trkpt lat="44.00413" lon="3.53067">
        <ele>826.95217848449</ele>
        <time>2016-06-20T10:19:23Z</time>
      </trkpt>
      <trkpt lat="44.00445" lon="3.53029">
        <ele>828.15283005249</ele>
        <time>2016-06-20T10:20:02Z</time>
      </trkpt>
      <trkpt lat="44.00448" lon="3.53022">
        <ele>828.15283005249</ele>
        <time>2016-06-20T10:20:12Z</time>
      </trkpt>
      <trkpt lat="44.00455" lon="3.53016">
        <ele>829.26163727207</ele>
        <time>2016-06-20T10:20:32Z</time>
      </trkpt>
      <trkpt lat="44.00464" lon="3.53012">
        <ele>830.16817253219</ele>
        <time>2016-06-20T10:20:51Z</time>
      </trkpt>
      <trkpt lat="44.0047" lon="3.53014">
        <ele>830.16817253219</ele>
        <time>2016-06-20T10:20:51Z</time>
      </trkpt>
      <trkpt lat="44.00503" lon="3.53006">
        <ele>831.54084376583</ele>
        <time>2016-06-20T10:21:33Z</time>
      </trkpt>
      <trkpt lat="44.00509" lon="3.53006">
        <ele>831.54084376583</ele>
        <time>2016-06-20T10:21:39Z</time>
      </trkpt>
      <trkpt lat="44.0052" lon="3.53006">
        <ele>833.67829576713</ele>
        <time>2016-06-20T10:21:53Z</time>
      </trkpt>
      <trkpt lat="44.00527" lon="3.53005">
        <ele>833.67829576713</ele>
        <time>2016-06-20T10:21:57Z</time>
      </trkpt>
      <trkpt lat="44.00537" lon="3.53001">
        <ele>836.48996862208</ele>
        <time>2016-06-20T10:22:13Z</time>
      </trkpt>
      <trkpt lat="44.00554" lon="3.52997">
        <ele>839.45192237433</ele>
        <time>2016-06-20T10:22:23Z</time>
      </trkpt>
      <trkpt lat="44.00555" lon="3.52997">
        <ele>839.45192237433</ele>
        <time>2016-06-20T10:22:30Z</time>
      </trkpt>
      <trkpt lat="44.00571" lon="3.52982">
        <ele>841.44930753935</ele>
        <time>2016-06-20T10:23:11Z</time>
      </trkpt>
      <trkpt lat="44.00572" lon="3.52982">
        <ele>841.44930753935</ele>
        <time>2016-06-20T10:23:13Z</time>
      </trkpt>
      <trkpt lat="44.00574" lon="3.52981">
        <ele>841.44930753935</ele>
        <time>2016-06-20T10:23:19Z</time>
      </trkpt>
      <trkpt lat="44.00591" lon="3.52969">
        <ele>843.29542467174</ele>
        <time>2016-06-20T10:23:35Z</time>
      </trkpt>
      <trkpt lat="44.00591" lon="3.52969">
        <ele>843.29542467174</ele>
        <time>2016-06-20T10:23:53Z</time>
      </trkpt>
      <trkpt lat="44.00605" lon="3.52963">
        <ele>844.47764215792</ele>
        <time>2016-06-20T10:24:07Z</time>
      </trkpt>
      <trkpt lat="44.00612" lon="3.5296">
        <ele>844.47764215792</ele>
        <time>2016-06-20T10:24:10Z</time>
      </trkpt>
      <trkpt lat="44.00613" lon="3.5296">
        <ele>844.47764215792</ele>
        <time>2016-06-20T10:24:11Z</time>
      </trkpt>
      <trkpt lat="44.00636" lon="3.52954">
        <ele>845.8752158069</ele>
        <time>2016-06-20T10:24:38Z</time>
      </trkpt>
      <trkpt lat="44.00655" lon="3.52952">
        <ele>847.48685685725</ele>
        <time>2016-06-20T10:24:52Z</time>
      </trkpt>
      <trkpt lat="44.00661" lon="3.52948">
        <ele>847.48685685725</ele>
        <time>2016-06-20T10:25:00Z</time>
      </trkpt>
      <trkpt lat="44.00683" lon="3.52939">
        <ele>849.28081086286</ele>
        <time>2016-06-20T10:25:14Z</time>
      </trkpt>
      <trkpt lat="44.00722" lon="3.52899">
        <ele>851.58394864201</ele>
        <time>2016-06-20T10:26:02Z</time>
      </trkpt>
      <trkpt lat="44.00723" lon="3.52897">
        <ele>851.58394864201</ele>
        <time>2016-06-20T10:26:03Z</time>
      </trkpt>
      <trkpt lat="44.00731" lon="3.52892">
        <ele>853.70120564459</ele>
        <time>2016-06-20T10:26:10Z</time>
      </trkpt>
      <trkpt lat="44.00735" lon="3.52889">
        <ele>853.70120564459</ele>
        <time>2016-06-20T10:26:14Z</time>
      </trkpt>
      <trkpt lat="44.00759" lon="3.52859">
        <ele>855.77998713264</ele>
        <time>2016-06-20T10:26:39Z</time>
      </trkpt>
      <trkpt lat="44.0077" lon="3.52848">
        <ele>857.70474059053</ele>
        <time>2016-06-20T10:26:53Z</time>
      </trkpt>
      <trkpt lat="44.00773" lon="3.52845">
        <ele>857.70474059053</ele>
        <time>2016-06-20T10:27:00Z</time>
      </trkpt>
      <trkpt lat="44.00797" lon="3.52838">
        <ele>859.7083131392</ele>
        <time>2016-06-20T10:27:19Z</time>
      </trkpt>
      <trkpt lat="44.00836" lon="3.52826">
        <ele>861.32877292715</ele>
        <time>2016-06-20T10:27:54Z</time>
      </trkpt>
      <trkpt lat="44.00833" lon="3.52837">
        <ele>861.32877292715</ele>
        <time>2016-06-20T10:28:33Z</time>
      </trkpt>
      <trkpt lat="44.00828" lon="3.5284">
        <ele>862.75839982264</ele>
        <time>2016-06-20T10:28:39Z</time>
      </trkpt>
      <trkpt lat="44.00815" lon="3.52849">
        <ele>864.2471633594</ele>
        <time>2016-06-20T10:28:52Z</time>
      </trkpt>
      <trkpt lat="44.00811" lon="3.52851">
        <ele>864.2471633594</ele>
        <time>2016-06-20T10:29:00Z</time>
      </trkpt>
      <trkpt lat="44.00799" lon="3.52854">
        <ele>865.71809855309</ele>
        <time>2016-06-20T10:29:13Z</time>
      </trkpt>
      <trkpt lat="44.00795" lon="3.52857">
        <ele>865.71809855309</ele>
        <time>2016-06-20T10:29:13Z</time>
      </trkpt>
      <trkpt lat="44.00769" lon="3.52879">
        <ele>867.37721535721</ele>
        <time>2016-06-20T10:29:38Z</time>
      </trkpt>
      <trkpt lat="44.00756" lon="3.52894">
        <ele>869.13725444239</ele>
        <time>2016-06-20T10:30:00Z</time>
      </trkpt>
      <trkpt lat="44.00743" lon="3.52915">
        <ele>870.9902730302</ele>
        <time>2016-06-20T10:30:14Z</time>
      </trkpt>
      <trkpt lat="44.00734" lon="3.52926">
        <ele>872.79819479641</ele>
        <time>2016-06-20T10:30:27Z</time>
      </trkpt>
      <trkpt lat="44.0072" lon="3.52946">
        <ele>874.6656294028</ele>
        <time>2016-06-20T10:30:51Z</time>
      </trkpt>
      <trkpt lat="44.00715" lon="3.52955">
        <ele>874.6656294028</ele>
        <time>2016-06-20T10:30:51Z</time>
      </trkpt>
      <trkpt lat="44.00713" lon="3.52955">
        <ele>876.45731225468</ele>
        <time>2016-06-20T10:30:52Z</time>
      </trkpt>
      <trkpt lat="44.00705" lon="3.52962">
        <ele>878.07748268297</ele>
        <time>2016-06-20T10:31:08Z</time>
      </trkpt>
      <trkpt lat="44.00698" lon="3.5297">
        <ele>879.55368805829</ele>
        <time>2016-06-20T10:31:08Z</time>
      </trkpt>
      <trkpt lat="44.00691" lon="3.52979">
        <ele>880.98389486085</ele>
        <time>2016-06-20T10:31:25Z</time>
      </trkpt>
      <trkpt lat="44.00684" lon="3.52988">
        <ele>882.29994574032</ele>
        <time>2016-06-20T10:31:25Z</time>
      </trkpt>
      <trkpt lat="44.00678" lon="3.53002">
        <ele>883.55451488705</ele>
        <time>2016-06-20T10:31:41Z</time>
      </trkpt>
      <trkpt lat="44.00665" lon="3.53023">
        <ele>884.88301771286</ele>
        <time>2016-06-20T10:31:55Z</time>
      </trkpt>
      <trkpt lat="44.0066" lon="3.53026">
        <ele>884.88301771286</ele>
        <time>2016-06-20T10:32:00Z</time>
      </trkpt>
      <trkpt lat="44.00652" lon="3.53029">
        <ele>886.17980517148</ele>
        <time>2016-06-20T10:32:14Z</time>
      </trkpt>
      <trkpt lat="44.00646" lon="3.53031">
        <ele>886.17980517148</ele>
        <time>2016-06-20T10:32:14Z</time>
      </trkpt>
      <trkpt lat="44.00641" lon="3.53029">
        <ele>887.57787198262</ele>
        <time>2016-06-20T10:32:39Z</time>
      </trkpt>
      <trkpt lat="44.00627" lon="3.53043">
        <ele>888.53681580065</ele>
        <time>2016-06-20T10:33:22Z</time>
      </trkpt>
      <trkpt lat="44.00619" lon="3.53044">
        <ele>888.53681580065</ele>
        <time>2016-06-20T10:33:24Z</time>
      </trkpt>
      <trkpt lat="44.00587" lon="3.53071">
        <ele>889.27819079604</ele>
        <time>2016-06-20T10:33:54Z</time>
      </trkpt>
      <trkpt lat="44.00555" lon="3.53107">
        <ele>890.09427409204</ele>
        <time>2016-06-20T10:34:33Z</time>
      </trkpt>
      <trkpt lat="44.00535" lon="3.53129">
        <ele>890.88075064789</ele>
        <time>2016-06-20T10:34:54Z</time>
      </trkpt>
      <trkpt lat="44.00532" lon="3.53131">
        <ele>890.88075064789</ele>
        <time>2016-06-20T10:34:58Z</time>
      </trkpt>
      <trkpt lat="44.00521" lon="3.5314">
        <ele>891.54102622736</ele>
        <time>2016-06-20T10:35:14Z</time>
      </trkpt>
      <trkpt lat="44.00515" lon="3.53145">
        <ele>891.54102622736</ele>
        <time>2016-06-20T10:35:14Z</time>
      </trkpt>
      <trkpt lat="44.00505" lon="3.53177">
        <ele>892.38963446356</ele>
        <time>2016-06-20T10:35:49Z</time>
      </trkpt>
      <trkpt lat="44.00508" lon="3.53193">
        <ele>893.12627816735</ele>
        <time>2016-06-20T10:35:49Z</time>
      </trkpt>
      <trkpt lat="44.00514" lon="3.53204">
        <ele>893.74693486764</ele>
        <time>2016-06-20T10:35:56Z</time>
      </trkpt>
      <trkpt lat="44.00529" lon="3.53218">
        <ele>894.30583897232</ele>
        <time>2016-06-20T10:36:22Z</time>
      </trkpt>
      <trkpt lat="44.0053" lon="3.53218">
        <ele>894.30583897232</ele>
        <time>2016-06-20T10:36:35Z</time>
      </trkpt>
      <trkpt lat="44.00533" lon="3.53222">
        <ele>894.30583897232</ele>
        <time>2016-06-20T10:36:54Z</time>
      </trkpt>
      <trkpt lat="44.00541" lon="3.53228">
        <ele>894.75241790026</ele>
        <time>2016-06-20T10:37:05Z</time>
      </trkpt>
      <trkpt lat="44.00543" lon="3.53229">
        <ele>894.75241790026</ele>
        <time>2016-06-20T10:37:07Z</time>
      </trkpt>
      <trkpt lat="44.00548" lon="3.5323">
        <ele>894.75241790026</ele>
        <time>2016-06-20T10:37:12Z</time>
      </trkpt>
      <trkpt lat="44.00556" lon="3.53234">
        <ele>895.16987226233</ele>
        <time>2016-06-20T10:37:28Z</time>
      </trkpt>
      <trkpt lat="44.00574" lon="3.53235">
        <ele>895.53435940488</ele>
        <time>2016-06-20T10:37:45Z</time>
      </trkpt>
      <trkpt lat="44.00584" lon="3.53242">
        <ele>895.80944686914</ele>
        <time>2016-06-20T10:37:45Z</time>
      </trkpt>
      <trkpt lat="44.00596" lon="3.53258">
        <ele>896.06252896498</ele>
        <time>2016-06-20T10:38:02Z</time>
      </trkpt>
      <trkpt lat="44.00628" lon="3.53284">
        <ele>896.57240379132</ele>
        <time>2016-06-20T10:38:39Z</time>
      </trkpt>
      <trkpt lat="44.00641" lon="3.53294">
        <ele>897.07729857134</ele>
        <time>2016-06-20T10:38:53Z</time>
      </trkpt>
      <trkpt lat="44.00651" lon="3.533">
        <ele>897.55098026818</ele>
        <time>2016-06-20T10:39:00Z</time>
      </trkpt>
      <trkpt lat="44.00656" lon="3.53317">
        <ele>898.18551566637</ele>
        <time>2016-06-20T10:39:24Z</time>
      </trkpt>
      <trkpt lat="44.00655" lon="3.53322">
        <ele>898.18551566637</ele>
        <time>2016-06-20T10:39:24Z</time>
      </trkpt>
      <trkpt lat="44.00651" lon="3.53324">
        <ele>898.18551566637</ele>
        <time>2016-06-20T10:39:32Z</time>
      </trkpt>
      <trkpt lat="44.00626" lon="3.53326">
        <ele>899.4467825885</ele>
        <time>2016-06-20T10:39:57Z</time>
      </trkpt>
      <trkpt lat="44.00613" lon="3.5332">
        <ele>900.7837246608</ele>
        <time>2016-06-20T10:40:10Z</time>
      </trkpt>
      <trkpt lat="44.00612" lon="3.53319">
        <ele>900.7837246608</ele>
        <time>2016-06-20T10:40:16Z</time>
      </trkpt>
      <trkpt lat="44.00602" lon="3.53322">
        <ele>902.08940801929</ele>
        <time>2016-06-20T10:40:17Z</time>
      </trkpt>
      <trkpt lat="44.00587" lon="3.53327">
        <ele>903.40902062362</ele>
        <time>2016-06-20T10:40:36Z</time>
      </trkpt>
      <trkpt lat="44.00583" lon="3.53327">
        <ele>903.40902062362</ele>
        <time>2016-06-20T10:40:37Z</time>
      </trkpt>
      <trkpt lat="44.00573" lon="3.53329">
        <ele>904.8708553994</ele>
        <time>2016-06-20T10:40:53Z</time>
      </trkpt>
      <trkpt lat="44.00568" lon="3.5333">
        <ele>904.8708553994</ele>
        <time>2016-06-20T10:40:57Z</time>
      </trkpt>
      <trkpt lat="44.00561" lon="3.53334">
        <ele>906.49235535579</ele>
        <time>2016-06-20T10:41:15Z</time>
      </trkpt>
      <trkpt lat="44.0055" lon="3.53347">
        <ele>908.27476459972</ele>
        <time>2016-06-20T10:41:36Z</time>
      </trkpt>
      <trkpt lat="44.00549" lon="3.53347">
        <ele>908.27476459972</ele>
        <time>2016-06-20T10:41:37Z</time>
      </trkpt>
      <trkpt lat="44.00542" lon="3.53358">
        <ele>910.0457122707</ele>
        <time>2016-06-20T10:41:56Z</time>
      </trkpt>
      <trkpt lat="44.00539" lon="3.53361">
        <ele>910.0457122707</ele>
        <time>2016-06-20T10:41:56Z</time>
      </trkpt>
      <trkpt lat="44.00539" lon="3.53362">
        <ele>910.0457122707</ele>
        <time>2016-06-20T10:41:57Z</time>
      </trkpt>
      <trkpt lat="44.0053" lon="3.53366">
        <ele>911.90506981851</ele>
        <time>2016-06-20T10:42:22Z</time>
      </trkpt>
      <trkpt lat="44.00524" lon="3.53368">
        <ele>911.90506981851</ele>
        <time>2016-06-20T10:42:26Z</time>
      </trkpt>
      <trkpt lat="44.00516" lon="3.53367">
        <ele>913.80090164009</ele>
        <time>2016-06-20T10:42:37Z</time>
      </trkpt>
      <trkpt lat="44.00502" lon="3.53372">
        <ele>915.58406191738</ele>
        <time>2016-06-20T10:42:52Z</time>
      </trkpt>
      <trkpt lat="44.00474" lon="3.53377">
        <ele>917.33295066317</ele>
        <time>2016-06-20T10:43:17Z</time>
      </trkpt>
      <trkpt lat="44.00463" lon="3.53375">
        <ele>918.94729753726</ele>
        <time>2016-06-20T10:43:36Z</time>
      </trkpt>
      <trkpt lat="44.00454" lon="3.53374">
        <ele>918.94729753726</ele>
        <time>2016-06-20T10:43:36Z</time>
      </trkpt>
      <trkpt lat="44.00452" lon="3.53375">
        <ele>920.44992057282</ele>
        <time>2016-06-20T10:43:37Z</time>
      </trkpt>
      <trkpt lat="44.00428" lon="3.53388">
        <ele>921.93435284396</ele>
        <time>2016-06-20T10:43:56Z</time>
      </trkpt>
      <trkpt lat="44.00427" lon="3.53389">
        <ele>921.93435284396</ele>
        <time>2016-06-20T10:43:57Z</time>
      </trkpt>
      <trkpt lat="44.00409" lon="3.53401">
        <ele>923.55937645079</ele>
        <time>2016-06-20T10:44:17Z</time>
      </trkpt>
      <trkpt lat="44.00398" lon="3.53426">
        <ele>925.38522761036</ele>
        <time>2016-06-20T10:44:37Z</time>
      </trkpt>
      <trkpt lat="44.00404" lon="3.53452">
        <ele>927.23655580863</ele>
        <time>2016-06-20T10:44:52Z</time>
      </trkpt>
      <trkpt lat="44.00406" lon="3.53457">
        <ele>927.23655580863</ele>
        <time>2016-06-20T10:44:57Z</time>
      </trkpt>
      <trkpt lat="44.00412" lon="3.53483">
        <ele>929.36884032927</ele>
        <time>2016-06-20T10:45:17Z</time>
      </trkpt>
      <trkpt lat="44.00402" lon="3.53502">
        <ele>931.55680809993</ele>
        <time>2016-06-20T10:45:32Z</time>
      </trkpt>
      <trkpt lat="44.00403" lon="3.53509">
        <ele>931.55680809993</ele>
        <time>2016-06-20T10:45:37Z</time>
      </trkpt>
      <trkpt lat="44.00403" lon="3.53512">
        <ele>931.55680809993</ele>
        <time>2016-06-20T10:45:42Z</time>
      </trkpt>
      <trkpt lat="44.00403" lon="3.53524">
        <ele>933.51957193837</ele>
        <time>2016-06-20T10:45:57Z</time>
      </trkpt>
      <trkpt lat="44.00404" lon="3.53532">
        <ele>933.51957193837</ele>
        <time>2016-06-20T10:46:05Z</time>
      </trkpt>
      <trkpt lat="44.00404" lon="3.53546">
        <ele>935.21374835024</ele>
        <time>2016-06-20T10:46:16Z</time>
      </trkpt>
      <trkpt lat="44.00405" lon="3.5355">
        <ele>935.21374835024</ele>
        <time>2016-06-20T10:46:16Z</time>
      </trkpt>
      <trkpt lat="44.00405" lon="3.53552">
        <ele>935.21374835024</ele>
        <time>2016-06-20T10:46:17Z</time>
      </trkpt>
      <trkpt lat="44.00406" lon="3.5358">
        <ele>936.72964219574</ele>
        <time>2016-06-20T10:46:37Z</time>
      </trkpt>
      <trkpt lat="44.00404" lon="3.53599">
        <ele>938.12263810355</ele>
        <time>2016-06-20T10:46:52Z</time>
      </trkpt>
      <trkpt lat="44.00402" lon="3.53605">
        <ele>938.12263810355</ele>
        <time>2016-06-20T10:47:00Z</time>
      </trkpt>
      <trkpt lat="44.00406" lon="3.53639">
        <ele>939.53090655483</ele>
        <time>2016-06-20T10:47:16Z</time>
      </trkpt>
      <trkpt lat="44.00406" lon="3.5364">
        <ele>939.53090655483</ele>
        <time>2016-06-20T10:47:17Z</time>
      </trkpt>
      <trkpt lat="44.00414" lon="3.53667">
        <ele>940.88070353479</ele>
        <time>2016-06-20T10:47:36Z</time>
      </trkpt>
      <trkpt lat="44.00415" lon="3.53668">
        <ele>940.88070353479</ele>
        <time>2016-06-20T10:47:37Z</time>
      </trkpt>
      <trkpt lat="44.00427" lon="3.53695">
        <ele>942.23361176539</ele>
        <time>2016-06-20T10:47:57Z</time>
      </trkpt>
      <trkpt lat="44.00448" lon="3.53709">
        <ele>943.53142939058</ele>
        <time>2016-06-20T10:48:17Z</time>
      </trkpt>
      <trkpt lat="44.00469" lon="3.53677">
        <ele>944.76365642167</ele>
        <time>2016-06-20T10:48:41Z</time>
      </trkpt>
      <trkpt lat="44.00469" lon="3.53677">
        <ele>944.76365642167</ele>
        <time>2016-06-20T10:48:42Z</time>
      </trkpt>
      <trkpt lat="44.00468" lon="3.53679">
        <ele>944.76365642167</ele>
        <time>2016-06-20T10:48:54Z</time>
      </trkpt>
      <trkpt lat="44.0047" lon="3.53673">
        <ele>944.76365642167</ele>
        <time>2016-06-20T10:48:57Z</time>
      </trkpt>
      <trkpt lat="44.00478" lon="3.53655">
        <ele>945.76225880784</ele>
        <time>2016-06-20T10:49:16Z</time>
      </trkpt>
      <trkpt lat="44.00484" lon="3.53645">
        <ele>946.58840141677</ele>
        <time>2016-06-20T10:49:16Z</time>
      </trkpt>
      <trkpt lat="44.00484" lon="3.53643">
        <ele>946.58840141677</ele>
        <time>2016-06-20T10:49:17Z</time>
      </trkpt>
      <trkpt lat="44.00495" lon="3.53615">
        <ele>947.18397541689</ele>
        <time>2016-06-20T10:49:37Z</time>
      </trkpt>
      <trkpt lat="44.00517" lon="3.536">
        <ele>947.61109753407</ele>
        <time>2016-06-20T10:49:57Z</time>
      </trkpt>
      <trkpt lat="44.00532" lon="3.53572">
        <ele>947.87016195105</ele>
        <time>2016-06-20T10:50:17Z</time>
      </trkpt>
      <trkpt lat="44.00541" lon="3.53552">
        <ele>947.99083285375</ele>
        <time>2016-06-20T10:50:36Z</time>
      </trkpt>
      <trkpt lat="44.00543" lon="3.5355">
        <ele>947.99083285375</ele>
        <time>2016-06-20T10:50:36Z</time>
      </trkpt>
      <trkpt lat="44.00544" lon="3.53549">
        <ele>947.99083285375</ele>
        <time>2016-06-20T10:50:37Z</time>
      </trkpt>
      <trkpt lat="44.00564" lon="3.5354">
        <ele>948.04421374986</ele>
        <time>2016-06-20T10:50:53Z</time>
      </trkpt>
      <trkpt lat="44.0057" lon="3.53536">
        <ele>948.04421374986</ele>
        <time>2016-06-20T10:51:00Z</time>
      </trkpt>
      <trkpt lat="44.00592" lon="3.53524">
        <ele>948.16841790497</ele>
        <time>2016-06-20T10:51:17Z</time>
      </trkpt>
      <trkpt lat="44.00614" lon="3.53532">
        <ele>948.34707901833</ele>
        <time>2016-06-20T10:51:42Z</time>
      </trkpt>
      <trkpt lat="44.00623" lon="3.5353">
        <ele>948.34707901833</ele>
        <time>2016-06-20T10:51:56Z</time>
      </trkpt>
      <trkpt lat="44.0063" lon="3.53535">
        <ele>948.65131887308</ele>
        <time>2016-06-20T10:51:56Z</time>
      </trkpt>
      <trkpt lat="44.00631" lon="3.53536">
        <ele>948.65131887308</ele>
        <time>2016-06-20T10:51:57Z</time>
      </trkpt>
      <trkpt lat="44.00639" lon="3.53537">
        <ele>949.06017734496</ele>
        <time>2016-06-20T10:52:14Z</time>
      </trkpt>
      <trkpt lat="44.00646" lon="3.53536">
        <ele>949.06017734496</ele>
        <time>2016-06-20T10:52:14Z</time>
      </trkpt>
      <trkpt lat="44.00652" lon="3.53536">
        <ele>949.91418547013</ele>
        <time>2016-06-20T10:52:30Z</time>
      </trkpt>
      <trkpt lat="44.0066" lon="3.53535">
        <ele>949.91418547013</ele>
        <time>2016-06-20T10:52:30Z</time>
      </trkpt>
      <trkpt lat="44.00693" lon="3.53532">
        <ele>951.15286855867</ele>
        <time>2016-06-20T10:52:57Z</time>
      </trkpt>
      <trkpt lat="44.00712" lon="3.53553">
        <ele>952.30113754638</ele>
        <time>2016-06-20T10:53:17Z</time>
      </trkpt>
      <trkpt lat="44.00748" lon="3.53543">
        <ele>953.58194241235</ele>
        <time>2016-06-20T10:53:57Z</time>
      </trkpt>
      <trkpt lat="44.00754" lon="3.53535">
        <ele>953.58194241235</ele>
        <time>2016-06-20T10:54:15Z</time>
      </trkpt>
      <trkpt lat="44.00757" lon="3.53531">
        <ele>954.82674514359</ele>
        <time>2016-06-20T10:54:15Z</time>
      </trkpt>
      <trkpt lat="44.00756" lon="3.53519">
        <ele>954.82674514359</ele>
        <time>2016-06-20T10:54:46Z</time>
      </trkpt>
      <trkpt lat="44.00756" lon="3.53519">
        <ele>954.82674514359</ele>
        <time>2016-06-20T10:54:47Z</time>
      </trkpt>
      <trkpt lat="44.00775" lon="3.53528">
        <ele>955.85063027162</ele>
        <time>2016-06-20T11:03:17Z</time>
      </trkpt>
      <trkpt lat="44.00768" lon="3.53529">
        <ele>955.85063027162</ele>
        <time>2016-06-20T11:04:18Z</time>
      </trkpt>
      <trkpt lat="44.0078" lon="3.53526">
        <ele>957.05931202571</ele>
        <time>2016-06-20T11:11:38Z</time>
      </trkpt>
      <trkpt lat="44.00787" lon="3.53528">
        <ele>957.05931202571</ele>
        <time>2016-06-20T11:12:18Z</time>
      </trkpt>
      <trkpt lat="44.00805" lon="3.53518">
        <ele>958.28051486212</ele>
        <time>2016-06-20T11:12:46Z</time>
      </trkpt>
      <trkpt lat="44.0081" lon="3.53529">
        <ele>959.32573272513</ele>
        <time>2016-06-20T11:12:57Z</time>
      </trkpt>
      <trkpt lat="44.00812" lon="3.53533">
        <ele>959.32573272513</ele>
        <time>2016-06-20T11:13:02Z</time>
      </trkpt>
      <trkpt lat="44.0082" lon="3.53544">
        <ele>960.43870721256</ele>
        <time>2016-06-20T11:13:17Z</time>
      </trkpt>
      <trkpt lat="44.00823" lon="3.53548">
        <ele>960.43870721256</ele>
        <time>2016-06-20T11:13:24Z</time>
      </trkpt>
      <trkpt lat="44.0083" lon="3.53547">
        <ele>961.49918512873</ele>
        <time>2016-06-20T11:13:37Z</time>
      </trkpt>
      <trkpt lat="44.00842" lon="3.53532">
        <ele>962.49675205767</ele>
        <time>2016-06-20T11:14:02Z</time>
      </trkpt>
      <trkpt lat="44.00855" lon="3.53532">
        <ele>963.53720480114</ele>
        <time>2016-06-20T11:14:27Z</time>
      </trkpt>
      <trkpt lat="44.00861" lon="3.53529">
        <ele>963.53720480114</ele>
        <time>2016-06-20T11:14:36Z</time>
      </trkpt>
      <trkpt lat="44.00862" lon="3.53528">
        <ele>963.53720480114</ele>
        <time>2016-06-20T11:14:37Z</time>
      </trkpt>
      <trkpt lat="44.00866" lon="3.53524">
        <ele>964.7328387879</ele>
        <time>2016-06-20T11:14:43Z</time>
      </trkpt>
      <trkpt lat="44.00876" lon="3.53517">
        <ele>966.01430978542</ele>
        <time>2016-06-20T11:14:54Z</time>
      </trkpt>
      <trkpt lat="44.00881" lon="3.53515">
        <ele>966.01430978542</ele>
        <time>2016-06-20T11:14:58Z</time>
      </trkpt>
      <trkpt lat="44.00888" lon="3.53508">
        <ele>967.51886965054</ele>
        <time>2016-06-20T11:15:15Z</time>
      </trkpt>
      <trkpt lat="44.0089" lon="3.53507">
        <ele>967.51886965054</ele>
        <time>2016-06-20T11:15:15Z</time>
      </trkpt>
      <trkpt lat="44.00895" lon="3.5349">
        <ele>968.98394308859</ele>
        <time>2016-06-20T11:15:37Z</time>
      </trkpt>
      <trkpt lat="44.00908" lon="3.53429">
        <ele>970.77162070472</ele>
        <time>2016-06-20T11:16:37Z</time>
      </trkpt>
      <trkpt lat="44.00907" lon="3.53428">
        <ele>970.77162070472</ele>
        <time>2016-06-20T11:16:46Z</time>
      </trkpt>
      <trkpt lat="44.00907" lon="3.53414">
        <ele>972.3662184233</ele>
        <time>2016-06-20T11:16:57Z</time>
      </trkpt>
      <trkpt lat="44.00902" lon="3.53394">
        <ele>973.88133962251</ele>
        <time>2016-06-20T11:17:17Z</time>
      </trkpt>
      <trkpt lat="44.00902" lon="3.53393">
        <ele>973.88133962251</ele>
        <time>2016-06-20T11:17:57Z</time>
      </trkpt>
      <trkpt lat="44.00888" lon="3.53367">
        <ele>975.33600197945</ele>
        <time>2016-06-20T11:18:18Z</time>
      </trkpt>
      <trkpt lat="44.00873" lon="3.53333">
        <ele>976.73359258494</ele>
        <time>2016-06-20T11:18:46Z</time>
      </trkpt>
      <trkpt lat="44.00864" lon="3.53314">
        <ele>977.99095321105</ele>
        <time>2016-06-20T11:18:58Z</time>
      </trkpt>
      <trkpt lat="44.00859" lon="3.533">
        <ele>979.04585118734</ele>
        <time>2016-06-20T11:19:17Z</time>
      </trkpt>
      <trkpt lat="44.00893" lon="3.53305">
        <ele>980.56176542266</ele>
        <time>2016-06-20T11:19:57Z</time>
      </trkpt>
      <trkpt lat="44.00911" lon="3.533">
        <ele>982.1145514032</ele>
        <time>2016-06-20T11:20:17Z</time>
      </trkpt>
      <trkpt lat="44.00911" lon="3.53298">
        <ele>982.1145514032</ele>
        <time>2016-06-20T11:20:22Z</time>
      </trkpt>
      <trkpt lat="44.00916" lon="3.53287">
        <ele>983.54171359286</ele>
        <time>2016-06-20T11:20:42Z</time>
      </trkpt>
      <trkpt lat="44.00926" lon="3.53278">
        <ele>984.85158531599</ele>
        <time>2016-06-20T11:20:57Z</time>
      </trkpt>
      <trkpt lat="44.00929" lon="3.53275">
        <ele>984.85158531599</ele>
        <time>2016-06-20T11:21:03Z</time>
      </trkpt>
      <trkpt lat="44.00932" lon="3.53271">
        <ele>984.85158531599</ele>
        <time>2016-06-20T11:21:12Z</time>
      </trkpt>
      <trkpt lat="44.00931" lon="3.53271">
        <ele>984.85158531599</ele>
        <time>2016-06-20T11:21:37Z</time>
      </trkpt>
      <trkpt lat="44.00925" lon="3.53259">
        <ele>986.13870163019</ele>
        <time>2016-06-20T11:21:51Z</time>
      </trkpt>
      <trkpt lat="44.00942" lon="3.53271">
        <ele>987.43309109315</ele>
        <time>2016-06-20T11:24:37Z</time>
      </trkpt>
      <trkpt lat="44.00942" lon="3.5327">
        <ele>987.43309109315</ele>
        <time>2016-06-20T11:25:19Z</time>
      </trkpt>
      <trkpt lat="44.00939" lon="3.5325">
        <ele>988.86345318572</ele>
        <time>2016-06-20T11:25:59Z</time>
      </trkpt>
      <trkpt lat="44.0094" lon="3.53246">
        <ele>988.86345318572</ele>
        <time>2016-06-20T11:26:04Z</time>
      </trkpt>
      <trkpt lat="44.00943" lon="3.53236">
        <ele>990.14515951235</ele>
        <time>2016-06-20T11:26:14Z</time>
      </trkpt>
      <trkpt lat="44.00946" lon="3.53233">
        <ele>990.14515951235</ele>
        <time>2016-06-20T11:26:19Z</time>
      </trkpt>
      <trkpt lat="44.00951" lon="3.53225">
        <ele>991.31756052937</ele>
        <time>2016-06-20T11:26:30Z</time>
      </trkpt>
      <trkpt lat="44.00952" lon="3.53224">
        <ele>991.31756052937</ele>
        <time>2016-06-20T11:26:30Z</time>
      </trkpt>
      <trkpt lat="44.00956" lon="3.53224">
        <ele>991.31756052937</ele>
        <time>2016-06-20T11:26:37Z</time>
      </trkpt>
      <trkpt lat="44.00962" lon="3.5322">
        <ele>992.56155300195</ele>
        <time>2016-06-20T11:26:54Z</time>
      </trkpt>
      <trkpt lat="44.01012" lon="3.53187">
        <ele>994.79394293984</ele>
        <time>2016-06-20T11:27:39Z</time>
      </trkpt>
      <trkpt lat="44.01029" lon="3.53147">
        <ele>996.85829185185</ele>
        <time>2016-06-20T11:28:04Z</time>
      </trkpt>
      <trkpt lat="44.0104" lon="3.5314">
        <ele>998.879732819</ele>
        <time>2016-06-20T11:28:17Z</time>
      </trkpt>
      <trkpt lat="44.01071" lon="3.53135">
        <ele>1001.1905246959</ele>
        <time>2016-06-20T11:28:46Z</time>
      </trkpt>
      <trkpt lat="44.01072" lon="3.53135">
        <ele>1001.1905246959</ele>
        <time>2016-06-20T11:28:47Z</time>
      </trkpt>
      <trkpt lat="44.01086" lon="3.53136">
        <ele>1003.377187684</ele>
        <time>2016-06-20T11:29:07Z</time>
      </trkpt>
      <trkpt lat="44.01108" lon="3.53139">
        <ele>1005.5181619623</ele>
        <time>2016-06-20T11:29:23Z</time>
      </trkpt>
      <trkpt lat="44.01112" lon="3.53139">
        <ele>1005.5181619623</ele>
        <time>2016-06-20T11:29:23Z</time>
      </trkpt>
      <trkpt lat="44.01153" lon="3.53133">
        <ele>1007.6718894911</ele>
        <time>2016-06-20T11:29:59Z</time>
      </trkpt>
      <trkpt lat="44.01177" lon="3.53125">
        <ele>1009.5322562078</ele>
        <time>2016-06-20T11:30:22Z</time>
      </trkpt>
      <trkpt lat="44.01179" lon="3.53125">
        <ele>1009.5322562078</ele>
        <time>2016-06-20T11:30:23Z</time>
      </trkpt>
      <trkpt lat="44.01184" lon="3.53123">
        <ele>1009.5322562078</ele>
        <time>2016-06-20T11:30:44Z</time>
      </trkpt>
      <trkpt lat="44.012" lon="3.53119">
        <ele>1011.1191448925</ele>
        <time>2016-06-20T11:30:59Z</time>
      </trkpt>
      <trkpt lat="44.01236" lon="3.53108">
        <ele>1012.538265865</ele>
        <time>2016-06-20T11:31:38Z</time>
      </trkpt>
      <trkpt lat="44.0128" lon="3.53127">
        <ele>1014.5077673971</ele>
        <time>2016-06-20T11:32:18Z</time>
      </trkpt>
      <trkpt lat="44.01309" lon="3.5314">
        <ele>1017.1006978849</ele>
        <time>2016-06-20T11:32:44Z</time>
      </trkpt>
      <trkpt lat="44.01311" lon="3.53142">
        <ele>1017.1006978849</ele>
        <time>2016-06-20T11:32:47Z</time>
      </trkpt>
      <trkpt lat="44.0132" lon="3.53147">
        <ele>1019.7201354961</ele>
        <time>2016-06-20T11:32:58Z</time>
      </trkpt>
      <trkpt lat="44.01323" lon="3.53149">
        <ele>1019.7201354961</ele>
        <time>2016-06-20T11:32:58Z</time>
      </trkpt>
      <trkpt lat="44.01359" lon="3.53158">
        <ele>1022.9226512991</ele>
        <time>2016-06-20T11:33:27Z</time>
      </trkpt>
      <trkpt lat="44.0136" lon="3.53157">
        <ele>1022.9226512991</ele>
        <time>2016-06-20T11:33:28Z</time>
      </trkpt>
      <trkpt lat="44.01371" lon="3.53158">
        <ele>1026.1703510867</ele>
        <time>2016-06-20T11:33:47Z</time>
      </trkpt>
      <trkpt lat="44.01377" lon="3.53161">
        <ele>1026.1703510867</ele>
        <time>2016-06-20T11:33:47Z</time>
      </trkpt>
      <trkpt lat="44.0139" lon="3.53163">
        <ele>1029.6277158069</ele>
        <time>2016-06-20T11:33:58Z</time>
      </trkpt>
      <trkpt lat="44.01408" lon="3.5317">
        <ele>1033.5907538092</ele>
        <time>2016-06-20T11:34:19Z</time>
      </trkpt>
      <trkpt lat="44.01426" lon="3.53165">
        <ele>1037.7991972095</ele>
        <time>2016-06-20T11:34:39Z</time>
      </trkpt>
      <trkpt lat="44.01431" lon="3.53165">
        <ele>1037.7991972095</ele>
        <time>2016-06-20T11:34:44Z</time>
      </trkpt>
      <trkpt lat="44.01444" lon="3.53171">
        <ele>1042.1698424223</ele>
        <time>2016-06-20T11:34:58Z</time>
      </trkpt>
      <trkpt lat="44.01457" lon="3.53172">
        <ele>1046.7261456472</ele>
        <time>2016-06-20T11:35:18Z</time>
      </trkpt>
      <trkpt lat="44.01482" lon="3.53163">
        <ele>1050.6536115929</ele>
        <time>2016-06-20T11:35:39Z</time>
      </trkpt>
      <trkpt lat="44.01518" lon="3.53166">
        <ele>1054.5541366159</ele>
        <time>2016-06-20T11:36:18Z</time>
      </trkpt>
      <trkpt lat="44.01531" lon="3.53161">
        <ele>1058.2218464749</ele>
        <time>2016-06-20T11:36:44Z</time>
      </trkpt>
      <trkpt lat="44.01545" lon="3.53162">
        <ele>1061.3803409158</ele>
        <time>2016-06-20T11:36:58Z</time>
      </trkpt>
      <trkpt lat="44.01547" lon="3.53162">
        <ele>1061.3803409158</ele>
        <time>2016-06-20T11:36:58Z</time>
      </trkpt>
      <trkpt lat="44.01566" lon="3.53164">
        <ele>1064.092163275</ele>
        <time>2016-06-20T11:37:18Z</time>
      </trkpt>
      <trkpt lat="44.01571" lon="3.53161">
        <ele>1064.092163275</ele>
        <time>2016-06-20T11:37:18Z</time>
      </trkpt>
      <trkpt lat="44.01638" lon="3.53136">
        <ele>1066.0708125433</ele>
        <time>2016-06-20T11:38:19Z</time>
      </trkpt>
      <trkpt lat="44.01665" lon="3.53142">
        <ele>1068.1915279468</ele>
        <time>2016-06-20T11:38:44Z</time>
      </trkpt>
      <trkpt lat="44.01675" lon="3.53146">
        <ele>1069.9535928001</ele>
        <time>2016-06-20T11:38:58Z</time>
      </trkpt>
      <trkpt lat="44.01741" lon="3.53168">
        <ele>1071.5427175499</ele>
        <time>2016-06-20T11:39:59Z</time>
      </trkpt>
      <trkpt lat="44.01741" lon="3.53173">
        <ele>1071.5427175499</ele>
        <time>2016-06-20T11:40:12Z</time>
      </trkpt>
      <trkpt lat="44.01769" lon="3.53161">
        <ele>1072.5119017803</ele>
        <time>2016-06-20T11:40:44Z</time>
      </trkpt>
      <trkpt lat="44.01774" lon="3.53153">
        <ele>1072.5119017803</ele>
        <time>2016-06-20T11:40:47Z</time>
      </trkpt>
      <trkpt lat="44.01765" lon="3.53099">
        <ele>1073.5584867743</ele>
        <time>2016-06-20T11:41:24Z</time>
      </trkpt>
      <trkpt lat="44.01756" lon="3.5309">
        <ele>1074.4782080002</ele>
        <time>2016-06-20T11:41:39Z</time>
      </trkpt>
      <trkpt lat="44.01718" lon="3.53046">
        <ele>1075.2839946985</ele>
        <time>2016-06-20T11:42:18Z</time>
      </trkpt>
      <trkpt lat="44.017" lon="3.53025">
        <ele>1075.9882059725</ele>
        <time>2016-06-20T11:42:39Z</time>
      </trkpt>
      <trkpt lat="44.01695" lon="3.53021">
        <ele>1075.9882059725</ele>
        <time>2016-06-20T11:42:44Z</time>
      </trkpt>
      <trkpt lat="44.01685" lon="3.53007">
        <ele>1076.6458548675</ele>
        <time>2016-06-20T11:42:58Z</time>
      </trkpt>
      <trkpt lat="44.01668" lon="3.5298">
        <ele>1077.3368936095</ele>
        <time>2016-06-20T11:43:18Z</time>
      </trkpt>
      <trkpt lat="44.0162" lon="3.5291">
        <ele>1078.5820654418</ele>
        <time>2016-06-20T11:44:19Z</time>
      </trkpt>
      <trkpt lat="44.01616" lon="3.52905">
        <ele>1078.5820654418</ele>
        <time>2016-06-20T11:44:24Z</time>
      </trkpt>
      <trkpt lat="44.01601" lon="3.52882">
        <ele>1080.1417508254</ele>
        <time>2016-06-20T11:44:43Z</time>
      </trkpt>
      <trkpt lat="44.01596" lon="3.5288">
        <ele>1080.1417508254</ele>
        <time>2016-06-20T11:44:47Z</time>
      </trkpt>
      <trkpt lat="44.0159" lon="3.5287">
        <ele>1081.9083310882</ele>
        <time>2016-06-20T11:44:58Z</time>
      </trkpt>
      <trkpt lat="44.01592" lon="3.5289">
        <ele>1083.2771084004</ele>
        <time>2016-06-20T11:45:27Z</time>
      </trkpt>
      <trkpt lat="44.01607" lon="3.52905">
        <ele>1084.8562019968</ele>
        <time>2016-06-20T11:45:39Z</time>
      </trkpt>
      <trkpt lat="44.01633" lon="3.52927">
        <ele>1086.5023000157</ele>
        <time>2016-06-20T11:46:03Z</time>
      </trkpt>
      <trkpt lat="44.01634" lon="3.52929">
        <ele>1086.5023000157</ele>
        <time>2016-06-20T11:46:07Z</time>
      </trkpt>
      <trkpt lat="44.01645" lon="3.52933">
        <ele>1087.5203676674</ele>
        <time>2016-06-20T11:46:37Z</time>
      </trkpt>
      <trkpt lat="44.0165" lon="3.52937">
        <ele>1087.5203676674</ele>
        <time>2016-06-20T11:46:44Z</time>
      </trkpt>
      <trkpt lat="44.01656" lon="3.52945">
        <ele>1088.0463541566</ele>
        <time>2016-06-20T11:46:52Z</time>
      </trkpt>
      <trkpt lat="44.01659" lon="3.52955">
        <ele>1088.0463541566</ele>
        <time>2016-06-20T11:46:59Z</time>
      </trkpt>
      <trkpt lat="44.01667" lon="3.52967">
        <ele>1088.1931486254</ele>
        <time>2016-06-20T11:47:08Z</time>
      </trkpt>
      <trkpt lat="44.01678" lon="3.5298">
        <ele>1088.1095919187</ele>
        <time>2016-06-20T11:47:28Z</time>
      </trkpt>
      <trkpt lat="44.01688" lon="3.52989">
        <ele>1087.8332945526</ele>
        <time>2016-06-20T11:47:28Z</time>
      </trkpt>
      <trkpt lat="44.01696" lon="3.52998">
        <ele>1087.4139774562</ele>
        <time>2016-06-20T11:47:38Z</time>
      </trkpt>
      <trkpt lat="44.0171" lon="3.53016">
        <ele>1086.9844845437</ele>
        <time>2016-06-20T11:47:58Z</time>
      </trkpt>
      <trkpt lat="44.01714" lon="3.5302">
        <ele>1086.9844845437</ele>
        <time>2016-06-20T11:47:58Z</time>
      </trkpt>
      <trkpt lat="44.01718" lon="3.53026">
        <ele>1086.4084232548</ele>
        <time>2016-06-20T11:48:02Z</time>
      </trkpt>
      <trkpt lat="44.01736" lon="3.53044">
        <ele>1085.7470563863</ele>
        <time>2016-06-20T11:48:19Z</time>
      </trkpt>
      <trkpt lat="44.01736" lon="3.53046">
        <ele>1085.7470563863</ele>
        <time>2016-06-20T11:48:27Z</time>
      </trkpt>
      <trkpt lat="44.0178" lon="3.53064">
        <ele>1085.215775966</ele>
        <time>2016-06-20T11:48:59Z</time>
      </trkpt>
      <trkpt lat="44.01802" lon="3.53075">
        <ele>1084.7686542996</ele>
        <time>2016-06-20T11:49:19Z</time>
      </trkpt>
      <trkpt lat="44.01825" lon="3.53076">
        <ele>1084.8527271807</ele>
        <time>2016-06-20T11:49:48Z</time>
      </trkpt>
      <trkpt lat="44.01846" lon="3.53084">
        <ele>1085.1743979296</ele>
        <time>2016-06-20T11:49:59Z</time>
      </trkpt>
      <trkpt lat="44.01849" lon="3.53087">
        <ele>1085.1743979296</ele>
        <time>2016-06-20T11:50:02Z</time>
      </trkpt>
      <trkpt lat="44.01867" lon="3.53109">
        <ele>1085.8210869829</ele>
        <time>2016-06-20T11:50:22Z</time>
      </trkpt>
      <trkpt lat="44.01891" lon="3.53138">
        <ele>1086.5989081687</ele>
        <time>2016-06-20T11:50:42Z</time>
      </trkpt>
      <trkpt lat="44.01905" lon="3.53151">
        <ele>1087.5726802606</ele>
        <time>2016-06-20T11:50:59Z</time>
      </trkpt>
      <trkpt lat="44.01922" lon="3.53177">
        <ele>1088.643234317</ele>
        <time>2016-06-20T11:51:28Z</time>
      </trkpt>
      <trkpt lat="44.01927" lon="3.53183">
        <ele>1088.643234317</ele>
        <time>2016-06-20T11:51:28Z</time>
      </trkpt>
      <trkpt lat="44.01933" lon="3.53198">
        <ele>1089.9056115576</ele>
        <time>2016-06-20T11:51:39Z</time>
      </trkpt>
      <trkpt lat="44.01935" lon="3.53202">
        <ele>1089.9056115576</ele>
        <time>2016-06-20T11:51:44Z</time>
      </trkpt>
      <trkpt lat="44.01948" lon="3.53226">
        <ele>1091.5192492711</ele>
        <time>2016-06-20T11:52:02Z</time>
      </trkpt>
      <trkpt lat="44.01952" lon="3.53234">
        <ele>1091.5192492711</ele>
        <time>2016-06-20T11:52:07Z</time>
      </trkpt>
      <trkpt lat="44.01958" lon="3.53254">
        <ele>1093.4001792198</ele>
        <time>2016-06-20T11:52:20Z</time>
      </trkpt>
      <trkpt lat="44.01959" lon="3.53254">
        <ele>1093.4001792198</ele>
        <time>2016-06-20T11:52:28Z</time>
      </trkpt>
      <trkpt lat="44.01958" lon="3.5328">
        <ele>1095.4985549852</ele>
        <time>2016-06-20T11:52:39Z</time>
      </trkpt>
      <trkpt lat="44.01976" lon="3.53337">
        <ele>1098.6177332337</ele>
        <time>2016-06-20T11:53:28Z</time>
      </trkpt>
      <trkpt lat="44.01977" lon="3.53344">
        <ele>1098.6177332337</ele>
        <time>2016-06-20T11:53:28Z</time>
      </trkpt>
      <trkpt lat="44.01971" lon="3.53349">
        <ele>1102.0435824807</ele>
        <time>2016-06-20T11:53:40Z</time>
      </trkpt>
      <trkpt lat="44.01971" lon="3.53349">
        <ele>1102.0435824807</ele>
        <time>2016-06-20T11:53:48Z</time>
      </trkpt>
      <trkpt lat="44.01966" lon="3.53354">
        <ele>1102.0435824807</ele>
        <time>2016-06-20T11:53:48Z</time>
      </trkpt>
      <trkpt lat="44.01959" lon="3.53358">
        <ele>1105.7620030098</ele>
        <time>2016-06-20T11:54:02Z</time>
      </trkpt>
      <trkpt lat="44.01944" lon="3.53361">
        <ele>1109.6870087852</ele>
        <time>2016-06-20T11:54:20Z</time>
      </trkpt>
      <trkpt lat="44.01919" lon="3.53354">
        <ele>1113.9112623576</ele>
        <time>2016-06-20T11:54:48Z</time>
      </trkpt>
      <trkpt lat="44.01912" lon="3.53354">
        <ele>1113.9112623576</ele>
        <time>2016-06-20T11:54:48Z</time>
      </trkpt>
      <trkpt lat="44.01904" lon="3.53358">
        <ele>1118.3324379566</ele>
        <time>2016-06-20T11:54:56Z</time>
      </trkpt>
      <trkpt lat="44.01903" lon="3.53358">
        <ele>1118.3324379566</ele>
        <time>2016-06-20T11:54:59Z</time>
      </trkpt>
      <trkpt lat="44.01876" lon="3.53362">
        <ele>1122.6534451857</ele>
        <time>2016-06-20T11:55:19Z</time>
      </trkpt>
      <trkpt lat="44.01871" lon="3.53365">
        <ele>1122.6534451857</ele>
        <time>2016-06-20T11:55:19Z</time>
      </trkpt>
      <trkpt lat="44.01848" lon="3.53364">
        <ele>1126.2246583031</ele>
        <time>2016-06-20T11:55:38Z</time>
      </trkpt>
      <trkpt lat="44.0184" lon="3.53359">
        <ele>1126.2246583031</ele>
        <time>2016-06-20T11:55:39Z</time>
      </trkpt>
      <trkpt lat="44.01839" lon="3.53358">
        <ele>1129.4839442885</ele>
        <time>2016-06-20T11:55:47Z</time>
      </trkpt>
      <trkpt lat="44.01817" lon="3.53358">
        <ele>1132.4920958859</ele>
        <time>2016-06-20T11:56:01Z</time>
      </trkpt>
      <trkpt lat="44.01815" lon="3.53359">
        <ele>1132.4920958859</ele>
        <time>2016-06-20T11:56:02Z</time>
      </trkpt>
      <trkpt lat="44.01807" lon="3.53361">
        <ele>1134.989193228</ele>
        <time>2016-06-20T11:56:07Z</time>
      </trkpt>
      <trkpt lat="44.01791" lon="3.53366">
        <ele>1136.9521091127</ele>
        <time>2016-06-20T11:56:20Z</time>
      </trkpt>
      <trkpt lat="44.01788" lon="3.53368">
        <ele>1136.9521091127</ele>
        <time>2016-06-20T11:56:28Z</time>
      </trkpt>
      <trkpt lat="44.01782" lon="3.5337">
        <ele>1138.548358395</ele>
        <time>2016-06-20T11:56:28Z</time>
      </trkpt>
      <trkpt lat="44.01773" lon="3.5337">
        <ele>1139.9486878998</ele>
        <time>2016-06-20T11:56:39Z</time>
      </trkpt>
      <trkpt lat="44.01754" lon="3.53371">
        <ele>1141.4272327618</ele>
        <time>2016-06-20T11:57:08Z</time>
      </trkpt>
      <trkpt lat="44.01741" lon="3.53373">
        <ele>1142.7622898023</ele>
        <time>2016-06-20T11:57:08Z</time>
      </trkpt>
      <trkpt lat="44.01711" lon="3.53392">
        <ele>1144.2389009215</ele>
        <time>2016-06-20T11:57:47Z</time>
      </trkpt>
      <trkpt lat="44.01694" lon="3.53402">
        <ele>1145.7173317848</ele>
        <time>2016-06-20T11:58:02Z</time>
      </trkpt>
      <trkpt lat="44.01679" lon="3.53419">
        <ele>1147.3419835709</ele>
        <time>2016-06-20T11:58:28Z</time>
      </trkpt>
      <trkpt lat="44.01673" lon="3.53424">
        <ele>1147.3419835709</ele>
        <time>2016-06-20T11:58:28Z</time>
      </trkpt>
      <trkpt lat="44.0166" lon="3.53428">
        <ele>1149.0589539261</ele>
        <time>2016-06-20T11:58:40Z</time>
      </trkpt>
      <trkpt lat="44.01659" lon="3.53428">
        <ele>1149.0589539261</ele>
        <time>2016-06-20T11:58:49Z</time>
      </trkpt>
      <trkpt lat="44.01642" lon="3.53443">
        <ele>1150.7028059824</ele>
        <time>2016-06-20T11:59:00Z</time>
      </trkpt>
      <trkpt lat="44.01642" lon="3.53445">
        <ele>1150.7028059824</ele>
        <time>2016-06-20T11:59:08Z</time>
      </trkpt>
      <trkpt lat="44.01639" lon="3.53449">
        <ele>1150.7028059824</ele>
        <time>2016-06-20T11:59:08Z</time>
      </trkpt>
      <trkpt lat="44.01627" lon="3.53452">
        <ele>1152.3078546693</ele>
        <time>2016-06-20T11:59:20Z</time>
      </trkpt>
      <trkpt lat="44.01625" lon="3.53455">
        <ele>1152.3078546693</ele>
        <time>2016-06-20T11:59:24Z</time>
      </trkpt>
      <trkpt lat="44.01607" lon="3.53473">
        <ele>1154.0069261393</ele>
        <time>2016-06-20T11:59:40Z</time>
      </trkpt>
      <trkpt lat="44.01584" lon="3.53492">
        <ele>1155.6490556726</ele>
        <time>2016-06-20T11:59:59Z</time>
      </trkpt>
      <trkpt lat="44.01583" lon="3.53494">
        <ele>1155.6490556726</ele>
        <time>2016-06-20T12:00:02Z</time>
      </trkpt>
      <trkpt lat="44.01578" lon="3.53499">
        <ele>1155.6490556726</ele>
        <time>2016-06-20T12:00:07Z</time>
      </trkpt>
      <trkpt lat="44.01561" lon="3.53508">
        <ele>1157.3395548134</ele>
        <time>2016-06-20T12:00:20Z</time>
      </trkpt>
      <trkpt lat="44.01559" lon="3.5351">
        <ele>1157.3395548134</ele>
        <time>2016-06-20T12:00:28Z</time>
      </trkpt>
      <trkpt lat="44.01547" lon="3.53513">
        <ele>1159.0750198884</ele>
        <time>2016-06-20T12:00:48Z</time>
      </trkpt>
      <trkpt lat="44.01534" lon="3.53512">
        <ele>1160.5783908844</ele>
        <time>2016-06-20T12:00:48Z</time>
      </trkpt>
      <trkpt lat="44.01525" lon="3.53512">
        <ele>1160.5783908844</ele>
        <time>2016-06-20T12:00:56Z</time>
      </trkpt>
      <trkpt lat="44.01498" lon="3.53525">
        <ele>1162.0836170451</ele>
        <time>2016-06-20T12:01:28Z</time>
      </trkpt>
      <trkpt lat="44.01489" lon="3.53528">
        <ele>1163.4039689848</ele>
        <time>2016-06-20T12:01:29Z</time>
      </trkpt>
      <trkpt lat="44.01476" lon="3.53534">
        <ele>1164.4246162017</ele>
        <time>2016-06-20T12:01:40Z</time>
      </trkpt>
      <trkpt lat="44.01475" lon="3.53535">
        <ele>1164.4246162017</ele>
        <time>2016-06-20T12:01:48Z</time>
      </trkpt>
      <trkpt lat="44.01468" lon="3.53537">
        <ele>1164.4246162017</ele>
        <time>2016-06-20T12:01:48Z</time>
      </trkpt>
      <trkpt lat="44.01451" lon="3.53541">
        <ele>1165.1264836035</ele>
        <time>2016-06-20T12:02:00Z</time>
      </trkpt>
      <trkpt lat="44.01449" lon="3.53541">
        <ele>1165.1264836035</ele>
        <time>2016-06-20T12:02:02Z</time>
      </trkpt>
      <trkpt lat="44.01404" lon="3.53545">
        <ele>1165.6224967079</ele>
        <time>2016-06-20T12:02:48Z</time>
      </trkpt>
      <trkpt lat="44.01387" lon="3.53577">
        <ele>1165.7152252178</ele>
        <time>2016-06-20T12:03:28Z</time>
      </trkpt>
      <trkpt lat="44.014" lon="3.5358">
        <ele>1165.8713585153</ele>
        <time>2016-06-20T12:03:40Z</time>
      </trkpt>
      <trkpt lat="44.01403" lon="3.53577">
        <ele>1165.8713585153</ele>
        <time>2016-06-20T12:03:40Z</time>
      </trkpt>
      <trkpt lat="44.01405" lon="3.53577">
        <ele>1165.8713585153</ele>
        <time>2016-06-20T12:03:45Z</time>
      </trkpt>
      <trkpt lat="44.01422" lon="3.53576">
        <ele>1166.2925216194</ele>
        <time>2016-06-20T12:04:01Z</time>
      </trkpt>
      <trkpt lat="44.01423" lon="3.53575">
        <ele>1166.2925216194</ele>
        <time>2016-06-20T12:04:02Z</time>
      </trkpt>
      <trkpt lat="44.01429" lon="3.53573">
        <ele>1166.2925216194</ele>
        <time>2016-06-20T12:04:07Z</time>
      </trkpt>
      <trkpt lat="44.01441" lon="3.5357">
        <ele>1166.76123715</ele>
        <time>2016-06-20T12:04:18Z</time>
      </trkpt>
      <trkpt lat="44.01442" lon="3.5357">
        <ele>1166.76123715</ele>
        <time>2016-06-20T12:04:18Z</time>
      </trkpt>
      <trkpt lat="44.01471" lon="3.53572">
        <ele>1167.3928691556</ele>
        <time>2016-06-20T12:04:43Z</time>
      </trkpt>
      <trkpt lat="44.01495" lon="3.53574">
        <ele>1168.4090868364</ele>
        <time>2016-06-20T12:05:08Z</time>
      </trkpt>
      <trkpt lat="44.01501" lon="3.53579">
        <ele>1168.4090868364</ele>
        <time>2016-06-20T12:05:08Z</time>
      </trkpt>
      <trkpt lat="44.01511" lon="3.53586">
        <ele>1169.408873017</ele>
        <time>2016-06-20T12:05:20Z</time>
      </trkpt>
      <trkpt lat="44.01536" lon="3.53594">
        <ele>1170.5971001446</ele>
        <time>2016-06-20T12:05:42Z</time>
      </trkpt>
      <trkpt lat="44.01542" lon="3.53595">
        <ele>1170.5971001446</ele>
        <time>2016-06-20T12:05:47Z</time>
      </trkpt>
      <trkpt lat="44.01553" lon="3.53598">
        <ele>1171.8603681611</ele>
        <time>2016-06-20T12:05:57Z</time>
      </trkpt>
      <trkpt lat="44.0156" lon="3.53601">
        <ele>1171.8603681611</ele>
        <time>2016-06-20T12:06:02Z</time>
      </trkpt>
      <trkpt lat="44.01568" lon="3.53603">
        <ele>1173.3095035049</ele>
        <time>2016-06-20T12:06:12Z</time>
      </trkpt>
      <trkpt lat="44.01573" lon="3.53603">
        <ele>1173.3095035049</ele>
        <time>2016-06-20T12:06:17Z</time>
      </trkpt>
      <trkpt lat="44.01585" lon="3.53599">
        <ele>1174.7151556214</ele>
        <time>2016-06-20T12:06:27Z</time>
      </trkpt>
      <trkpt lat="44.01589" lon="3.53599">
        <ele>1174.7151556214</ele>
        <time>2016-06-20T12:06:32Z</time>
      </trkpt>
      <trkpt lat="44.01609" lon="3.53584">
        <ele>1175.836064707</ele>
        <time>2016-06-20T12:06:50Z</time>
      </trkpt>
      <trkpt lat="44.01626" lon="3.53584">
        <ele>1176.9105929866</ele>
        <time>2016-06-20T12:07:04Z</time>
      </trkpt>
      <trkpt lat="44.01629" lon="3.53584">
        <ele>1176.9105929866</ele>
        <time>2016-06-20T12:07:07Z</time>
      </trkpt>
      <trkpt lat="44.01639" lon="3.53585">
        <ele>1177.857035098</ele>
        <time>2016-06-20T12:07:21Z</time>
      </trkpt>
      <trkpt lat="44.01641" lon="3.53585">
        <ele>1177.857035098</ele>
        <time>2016-06-20T12:07:21Z</time>
      </trkpt>
      <trkpt lat="44.01641" lon="3.53585">
        <ele>1177.857035098</ele>
        <time>2016-06-20T12:07:22Z</time>
      </trkpt>
      <trkpt lat="44.01665" lon="3.53574">
        <ele>1178.7008705544</ele>
        <time>2016-06-20T12:07:42Z</time>
      </trkpt>
      <trkpt lat="44.01686" lon="3.53585">
        <ele>1179.3506507364</ele>
        <time>2016-06-20T12:08:03Z</time>
      </trkpt>
      <trkpt lat="44.01692" lon="3.53588">
        <ele>1179.3506507364</ele>
        <time>2016-06-20T12:08:07Z</time>
      </trkpt>
      <trkpt lat="44.01705" lon="3.53595">
        <ele>1180.1400548778</ele>
        <time>2016-06-20T12:08:21Z</time>
      </trkpt>
      <trkpt lat="44.01706" lon="3.53595">
        <ele>1180.1400548778</ele>
        <time>2016-06-20T12:08:22Z</time>
      </trkpt>
      <trkpt lat="44.01729" lon="3.53601">
        <ele>1181.1039893994</ele>
        <time>2016-06-20T12:08:42Z</time>
      </trkpt>
      <trkpt lat="44.01749" lon="3.53618">
        <ele>1181.7842693367</ele>
        <time>2016-06-20T12:09:03Z</time>
      </trkpt>
      <trkpt lat="44.01763" lon="3.53641">
        <ele>1182.4632472863</ele>
        <time>2016-06-20T12:09:22Z</time>
      </trkpt>
      <trkpt lat="44.01777" lon="3.53669">
        <ele>1182.9989645894</ele>
        <time>2016-06-20T12:09:42Z</time>
      </trkpt>
      <trkpt lat="44.01783" lon="3.53681">
        <ele>1183.6205070202</ele>
        <time>2016-06-20T12:10:01Z</time>
      </trkpt>
      <trkpt lat="44.01788" lon="3.53696">
        <ele>1184.1939589733</ele>
        <time>2016-06-20T12:10:42Z</time>
      </trkpt>
      <trkpt lat="44.01798" lon="3.53707">
        <ele>1184.6529544883</ele>
        <time>2016-06-20T12:11:03Z</time>
      </trkpt>
      <trkpt lat="44.01807" lon="3.53714">
        <ele>1185.0515439112</ele>
        <time>2016-06-20T12:11:22Z</time>
      </trkpt>
      <trkpt lat="44.01807" lon="3.53715">
        <ele>1185.0515439112</ele>
        <time>2016-06-20T12:11:42Z</time>
      </trkpt>
      <trkpt lat="44.01838" lon="3.53732">
        <ele>1185.6704840998</ele>
        <time>2016-06-20T12:12:03Z</time>
      </trkpt>
      <trkpt lat="44.01841" lon="3.53731">
        <ele>1185.6704840998</ele>
        <time>2016-06-20T12:12:07Z</time>
      </trkpt>
      <trkpt lat="44.01902" lon="3.53768">
        <ele>1186.8845079999</ele>
        <time>2016-06-20T12:13:02Z</time>
      </trkpt>
      <trkpt lat="44.01902" lon="3.53769">
        <ele>1186.8845079999</ele>
        <time>2016-06-20T12:13:07Z</time>
      </trkpt>
      <trkpt lat="44.01909" lon="3.53771">
        <ele>1186.8845079999</ele>
        <time>2016-06-20T12:13:17Z</time>
      </trkpt>
      <trkpt lat="44.01912" lon="3.53774">
        <ele>1187.554736129</ele>
        <time>2016-06-20T12:13:22Z</time>
      </trkpt>
      <trkpt lat="44.01915" lon="3.53778">
        <ele>1187.554736129</ele>
        <time>2016-06-20T12:13:27Z</time>
      </trkpt>
      <trkpt lat="44.01914" lon="3.53779">
        <ele>1187.554736129</ele>
        <time>2016-06-20T12:13:32Z</time>
      </trkpt>
      <trkpt lat="44.01918" lon="3.53784">
        <ele>1187.8523509872</ele>
        <time>2016-06-20T12:13:57Z</time>
      </trkpt>
      <trkpt lat="44.01919" lon="3.5379">
        <ele>1187.8523509872</ele>
        <time>2016-06-20T12:14:02Z</time>
      </trkpt>
      <trkpt lat="44.01923" lon="3.53805">
        <ele>1187.9657580002</ele>
        <time>2016-06-20T12:14:12Z</time>
      </trkpt>
      <trkpt lat="44.01928" lon="3.53811">
        <ele>1187.9657580002</ele>
        <time>2016-06-20T12:14:17Z</time>
      </trkpt>
      <trkpt lat="44.01937" lon="3.53822">
        <ele>1188.0555575405</ele>
        <time>2016-06-20T12:14:27Z</time>
      </trkpt>
      <trkpt lat="44.0194" lon="3.53827">
        <ele>1188.0555575405</ele>
        <time>2016-06-20T12:14:32Z</time>
      </trkpt>
      <trkpt lat="44.01945" lon="3.53839">
        <ele>1188.0687897689</ele>
        <time>2016-06-20T12:14:42Z</time>
      </trkpt>
      <trkpt lat="44.01949" lon="3.53839">
        <ele>1188.0687897689</ele>
        <time>2016-06-20T12:14:47Z</time>
      </trkpt>
      <trkpt lat="44.01961" lon="3.53848">
        <ele>1188.057401364</ele>
        <time>2016-06-20T12:14:57Z</time>
      </trkpt>
      <trkpt lat="44.01967" lon="3.53849">
        <ele>1188.057401364</ele>
        <time>2016-06-20T12:15:06Z</time>
      </trkpt>
      <trkpt lat="44.01978" lon="3.53858">
        <ele>1188.0118677811</ele>
        <time>2016-06-20T12:15:18Z</time>
      </trkpt>
      <trkpt lat="44.01983" lon="3.53858">
        <ele>1188.0118677811</ele>
        <time>2016-06-20T12:15:18Z</time>
      </trkpt>
      <trkpt lat="44.01997" lon="3.5385">
        <ele>1188.4565891021</ele>
        <time>2016-06-20T12:15:29Z</time>
      </trkpt>
      <trkpt lat="44.02028" lon="3.53833">
        <ele>1190.4380206209</ele>
        <time>2016-06-20T12:16:03Z</time>
      </trkpt>
      <trkpt lat="44.02047" lon="3.53817">
        <ele>1192.9758583855</ele>
        <time>2016-06-20T12:16:20Z</time>
      </trkpt>
      <trkpt lat="44.02048" lon="3.53815">
        <ele>1192.9758583855</ele>
        <time>2016-06-20T12:16:22Z</time>
      </trkpt>
      <trkpt lat="44.02063" lon="3.53787">
        <ele>1196.0969081131</ele>
        <time>2016-06-20T12:16:42Z</time>
      </trkpt>
      <trkpt lat="44.02065" lon="3.53761">
        <ele>1199.2478771247</ele>
        <time>2016-06-20T12:17:02Z</time>
      </trkpt>
      <trkpt lat="44.02065" lon="3.5376">
        <ele>1199.2478771247</ele>
        <time>2016-06-20T12:17:15Z</time>
      </trkpt>
      <trkpt lat="44.02077" lon="3.53718">
        <ele>1201.3251466207</ele>
        <time>2016-06-20T12:18:03Z</time>
      </trkpt>
      <trkpt lat="44.0209" lon="3.53695">
        <ele>1203.1682005658</ele>
        <time>2016-06-20T12:18:22Z</time>
      </trkpt>
      <trkpt lat="44.02108" lon="3.5368">
        <ele>1204.820543735</ele>
        <time>2016-06-20T12:18:46Z</time>
      </trkpt>
      <trkpt lat="44.02113" lon="3.53678">
        <ele>1204.820543735</ele>
        <time>2016-06-20T12:18:47Z</time>
      </trkpt>
      <trkpt lat="44.02124" lon="3.53672">
        <ele>1206.3374390527</ele>
        <time>2016-06-20T12:19:00Z</time>
      </trkpt>
      <trkpt lat="44.02128" lon="3.5367">
        <ele>1206.3374390527</ele>
        <time>2016-06-20T12:19:03Z</time>
      </trkpt>
      <trkpt lat="44.02147" lon="3.53655">
        <ele>1207.7560723443</ele>
        <time>2016-06-20T12:19:22Z</time>
      </trkpt>
      <trkpt lat="44.02165" lon="3.53639">
        <ele>1209.1400134139</ele>
        <time>2016-06-20T12:19:42Z</time>
      </trkpt>
      <trkpt lat="44.02184" lon="3.53623">
        <ele>1210.33211321</ele>
        <time>2016-06-20T12:20:01Z</time>
      </trkpt>
      <trkpt lat="44.02185" lon="3.53622">
        <ele>1210.33211321</ele>
        <time>2016-06-20T12:20:01Z</time>
      </trkpt>
      <trkpt lat="44.02186" lon="3.53621">
        <ele>1210.33211321</ele>
        <time>2016-06-20T12:20:02Z</time>
      </trkpt>
      <trkpt lat="44.02208" lon="3.53615">
        <ele>1211.4899603542</ele>
        <time>2016-06-20T12:20:23Z</time>
      </trkpt>
      <trkpt lat="44.02234" lon="3.53619">
        <ele>1212.6588081376</ele>
        <time>2016-06-20T12:20:46Z</time>
      </trkpt>
      <trkpt lat="44.02235" lon="3.53619">
        <ele>1212.6588081376</ele>
        <time>2016-06-20T12:20:47Z</time>
      </trkpt>
      <trkpt lat="44.02248" lon="3.53617">
        <ele>1213.7076440422</ele>
        <time>2016-06-20T12:20:58Z</time>
      </trkpt>
      <trkpt lat="44.02252" lon="3.53614">
        <ele>1213.7076440422</ele>
        <time>2016-06-20T12:21:02Z</time>
      </trkpt>
      <trkpt lat="44.02276" lon="3.53603">
        <ele>1215.0342391676</ele>
        <time>2016-06-20T12:21:21Z</time>
      </trkpt>
      <trkpt lat="44.02278" lon="3.53603">
        <ele>1215.0342391676</ele>
        <time>2016-06-20T12:21:21Z</time>
      </trkpt>
      <trkpt lat="44.02279" lon="3.53603">
        <ele>1215.0342391676</ele>
        <time>2016-06-20T12:21:22Z</time>
      </trkpt>
      <trkpt lat="44.02297" lon="3.53604">
        <ele>1216.4587657252</ele>
        <time>2016-06-20T12:21:42Z</time>
      </trkpt>
      <trkpt lat="44.02304" lon="3.53606">
        <ele>1216.4587657252</ele>
        <time>2016-06-20T12:21:49Z</time>
      </trkpt>
      <trkpt lat="44.0232" lon="3.53617">
        <ele>1218.3763889476</ele>
        <time>2016-06-20T12:22:04Z</time>
      </trkpt>
      <trkpt lat="44.02322" lon="3.53616">
        <ele>1218.3763889476</ele>
        <time>2016-06-20T12:22:07Z</time>
      </trkpt>
      <trkpt lat="44.02342" lon="3.5362">
        <ele>1220.7339671747</ele>
        <time>2016-06-20T12:22:23Z</time>
      </trkpt>
      <trkpt lat="44.02356" lon="3.53619">
        <ele>1223.3225388652</ele>
        <time>2016-06-20T12:22:42Z</time>
      </trkpt>
      <trkpt lat="44.02364" lon="3.53623">
        <ele>1223.3225388652</ele>
        <time>2016-06-20T12:22:51Z</time>
      </trkpt>
      <trkpt lat="44.02376" lon="3.53627">
        <ele>1226.1928742755</ele>
        <time>2016-06-20T12:23:04Z</time>
      </trkpt>
      <trkpt lat="44.02393" lon="3.53634">
        <ele>1229.0886403615</ele>
        <time>2016-06-20T12:23:23Z</time>
      </trkpt>
      <trkpt lat="44.02396" lon="3.53633">
        <ele>1229.0886403615</ele>
        <time>2016-06-20T12:23:27Z</time>
      </trkpt>
      <trkpt lat="44.02405" lon="3.53629">
        <ele>1231.7723228781</ele>
        <time>2016-06-20T12:23:37Z</time>
      </trkpt>
      <trkpt lat="44.02408" lon="3.53627">
        <ele>1231.7723228781</ele>
        <time>2016-06-20T12:23:42Z</time>
      </trkpt>
      <trkpt lat="44.02408" lon="3.53623">
        <ele>1231.7723228781</ele>
        <time>2016-06-20T12:23:52Z</time>
      </trkpt>
      <trkpt lat="44.02414" lon="3.53631">
        <ele>1233.5921848933</ele>
        <time>2016-06-20T12:24:27Z</time>
      </trkpt>
      <trkpt lat="44.02432" lon="3.53606">
        <ele>1235.1141632338</ele>
        <time>2016-06-20T12:25:02Z</time>
      </trkpt>
      <trkpt lat="44.0243" lon="3.53588">
        <ele>1236.5320773642</ele>
        <time>2016-06-20T12:25:22Z</time>
      </trkpt>
      <trkpt lat="44.02415" lon="3.53559">
        <ele>1237.9249980788</ele>
        <time>2016-06-20T12:25:47Z</time>
      </trkpt>
      <trkpt lat="44.02414" lon="3.53557">
        <ele>1237.9249980788</ele>
        <time>2016-06-20T12:25:47Z</time>
      </trkpt>
      <trkpt lat="44.02402" lon="3.53529">
        <ele>1239.1645738271</ele>
        <time>2016-06-20T12:26:03Z</time>
      </trkpt>
      <trkpt lat="44.02399" lon="3.53512">
        <ele>1240.305312525</ele>
        <time>2016-06-20T12:26:22Z</time>
      </trkpt>
      <trkpt lat="44.0239" lon="3.53495">
        <ele>1241.2683572217</ele>
        <time>2016-06-20T12:26:22Z</time>
      </trkpt>
      <trkpt lat="44.02381" lon="3.53474">
        <ele>1242.1829540247</ele>
        <time>2016-06-20T12:26:37Z</time>
      </trkpt>
      <trkpt lat="44.0238" lon="3.53473">
        <ele>1242.1829540247</ele>
        <time>2016-06-20T12:26:38Z</time>
      </trkpt>
      <trkpt lat="44.02374" lon="3.53435">
        <ele>1242.8952287602</ele>
        <time>2016-06-20T12:27:00Z</time>
      </trkpt>
      <trkpt lat="44.02373" lon="3.5343">
        <ele>1242.8952287602</ele>
        <time>2016-06-20T12:27:02Z</time>
      </trkpt>
      <trkpt lat="44.02345" lon="3.53372">
        <ele>1243.7099652158</ele>
        <time>2016-06-20T12:27:47Z</time>
      </trkpt>
      <trkpt lat="44.02334" lon="3.53334">
        <ele>1244.2463936167</ele>
        <time>2016-06-20T12:28:02Z</time>
      </trkpt>
      <trkpt lat="44.02326" lon="3.53304">
        <ele>1244.7289671668</ele>
        <time>2016-06-20T12:28:22Z</time>
      </trkpt>
      <trkpt lat="44.02327" lon="3.53268">
        <ele>1245.120831052</ele>
        <time>2016-06-20T12:28:47Z</time>
      </trkpt>
      <trkpt lat="44.0233" lon="3.53255">
        <ele>1245.4313351231</ele>
        <time>2016-06-20T12:28:57Z</time>
      </trkpt>
      <trkpt lat="44.02332" lon="3.53246">
        <ele>1245.4313351231</ele>
        <time>2016-06-20T12:29:02Z</time>
      </trkpt>
      <trkpt lat="44.02333" lon="3.53228">
        <ele>1245.62613787</ele>
        <time>2016-06-20T12:29:12Z</time>
      </trkpt>
      <trkpt lat="44.02331" lon="3.53205">
        <ele>1245.5872697178</ele>
        <time>2016-06-20T12:29:37Z</time>
      </trkpt>
      <trkpt lat="44.02327" lon="3.53191">
        <ele>1245.5375202589</ele>
        <time>2016-06-20T12:29:37Z</time>
      </trkpt>
      <trkpt lat="44.02323" lon="3.53181">
        <ele>1245.5375202589</ele>
        <time>2016-06-20T12:29:44Z</time>
      </trkpt>
      <trkpt lat="44.02307" lon="3.53155">
        <ele>1245.4815605404</ele>
        <time>2016-06-20T12:30:03Z</time>
      </trkpt>
      <trkpt lat="44.02273" lon="3.53131">
        <ele>1245.2507654607</ele>
        <time>2016-06-20T12:30:28Z</time>
      </trkpt>
      <trkpt lat="44.02246" lon="3.53074">
        <ele>1245.0063856526</ele>
        <time>2016-06-20T12:31:04Z</time>
      </trkpt>
      <trkpt lat="44.02246" lon="3.52982">
        <ele>1245.07074311</ele>
        <time>2016-06-20T12:32:02Z</time>
      </trkpt>
      <trkpt lat="44.02223" lon="3.52942">
        <ele>1245.5109766198</ele>
        <time>2016-06-20T12:32:22Z</time>
      </trkpt>
      <trkpt lat="44.02227" lon="3.5292">
        <ele>1245.537914991</ele>
        <time>2016-06-20T12:32:42Z</time>
      </trkpt>
      <trkpt lat="44.02232" lon="3.52915">
        <ele>1245.537914991</ele>
        <time>2016-06-20T12:32:51Z</time>
      </trkpt>
      <trkpt lat="44.02244" lon="3.5291">
        <ele>1245.8193250418</ele>
        <time>2016-06-20T12:33:02Z</time>
      </trkpt>
      <trkpt lat="44.02264" lon="3.52898">
        <ele>1247.0451885097</ele>
        <time>2016-06-20T12:33:22Z</time>
      </trkpt>
      <trkpt lat="44.02279" lon="3.52887">
        <ele>1248.8865357555</ele>
        <time>2016-06-20T12:33:43Z</time>
      </trkpt>
      <trkpt lat="44.02302" lon="3.52886">
        <ele>1251.4979264852</ele>
        <time>2016-06-20T12:34:03Z</time>
      </trkpt>
      <trkpt lat="44.02325" lon="3.5287">
        <ele>1254.5303734517</ele>
        <time>2016-06-20T12:34:23Z</time>
      </trkpt>
      <trkpt lat="44.02347" lon="3.52861">
        <ele>1258.0628166037</ele>
        <time>2016-06-20T12:34:47Z</time>
      </trkpt>
      <trkpt lat="44.02356" lon="3.52861">
        <ele>1258.0628166037</ele>
        <time>2016-06-20T12:34:57Z</time>
      </trkpt>
      <trkpt lat="44.02363" lon="3.52859">
        <ele>1261.8066960161</ele>
        <time>2016-06-20T12:35:04Z</time>
      </trkpt>
      <trkpt lat="44.02382" lon="3.52852">
        <ele>1265.6093453277</ele>
        <time>2016-06-20T12:35:22Z</time>
      </trkpt>
      <trkpt lat="44.02385" lon="3.52853">
        <ele>1265.6093453277</ele>
        <time>2016-06-20T12:35:22Z</time>
      </trkpt>
      <trkpt lat="44.02411" lon="3.52844">
        <ele>1270.2658937536</ele>
        <time>2016-06-20T12:35:42Z</time>
      </trkpt>
      <trkpt lat="44.02423" lon="3.52843">
        <ele>1275.4587011546</ele>
        <time>2016-06-20T12:36:04Z</time>
      </trkpt>
      <trkpt lat="44.02437" lon="3.5285">
        <ele>1280.2291170433</ele>
        <time>2016-06-20T12:36:22Z</time>
      </trkpt>
      <trkpt lat="44.02444" lon="3.52854">
        <ele>1280.2291170433</ele>
        <time>2016-06-20T12:36:22Z</time>
      </trkpt>
      <trkpt lat="44.02455" lon="3.52852">
        <ele>1284.6989717739</ele>
        <time>2016-06-20T12:36:36Z</time>
      </trkpt>
      <trkpt lat="44.02456" lon="3.52849">
        <ele>1284.6989717739</ele>
        <time>2016-06-20T12:36:39Z</time>
      </trkpt>
      <trkpt lat="44.02464" lon="3.52854">
        <ele>1288.7947628975</ele>
        <time>2016-06-20T12:36:49Z</time>
      </trkpt>
      <trkpt lat="44.02466" lon="3.52855">
        <ele>1288.7947628975</ele>
        <time>2016-06-20T12:36:56Z</time>
      </trkpt>
      <trkpt lat="44.02472" lon="3.5286">
        <ele>1292.6801514121</ele>
        <time>2016-06-20T12:36:57Z</time>
      </trkpt>
      <trkpt lat="44.02507" lon="3.52872">
        <ele>1296.262527959</ele>
        <time>2016-06-20T12:37:24Z</time>
      </trkpt>
      <trkpt lat="44.02511" lon="3.52873">
        <ele>1296.262527959</ele>
        <time>2016-06-20T12:37:27Z</time>
      </trkpt>
      <trkpt lat="44.02519" lon="3.52877">
        <ele>1298.3186167331</ele>
        <time>2016-06-20T12:37:42Z</time>
      </trkpt>
      <trkpt lat="44.02519" lon="3.52886">
        <ele>1298.3186167331</ele>
        <time>2016-06-20T12:37:57Z</time>
      </trkpt>
      <trkpt lat="44.02536" lon="3.529">
        <ele>1298.2094208388</ele>
        <time>2016-06-20T12:38:17Z</time>
      </trkpt>
      <trkpt lat="44.02542" lon="3.52908">
        <ele>1298.2094208388</ele>
        <time>2016-06-20T12:38:28Z</time>
      </trkpt>
      <trkpt lat="44.02558" lon="3.52919">
        <ele>1297.7557640566</ele>
        <time>2016-06-20T12:38:43Z</time>
      </trkpt>
      <trkpt lat="44.02559" lon="3.52928">
        <ele>1297.7557640566</ele>
        <time>2016-06-20T12:38:48Z</time>
      </trkpt>
      <trkpt lat="44.02575" lon="3.52941">
        <ele>1297.219112032</ele>
        <time>2016-06-20T12:39:04Z</time>
      </trkpt>
      <trkpt lat="44.02606" lon="3.52977">
        <ele>1296.3809094306</ele>
        <time>2016-06-20T12:39:47Z</time>
      </trkpt>
      <trkpt lat="44.0262" lon="3.52994">
        <ele>1295.5007400717</ele>
        <time>2016-06-20T12:40:00Z</time>
      </trkpt>
      <trkpt lat="44.02622" lon="3.52998">
        <ele>1295.5007400717</ele>
        <time>2016-06-20T12:40:00Z</time>
      </trkpt>
      <trkpt lat="44.02624" lon="3.53001">
        <ele>1295.5007400717</ele>
        <time>2016-06-20T12:40:04Z</time>
      </trkpt>
      <trkpt lat="44.02634" lon="3.53014">
        <ele>1294.5454817771</ele>
        <time>2016-06-20T12:40:12Z</time>
      </trkpt>
      <trkpt lat="44.02662" lon="3.53048">
        <ele>1293.5855650758</ele>
        <time>2016-06-20T12:40:48Z</time>
      </trkpt>
      <trkpt lat="44.02671" lon="3.53056">
        <ele>1292.8447894734</ele>
        <time>2016-06-20T12:41:02Z</time>
      </trkpt>
      <trkpt lat="44.02707" lon="3.53002">
        <ele>1292.5875304234</ele>
        <time>2016-06-20T12:41:44Z</time>
      </trkpt>
      <trkpt lat="44.02709" lon="3.52995">
        <ele>1292.5875304234</ele>
        <time>2016-06-20T12:41:47Z</time>
      </trkpt>
      <trkpt lat="44.02712" lon="3.52986">
        <ele>1291.7603526701</ele>
        <time>2016-06-20T12:41:52Z</time>
      </trkpt>
      <trkpt lat="44.02713" lon="3.52983">
        <ele>1291.7603526701</ele>
        <time>2016-06-20T12:41:57Z</time>
      </trkpt>
      <trkpt lat="44.02713" lon="3.5298">
        <ele>1291.7603526701</ele>
        <time>2016-06-20T12:42:02Z</time>
      </trkpt>
      <trkpt lat="44.02713" lon="3.52979">
        <ele>1291.7603526701</ele>
        <time>2016-06-20T12:42:12Z</time>
      </trkpt>
      <trkpt lat="44.02713" lon="3.52972">
        <ele>1289.3887517398</ele>
        <time>2016-06-20T12:42:57Z</time>
      </trkpt>
      <trkpt lat="44.02714" lon="3.52966">
        <ele>1289.3887517398</ele>
        <time>2016-06-20T12:43:02Z</time>
      </trkpt>
      <trkpt lat="44.02721" lon="3.52958">
        <ele>1287.0095480882</ele>
        <time>2016-06-20T12:43:08Z</time>
      </trkpt>
      <trkpt lat="44.02734" lon="3.5294">
        <ele>1284.5046049562</ele>
        <time>2016-06-20T12:43:21Z</time>
      </trkpt>
      <trkpt lat="44.02734" lon="3.52939">
        <ele>1284.5046049562</ele>
        <time>2016-06-20T12:43:23Z</time>
      </trkpt>
      <trkpt lat="44.02739" lon="3.52933">
        <ele>1284.5046049562</ele>
        <time>2016-06-20T12:43:29Z</time>
      </trkpt>
      <trkpt lat="44.02743" lon="3.5291">
        <ele>1281.9952749912</ele>
        <time>2016-06-20T12:43:44Z</time>
      </trkpt>
      <trkpt lat="44.02751" lon="3.52876">
        <ele>1279.4641646303</ele>
        <time>2016-06-20T12:44:08Z</time>
      </trkpt>
      <trkpt lat="44.02754" lon="3.52855">
        <ele>1276.9526971466</ele>
        <time>2016-06-20T12:44:23Z</time>
      </trkpt>
      <trkpt lat="44.02758" lon="3.52848">
        <ele>1276.9526971466</ele>
        <time>2016-06-20T12:44:29Z</time>
      </trkpt>
      <trkpt lat="44.02763" lon="3.52839">
        <ele>1274.5998889614</ele>
        <time>2016-06-20T12:44:38Z</time>
      </trkpt>
      <trkpt lat="44.02766" lon="3.52834">
        <ele>1274.5998889614</ele>
        <time>2016-06-20T12:44:44Z</time>
      </trkpt>
      <trkpt lat="44.02776" lon="3.52823">
        <ele>1272.4762507665</ele>
        <time>2016-06-20T12:44:57Z</time>
      </trkpt>
      <trkpt lat="44.0278" lon="3.52819">
        <ele>1272.4762507665</ele>
        <time>2016-06-20T12:45:02Z</time>
      </trkpt>
      <trkpt lat="44.02806" lon="3.52812">
        <ele>1270.9777084643</ele>
        <time>2016-06-20T12:45:40Z</time>
      </trkpt>
      <trkpt lat="44.0282" lon="3.52809">
        <ele>1269.7629773317</ele>
        <time>2016-06-20T12:45:40Z</time>
      </trkpt>
      <trkpt lat="44.02878" lon="3.52761">
        <ele>1270.1576831437</ele>
        <time>2016-06-20T12:46:44Z</time>
      </trkpt>
      <trkpt lat="44.02884" lon="3.52754">
        <ele>1270.1576831437</ele>
        <time>2016-06-20T12:46:49Z</time>
      </trkpt>
      <trkpt lat="44.02892" lon="3.52746">
        <ele>1270.8345605842</ele>
        <time>2016-06-20T12:46:57Z</time>
      </trkpt>
      <trkpt lat="44.02893" lon="3.52742">
        <ele>1270.8345605842</ele>
        <time>2016-06-20T12:47:04Z</time>
      </trkpt>
      <trkpt lat="44.02909" lon="3.52715">
        <ele>1271.4274989442</ele>
        <time>2016-06-20T12:47:34Z</time>
      </trkpt>
      <trkpt lat="44.02909" lon="3.52714">
        <ele>1271.4274989442</ele>
        <time>2016-06-20T12:47:34Z</time>
      </trkpt>
      <trkpt lat="44.02922" lon="3.5267">
        <ele>1271.6261298584</ele>
        <time>2016-06-20T12:48:04Z</time>
      </trkpt>
      <trkpt lat="44.02929" lon="3.52638">
        <ele>1271.7058274157</ele>
        <time>2016-06-20T12:48:24Z</time>
      </trkpt>
      <trkpt lat="44.02939" lon="3.52617">
        <ele>1271.8210078269</ele>
        <time>2016-06-20T12:48:43Z</time>
      </trkpt>
      <trkpt lat="44.02943" lon="3.52609">
        <ele>1271.8210078269</ele>
        <time>2016-06-20T12:48:49Z</time>
      </trkpt>
      <trkpt lat="44.0295" lon="3.52596">
        <ele>1271.8838919917</ele>
        <time>2016-06-20T12:48:57Z</time>
      </trkpt>
      <trkpt lat="44.02954" lon="3.5259">
        <ele>1271.8838919917</ele>
        <time>2016-06-20T12:49:02Z</time>
      </trkpt>
      <trkpt lat="44.02965" lon="3.52566">
        <ele>1272.1157641579</ele>
        <time>2016-06-20T12:49:23Z</time>
      </trkpt>
      <trkpt lat="44.02966" lon="3.52564">
        <ele>1272.1157641579</ele>
        <time>2016-06-20T12:49:23Z</time>
      </trkpt>
      <trkpt lat="44.02982" lon="3.52529">
        <ele>1272.4039789926</ele>
        <time>2016-06-20T12:49:49Z</time>
      </trkpt>
      <trkpt lat="44.02986" lon="3.52462">
        <ele>1272.3268168045</ele>
        <time>2016-06-20T12:50:28Z</time>
      </trkpt>
      <trkpt lat="44.02985" lon="3.52457">
        <ele>1272.3268168045</ele>
        <time>2016-06-20T12:50:28Z</time>
      </trkpt>
      <trkpt lat="44.02977" lon="3.52442">
        <ele>1272.0564573934</ele>
        <time>2016-06-20T12:50:38Z</time>
      </trkpt>
      <trkpt lat="44.02975" lon="3.5244">
        <ele>1272.0564573934</ele>
        <time>2016-06-20T12:50:43Z</time>
      </trkpt>
      <trkpt lat="44.02957" lon="3.52437">
        <ele>1271.6375541708</ele>
        <time>2016-06-20T12:50:57Z</time>
      </trkpt>
      <trkpt lat="44.02943" lon="3.52437">
        <ele>1271.198238236</ele>
        <time>2016-06-20T12:51:04Z</time>
      </trkpt>
      <trkpt lat="44.02915" lon="3.52432">
        <ele>1270.785108898</ele>
        <time>2016-06-20T12:51:23Z</time>
      </trkpt>
      <trkpt lat="44.02914" lon="3.52432">
        <ele>1270.785108898</ele>
        <time>2016-06-20T12:51:24Z</time>
      </trkpt>
      <trkpt lat="44.02907" lon="3.52429">
        <ele>1270.785108898</ele>
        <time>2016-06-20T12:51:43Z</time>
      </trkpt>
      <trkpt lat="44.02899" lon="3.52427">
        <ele>1270.3979184383</ele>
        <time>2016-06-20T12:51:43Z</time>
      </trkpt>
      <trkpt lat="44.02858" lon="3.52395">
        <ele>1269.3445166277</ele>
        <time>2016-06-20T12:52:23Z</time>
      </trkpt>
      <trkpt lat="44.02858" lon="3.52386">
        <ele>1269.3445166277</ele>
        <time>2016-06-20T12:52:30Z</time>
      </trkpt>
      <trkpt lat="44.02852" lon="3.52365">
        <ele>1268.0373658762</ele>
        <time>2016-06-20T12:52:48Z</time>
      </trkpt>
      <trkpt lat="44.02852" lon="3.5236">
        <ele>1268.0373658762</ele>
        <time>2016-06-20T12:52:48Z</time>
      </trkpt>
      <trkpt lat="44.02853" lon="3.52346">
        <ele>1266.7007063021</ele>
        <time>2016-06-20T12:52:57Z</time>
      </trkpt>
      <trkpt lat="44.02855" lon="3.5234">
        <ele>1266.7007063021</ele>
        <time>2016-06-20T12:53:02Z</time>
      </trkpt>
      <trkpt lat="44.02874" lon="3.52317">
        <ele>1265.369340882</ele>
        <time>2016-06-20T12:54:00Z</time>
      </trkpt>
      <trkpt lat="44.02868" lon="3.5229">
        <ele>1264.5077190869</ele>
        <time>2016-06-20T12:54:49Z</time>
      </trkpt>
      <trkpt lat="44.02872" lon="3.52268">
        <ele>1263.7953602154</ele>
        <time>2016-06-20T12:55:04Z</time>
      </trkpt>
      <trkpt lat="44.0287" lon="3.52238">
        <ele>1263.2518368019</ele>
        <time>2016-06-20T12:55:24Z</time>
      </trkpt>
      <trkpt lat="44.02881" lon="3.52172">
        <ele>1263.0388097287</ele>
        <time>2016-06-20T12:56:04Z</time>
      </trkpt>
      <trkpt lat="44.02903" lon="3.52107">
        <ele>1263.0168091501</ele>
        <time>2016-06-20T12:56:45Z</time>
      </trkpt>
      <trkpt lat="44.02905" lon="3.52101">
        <ele>1263.0168091501</ele>
        <time>2016-06-20T12:56:49Z</time>
      </trkpt>
      <trkpt lat="44.02909" lon="3.52091">
        <ele>1263.1136206594</ele>
        <time>2016-06-20T12:56:57Z</time>
      </trkpt>
      <trkpt lat="44.02911" lon="3.52087">
        <ele>1263.1136206594</ele>
        <time>2016-06-20T12:57:02Z</time>
      </trkpt>
      <trkpt lat="44.02933" lon="3.52071">
        <ele>1263.7374790404</ele>
        <time>2016-06-20T12:57:33Z</time>
      </trkpt>
      <trkpt lat="44.02955" lon="3.52069">
        <ele>1264.6309846907</ele>
        <time>2016-06-20T12:57:52Z</time>
      </trkpt>
      <trkpt lat="44.02964" lon="3.5207">
        <ele>1264.6309846907</ele>
        <time>2016-06-20T12:57:53Z</time>
      </trkpt>
      <trkpt lat="44.0298" lon="3.52077">
        <ele>1265.5548244685</ele>
        <time>2016-06-20T12:58:05Z</time>
      </trkpt>
      <trkpt lat="44.02989" lon="3.52086">
        <ele>1266.5753504888</ele>
        <time>2016-06-20T12:58:24Z</time>
      </trkpt>
      <trkpt lat="44.02999" lon="3.52094">
        <ele>1267.7104988076</ele>
        <time>2016-06-20T12:58:24Z</time>
      </trkpt>
      <trkpt lat="44.03007" lon="3.521">
        <ele>1267.7104988076</ele>
        <time>2016-06-20T12:58:40Z</time>
      </trkpt>
      <trkpt lat="44.03017" lon="3.52106">
        <ele>1269.1206549968</ele>
        <time>2016-06-20T12:58:42Z</time>
      </trkpt>
      <trkpt lat="44.03024" lon="3.5211">
        <ele>1269.1206549968</ele>
        <time>2016-06-20T12:58:49Z</time>
      </trkpt>
      <trkpt lat="44.03027" lon="3.5211">
        <ele>1270.478076391</ele>
        <time>2016-06-20T12:58:56Z</time>
      </trkpt>
      <trkpt lat="44.03036" lon="3.52107">
        <ele>1271.7530612646</ele>
        <time>2016-06-20T12:58:57Z</time>
      </trkpt>
      <trkpt lat="44.03049" lon="3.52103">
        <ele>1272.8318734607</ele>
        <time>2016-06-20T12:59:12Z</time>
      </trkpt>
      <trkpt lat="44.03064" lon="3.52104">
        <ele>1273.8547020709</ele>
        <time>2016-06-20T12:59:29Z</time>
      </trkpt>
      <trkpt lat="44.0308" lon="3.52099">
        <ele>1274.7354690889</ele>
        <time>2016-06-20T12:59:45Z</time>
      </trkpt>
      <trkpt lat="44.03148" lon="3.52072">
        <ele>1275.7407342723</ele>
        <time>2016-06-20T13:00:43Z</time>
      </trkpt>
      <trkpt lat="44.03155" lon="3.52072">
        <ele>1275.7407342723</ele>
        <time>2016-06-20T13:00:49Z</time>
      </trkpt>
      <trkpt lat="44.03171" lon="3.52076">
        <ele>1276.9730723277</ele>
        <time>2016-06-20T13:01:02Z</time>
      </trkpt>
      <trkpt lat="44.03182" lon="3.52082">
        <ele>1278.4693055142</ele>
        <time>2016-06-20T13:01:24Z</time>
      </trkpt>
      <trkpt lat="44.03189" lon="3.52083">
        <ele>1278.4693055142</ele>
        <time>2016-06-20T13:01:24Z</time>
      </trkpt>
      <trkpt lat="44.03234" lon="3.52083">
        <ele>1280.1043604347</ele>
        <time>2016-06-20T13:02:04Z</time>
      </trkpt>
      <trkpt lat="44.0324" lon="3.52082">
        <ele>1280.1043604347</ele>
        <time>2016-06-20T13:02:04Z</time>
      </trkpt>
      <trkpt lat="44.03269" lon="3.52082">
        <ele>1281.070307494</ele>
        <time>2016-06-20T13:02:25Z</time>
      </trkpt>
      <trkpt lat="44.0327" lon="3.52082">
        <ele>1281.070307494</ele>
        <time>2016-06-20T13:02:33Z</time>
      </trkpt>
      <trkpt lat="44.03278" lon="3.52082">
        <ele>1281.6148960953</ele>
        <time>2016-06-20T13:02:33Z</time>
      </trkpt>
      <trkpt lat="44.03291" lon="3.5208">
        <ele>1281.6951348412</ele>
        <time>2016-06-20T13:02:45Z</time>
      </trkpt>
      <trkpt lat="44.03295" lon="3.5208">
        <ele>1281.6951348412</ele>
        <time>2016-06-20T13:02:49Z</time>
      </trkpt>
      <trkpt lat="44.03306" lon="3.52085">
        <ele>1281.344635739</ele>
        <time>2016-06-20T13:03:04Z</time>
      </trkpt>
      <trkpt lat="44.03335" lon="3.52079">
        <ele>1280.422898365</ele>
        <time>2016-06-20T13:03:25Z</time>
      </trkpt>
      <trkpt lat="44.03363" lon="3.52078">
        <ele>1277.9943941413</ele>
        <time>2016-06-20T13:03:54Z</time>
      </trkpt>
      <trkpt lat="44.03374" lon="3.52071">
        <ele>1275.4303234491</ele>
        <time>2016-06-20T13:03:54Z</time>
      </trkpt>
      <trkpt lat="44.03386" lon="3.52069">
        <ele>1272.9927977804</ele>
        <time>2016-06-20T13:04:04Z</time>
      </trkpt>
      <trkpt lat="44.0341" lon="3.52065">
        <ele>1270.5928784291</ele>
        <time>2016-06-20T13:04:33Z</time>
      </trkpt>
      <trkpt lat="44.03417" lon="3.52066">
        <ele>1270.5928784291</ele>
        <time>2016-06-20T13:04:33Z</time>
      </trkpt>
      <trkpt lat="44.03431" lon="3.52064">
        <ele>1269.3153500931</ele>
        <time>2016-06-20T13:04:45Z</time>
      </trkpt>
      <trkpt lat="44.03438" lon="3.52063">
        <ele>1269.3153500931</ele>
        <time>2016-06-20T13:04:49Z</time>
      </trkpt>
      <trkpt lat="44.03451" lon="3.52067">
        <ele>1269.0668963965</ele>
        <time>2016-06-20T13:05:02Z</time>
      </trkpt>
      <trkpt lat="44.03476" lon="3.52063">
        <ele>1269.4843292372</ele>
        <time>2016-06-20T13:05:25Z</time>
      </trkpt>
      <trkpt lat="44.03499" lon="3.52061">
        <ele>1270.2292413951</ele>
        <time>2016-06-20T13:05:45Z</time>
      </trkpt>
      <trkpt lat="44.03502" lon="3.52061">
        <ele>1270.2292413951</ele>
        <time>2016-06-20T13:05:52Z</time>
      </trkpt>
      <trkpt lat="44.03523" lon="3.52057">
        <ele>1271.3041841762</ele>
        <time>2016-06-20T13:06:05Z</time>
      </trkpt>
      <trkpt lat="44.03547" lon="3.52054">
        <ele>1272.0476648751</ele>
        <time>2016-06-20T13:06:25Z</time>
      </trkpt>
      <trkpt lat="44.03571" lon="3.52045">
        <ele>1272.1503349097</ele>
        <time>2016-06-20T13:06:49Z</time>
      </trkpt>
      <trkpt lat="44.03592" lon="3.52035">
        <ele>1271.8317506273</ele>
        <time>2016-06-20T13:07:02Z</time>
      </trkpt>
      <trkpt lat="44.03601" lon="3.5203">
        <ele>1271.3109291721</ele>
        <time>2016-06-20T13:07:09Z</time>
      </trkpt>
      <trkpt lat="44.03611" lon="3.52026">
        <ele>1270.3157946273</ele>
        <time>2016-06-20T13:07:17Z</time>
      </trkpt>
      <trkpt lat="44.03652" lon="3.51966">
        <ele>1268.5811673637</ele>
        <time>2016-06-20T13:08:05Z</time>
      </trkpt>
      <trkpt lat="44.03671" lon="3.51939">
        <ele>1266.7424828281</ele>
        <time>2016-06-20T13:08:33Z</time>
      </trkpt>
      <trkpt lat="44.03684" lon="3.51912">
        <ele>1264.7979062307</ele>
        <time>2016-06-20T13:08:44Z</time>
      </trkpt>
      <trkpt lat="44.03689" lon="3.51906">
        <ele>1264.7979062307</ele>
        <time>2016-06-20T13:08:49Z</time>
      </trkpt>
      <trkpt lat="44.037" lon="3.51891">
        <ele>1262.6739392863</ele>
        <time>2016-06-20T13:09:02Z</time>
      </trkpt>
      <trkpt lat="44.03711" lon="3.51869">
        <ele>1260.3894000312</ele>
        <time>2016-06-20T13:09:18Z</time>
      </trkpt>
      <trkpt lat="44.03716" lon="3.51859">
        <ele>1258.1926870551</ele>
        <time>2016-06-20T13:09:24Z</time>
      </trkpt>
      <trkpt lat="44.03727" lon="3.51826">
        <ele>1255.9389386254</ele>
        <time>2016-06-20T13:09:45Z</time>
      </trkpt>
      <trkpt lat="44.03732" lon="3.51796">
        <ele>1253.7245831271</ele>
        <time>2016-06-20T13:10:04Z</time>
      </trkpt>
      <trkpt lat="44.03764" lon="3.5173">
        <ele>1251.5090551328</ele>
        <time>2016-06-20T13:10:49Z</time>
      </trkpt>
      <trkpt lat="44.03776" lon="3.51714">
        <ele>1249.4996527894</ele>
        <time>2016-06-20T13:11:04Z</time>
      </trkpt>
      <trkpt lat="44.03791" lon="3.51679">
        <ele>1247.7004075941</ele>
        <time>2016-06-20T13:11:25Z</time>
      </trkpt>
      <trkpt lat="44.03807" lon="3.51648">
        <ele>1246.0711107793</ele>
        <time>2016-06-20T13:11:53Z</time>
      </trkpt>
      <trkpt lat="44.03812" lon="3.51639">
        <ele>1246.0711107793</ele>
        <time>2016-06-20T13:11:53Z</time>
      </trkpt>
      <trkpt lat="44.0382" lon="3.51626">
        <ele>1244.6603729249</ele>
        <time>2016-06-20T13:12:05Z</time>
      </trkpt>
      <trkpt lat="44.03821" lon="3.51624">
        <ele>1244.6603729249</ele>
        <time>2016-06-20T13:12:13Z</time>
      </trkpt>
      <trkpt lat="44.03824" lon="3.51612">
        <ele>1243.4116175949</ele>
        <time>2016-06-20T13:12:13Z</time>
      </trkpt>
      <trkpt lat="44.03831" lon="3.51598">
        <ele>1242.4736018906</ele>
        <time>2016-06-20T13:12:25Z</time>
      </trkpt>
      <trkpt lat="44.03838" lon="3.51592">
        <ele>1242.4736018906</ele>
        <time>2016-06-20T13:12:32Z</time>
      </trkpt>
      <trkpt lat="44.03852" lon="3.51575">
        <ele>1241.8102300031</ele>
        <time>2016-06-20T13:12:46Z</time>
      </trkpt>
      <trkpt lat="44.03856" lon="3.5157">
        <ele>1241.8102300031</ele>
        <time>2016-06-20T13:12:49Z</time>
      </trkpt>
      <trkpt lat="44.03867" lon="3.51556">
        <ele>1241.3151170607</ele>
        <time>2016-06-20T13:13:02Z</time>
      </trkpt>
      <trkpt lat="44.03871" lon="3.51551">
        <ele>1241.3151170607</ele>
        <time>2016-06-20T13:13:09Z</time>
      </trkpt>
      <trkpt lat="44.03879" lon="3.51538">
        <ele>1240.7450023865</ele>
        <time>2016-06-20T13:13:16Z</time>
      </trkpt>
      <trkpt lat="44.03883" lon="3.5153">
        <ele>1240.7450023865</ele>
        <time>2016-06-20T13:13:22Z</time>
      </trkpt>
      <trkpt lat="44.03932" lon="3.51444">
        <ele>1239.0531703113</ele>
        <time>2016-06-20T13:14:29Z</time>
      </trkpt>
      <trkpt lat="44.03944" lon="3.51431">
        <ele>1237.4345140828</ele>
        <time>2016-06-20T13:14:45Z</time>
      </trkpt>
      <trkpt lat="44.03946" lon="3.51426">
        <ele>1237.4345140828</ele>
        <time>2016-06-20T13:14:49Z</time>
      </trkpt>
      <trkpt lat="44.03952" lon="3.51419">
        <ele>1236.0014851972</ele>
        <time>2016-06-20T13:14:57Z</time>
      </trkpt>
      <trkpt lat="44.03955" lon="3.5141">
        <ele>1236.0014851972</ele>
        <time>2016-06-20T13:15:04Z</time>
      </trkpt>
      <trkpt lat="44.03962" lon="3.51379">
        <ele>1234.655906324</ele>
        <time>2016-06-20T13:15:24Z</time>
      </trkpt>
      <trkpt lat="44.03964" lon="3.51355">
        <ele>1233.4217648761</ele>
        <time>2016-06-20T13:15:44Z</time>
      </trkpt>
      <trkpt lat="44.03963" lon="3.51342">
        <ele>1232.4505850632</ele>
        <time>2016-06-20T13:15:44Z</time>
      </trkpt>
      <trkpt lat="44.03965" lon="3.51269">
        <ele>1231.5937153326</ele>
        <time>2016-06-20T13:16:33Z</time>
      </trkpt>
      <trkpt lat="44.03957" lon="3.51241">
        <ele>1231.2318241938</ele>
        <time>2016-06-20T13:16:49Z</time>
      </trkpt>
      <trkpt lat="44.03956" lon="3.51238">
        <ele>1231.2318241938</ele>
        <time>2016-06-20T13:16:57Z</time>
      </trkpt>
      <trkpt lat="44.03954" lon="3.5123">
        <ele>1231.2318241938</ele>
        <time>2016-06-20T13:16:57Z</time>
      </trkpt>
      <trkpt lat="44.03953" lon="3.51217">
        <ele>1231.2261781813</ele>
        <time>2016-06-20T13:17:14Z</time>
      </trkpt>
      <trkpt lat="44.03954" lon="3.51204">
        <ele>1231.418351362</ele>
        <time>2016-06-20T13:17:14Z</time>
      </trkpt>
      <trkpt lat="44.03955" lon="3.51182">
        <ele>1231.8627058858</ele>
        <time>2016-06-20T13:17:34Z</time>
      </trkpt>
      <trkpt lat="44.03953" lon="3.51148">
        <ele>1232.5944549944</ele>
        <time>2016-06-20T13:17:50Z</time>
      </trkpt>
      <trkpt lat="44.03942" lon="3.51118">
        <ele>1233.5301078508</ele>
        <time>2016-06-20T13:18:05Z</time>
      </trkpt>
      <trkpt lat="44.03919" lon="3.51101">
        <ele>1234.5917281815</ele>
        <time>2016-06-20T13:18:32Z</time>
      </trkpt>
      <trkpt lat="44.03912" lon="3.51098">
        <ele>1234.5917281815</ele>
        <time>2016-06-20T13:18:32Z</time>
      </trkpt>
      <trkpt lat="44.03899" lon="3.51092">
        <ele>1235.4329491726</ele>
        <time>2016-06-20T13:18:45Z</time>
      </trkpt>
      <trkpt lat="44.03894" lon="3.51088">
        <ele>1235.4329491726</ele>
        <time>2016-06-20T13:18:49Z</time>
      </trkpt>
      <trkpt lat="44.03887" lon="3.51081">
        <ele>1236.1370011895</ele>
        <time>2016-06-20T13:18:57Z</time>
      </trkpt>
      <trkpt lat="44.03891" lon="3.51073">
        <ele>1236.1370011895</ele>
        <time>2016-06-20T13:19:04Z</time>
      </trkpt>
      <trkpt lat="44.03886" lon="3.51052">
        <ele>1237.3002235803</ele>
        <time>2016-06-20T13:19:24Z</time>
      </trkpt>
      <trkpt lat="44.03893" lon="3.51031">
        <ele>1238.8254124364</ele>
        <time>2016-06-20T13:19:46Z</time>
      </trkpt>
      <trkpt lat="44.03907" lon="3.5103">
        <ele>1240.5639101605</ele>
        <time>2016-06-20T13:20:04Z</time>
      </trkpt>
      <trkpt lat="44.03911" lon="3.5103">
        <ele>1240.5639101605</ele>
        <time>2016-06-20T13:20:04Z</time>
      </trkpt>
      <trkpt lat="44.03929" lon="3.51032">
        <ele>1242.9971402707</ele>
        <time>2016-06-20T13:20:25Z</time>
      </trkpt>
      <trkpt lat="44.0393" lon="3.51032">
        <ele>1242.9971402707</ele>
        <time>2016-06-20T13:20:26Z</time>
      </trkpt>
      <trkpt lat="44.03933" lon="3.51033">
        <ele>1242.9971402707</ele>
        <time>2016-06-20T13:20:29Z</time>
      </trkpt>
      <trkpt lat="44.03954" lon="3.51033">
        <ele>1246.2955005703</ele>
        <time>2016-06-20T13:20:49Z</time>
      </trkpt>
      <trkpt lat="44.03965" lon="3.51025">
        <ele>1249.8507755115</ele>
        <time>2016-06-20T13:21:02Z</time>
      </trkpt>
      <trkpt lat="44.03995" lon="3.50988">
        <ele>1253.1709057026</ele>
        <time>2016-06-20T13:21:44Z</time>
      </trkpt>
      <trkpt lat="44.03996" lon="3.50988">
        <ele>1253.1709057026</ele>
        <time>2016-06-20T13:21:45Z</time>
      </trkpt>
      <trkpt lat="44.03997" lon="3.50988">
        <ele>1253.1709057026</ele>
        <time>2016-06-20T13:21:49Z</time>
      </trkpt>
      <trkpt lat="44.04012" lon="3.50986">
        <ele>1256.4925363434</ele>
        <time>2016-06-20T13:22:03Z</time>
      </trkpt>
      <trkpt lat="44.04016" lon="3.50984">
        <ele>1256.4925363434</ele>
        <time>2016-06-20T13:22:07Z</time>
      </trkpt>
      <trkpt lat="44.04029" lon="3.50972">
        <ele>1259.6171886085</ele>
        <time>2016-06-20T13:22:25Z</time>
      </trkpt>
      <trkpt lat="44.04031" lon="3.5097">
        <ele>1259.6171886085</ele>
        <time>2016-06-20T13:22:34Z</time>
      </trkpt>
      <trkpt lat="44.04035" lon="3.50965">
        <ele>1259.6171886085</ele>
        <time>2016-06-20T13:22:34Z</time>
      </trkpt>
      <trkpt lat="44.04036" lon="3.50964">
        <ele>1262.2320206963</ele>
        <time>2016-06-20T13:22:45Z</time>
      </trkpt>
      <trkpt lat="44.04037" lon="3.5095">
        <ele>1264.3370425521</ele>
        <time>2016-06-20T13:23:02Z</time>
      </trkpt>
      <trkpt lat="44.04044" lon="3.50919">
        <ele>1266.0780319964</ele>
        <time>2016-06-20T13:23:25Z</time>
      </trkpt>
      <trkpt lat="44.04045" lon="3.50914">
        <ele>1266.0780319964</ele>
        <time>2016-06-20T13:23:25Z</time>
      </trkpt>
      <trkpt lat="44.04044" lon="3.5091">
        <ele>1266.0780319964</ele>
        <time>2016-06-20T13:23:30Z</time>
      </trkpt>
      <trkpt lat="44.04043" lon="3.50892">
        <ele>1267.418377507</ele>
        <time>2016-06-20T13:23:55Z</time>
      </trkpt>
      <trkpt lat="44.0404" lon="3.5089">
        <ele>1267.418377507</ele>
        <time>2016-06-20T13:23:55Z</time>
      </trkpt>
      <trkpt lat="44.04041" lon="3.50894">
        <ele>1267.418377507</ele>
        <time>2016-06-20T13:29:27Z</time>
      </trkpt>
      <trkpt lat="44.04047" lon="3.50879">
        <ele>1268.8010797554</ele>
        <time>2016-06-20T13:34:47Z</time>
      </trkpt>
      <trkpt lat="44.04043" lon="3.5086">
        <ele>1269.8729177101</ele>
        <time>2016-06-20T13:35:02Z</time>
      </trkpt>
      <trkpt lat="44.04043" lon="3.50854">
        <ele>1269.8729177101</ele>
        <time>2016-06-20T13:35:07Z</time>
      </trkpt>
      <trkpt lat="44.04028" lon="3.50823">
        <ele>1270.5382906776</ele>
        <time>2016-06-20T13:35:37Z</time>
      </trkpt>
      <trkpt lat="44.04009" lon="3.50797">
        <ele>1271.1423096318</ele>
        <time>2016-06-20T13:36:07Z</time>
      </trkpt>
      <trkpt lat="44.03991" lon="3.50774">
        <ele>1271.6592448197</ele>
        <time>2016-06-20T13:36:27Z</time>
      </trkpt>
      <trkpt lat="44.03973" lon="3.5076">
        <ele>1272.2530402241</ele>
        <time>2016-06-20T13:36:44Z</time>
      </trkpt>
      <trkpt lat="44.03971" lon="3.50756">
        <ele>1272.2530402241</ele>
        <time>2016-06-20T13:36:46Z</time>
      </trkpt>
      <trkpt lat="44.0397" lon="3.50754">
        <ele>1272.2530402241</ele>
        <time>2016-06-20T13:36:47Z</time>
      </trkpt>
      <trkpt lat="44.0395" lon="3.50737">
        <ele>1272.4414746847</ele>
        <time>2016-06-20T13:37:04Z</time>
      </trkpt>
      <trkpt lat="44.03947" lon="3.50735">
        <ele>1272.4414746847</ele>
        <time>2016-06-20T13:37:08Z</time>
      </trkpt>
      <trkpt lat="44.03925" lon="3.50729">
        <ele>1272.4419694756</ele>
        <time>2016-06-20T13:37:26Z</time>
      </trkpt>
      <trkpt lat="44.03924" lon="3.50729">
        <ele>1272.4419694756</ele>
        <time>2016-06-20T13:37:26Z</time>
      </trkpt>
      <trkpt lat="44.03923" lon="3.50729">
        <ele>1272.4419694756</ele>
        <time>2016-06-20T13:37:27Z</time>
      </trkpt>
      <trkpt lat="44.03903" lon="3.50712">
        <ele>1272.5719476337</ele>
        <time>2016-06-20T13:37:46Z</time>
      </trkpt>
      <trkpt lat="44.03902" lon="3.50711">
        <ele>1272.5719476337</ele>
        <time>2016-06-20T13:37:47Z</time>
      </trkpt>
      <trkpt lat="44.03888" lon="3.50694">
        <ele>1272.6641393044</ele>
        <time>2016-06-20T13:38:06Z</time>
      </trkpt>
      <trkpt lat="44.03886" lon="3.5069">
        <ele>1272.6641393044</ele>
        <time>2016-06-20T13:38:06Z</time>
      </trkpt>
      <trkpt lat="44.03886" lon="3.50689">
        <ele>1272.6641393044</ele>
        <time>2016-06-20T13:38:07Z</time>
      </trkpt>
      <trkpt lat="44.0388" lon="3.50666">
        <ele>1272.6934983381</ele>
        <time>2016-06-20T13:38:27Z</time>
      </trkpt>
      <trkpt lat="44.03881" lon="3.50639">
        <ele>1272.6803449177</ele>
        <time>2016-06-20T13:38:47Z</time>
      </trkpt>
      <trkpt lat="44.03882" lon="3.50637">
        <ele>1272.6803449177</ele>
        <time>2016-06-20T13:39:02Z</time>
      </trkpt>
      <trkpt lat="44.03887" lon="3.50632">
        <ele>1272.6803449177</ele>
        <time>2016-06-20T13:39:22Z</time>
      </trkpt>
      <trkpt lat="44.03902" lon="3.50626">
        <ele>1272.4996184699</ele>
        <time>2016-06-20T13:39:47Z</time>
      </trkpt>
      <trkpt lat="44.03928" lon="3.50621">
        <ele>1272.46834021</ele>
        <time>2016-06-20T13:40:07Z</time>
      </trkpt>
      <trkpt lat="44.03977" lon="3.50625">
        <ele>1272.4043361582</ele>
        <time>2016-06-20T13:40:48Z</time>
      </trkpt>
      <trkpt lat="44.03992" lon="3.50623">
        <ele>1272.3839630206</ele>
        <time>2016-06-20T13:41:04Z</time>
      </trkpt>
      <trkpt lat="44.03996" lon="3.50619">
        <ele>1272.3839630206</ele>
        <time>2016-06-20T13:41:08Z</time>
      </trkpt>
      <trkpt lat="44.03991" lon="3.5059">
        <ele>1272.2905580006</ele>
        <time>2016-06-20T13:41:27Z</time>
      </trkpt>
      <trkpt lat="44.03992" lon="3.50567">
        <ele>1272.2468574616</ele>
        <time>2016-06-20T13:41:46Z</time>
      </trkpt>
      <trkpt lat="44.03992" lon="3.50565">
        <ele>1272.2468574616</ele>
        <time>2016-06-20T13:41:46Z</time>
      </trkpt>
      <trkpt lat="44.03992" lon="3.50563">
        <ele>1272.2468574616</ele>
        <time>2016-06-20T13:41:47Z</time>
      </trkpt>
      <trkpt lat="44.04" lon="3.50539">
        <ele>1272.5826465323</ele>
        <time>2016-06-20T13:42:07Z</time>
      </trkpt>
      <trkpt lat="44.04003" lon="3.50532">
        <ele>1272.5826465323</ele>
        <time>2016-06-20T13:42:26Z</time>
      </trkpt>
      <trkpt lat="44.04003" lon="3.50531">
        <ele>1272.5826465323</ele>
        <time>2016-06-20T13:42:27Z</time>
      </trkpt>
      <trkpt lat="44.04009" lon="3.50505">
        <ele>1273.2565835615</ele>
        <time>2016-06-20T13:42:47Z</time>
      </trkpt>
      <trkpt lat="44.03999" lon="3.50487">
        <ele>1274.0132735598</ele>
        <time>2016-06-20T13:43:02Z</time>
      </trkpt>
      <trkpt lat="44.03996" lon="3.50478">
        <ele>1274.0132735598</ele>
        <time>2016-06-20T13:43:08Z</time>
      </trkpt>
      <trkpt lat="44.03988" lon="3.50454">
        <ele>1274.9040948305</ele>
        <time>2016-06-20T13:43:27Z</time>
      </trkpt>
      <trkpt lat="44.0398" lon="3.50433">
        <ele>1276.033940571</ele>
        <time>2016-06-20T13:43:47Z</time>
      </trkpt>
      <trkpt lat="44.0399" lon="3.50415">
        <ele>1277.5858166319</ele>
        <time>2016-06-20T13:44:07Z</time>
      </trkpt>
      <trkpt lat="44.03996" lon="3.50397">
        <ele>1279.3390257751</ele>
        <time>2016-06-20T13:44:27Z</time>
      </trkpt>
      <trkpt lat="44.03991" lon="3.50388">
        <ele>1279.3390257751</ele>
        <time>2016-06-20T13:44:48Z</time>
      </trkpt>
      <trkpt lat="44.03984" lon="3.50372">
        <ele>1281.3047139826</ele>
        <time>2016-06-20T13:45:04Z</time>
      </trkpt>
      <trkpt lat="44.03984" lon="3.50367">
        <ele>1281.3047139826</ele>
        <time>2016-06-20T13:45:08Z</time>
      </trkpt>
      <trkpt lat="44.03969" lon="3.50348">
        <ele>1283.3197139898</ele>
        <time>2016-06-20T13:45:27Z</time>
      </trkpt>
      <trkpt lat="44.03968" lon="3.50336">
        <ele>1283.3197139898</ele>
        <time>2016-06-20T13:45:43Z</time>
      </trkpt>
      <trkpt lat="44.03967" lon="3.50337">
        <ele>1285.4345041033</ele>
        <time>2016-06-20T13:45:47Z</time>
      </trkpt>
      <trkpt lat="44.03965" lon="3.5033">
        <ele>1285.4345041033</ele>
        <time>2016-06-20T13:47:12Z</time>
      </trkpt>
      <trkpt lat="44.03964" lon="3.50325">
        <ele>1285.4345041033</ele>
        <time>2016-06-20T13:47:17Z</time>
      </trkpt>
      <trkpt lat="44.0396" lon="3.50318">
        <ele>1287.6523908792</ele>
        <time>2016-06-20T13:47:27Z</time>
      </trkpt>
      <trkpt lat="44.03959" lon="3.50313">
        <ele>1287.6523908792</ele>
        <time>2016-06-20T13:47:32Z</time>
      </trkpt>
      <trkpt lat="44.03952" lon="3.503">
        <ele>1289.6303387412</ele>
        <time>2016-06-20T13:47:49Z</time>
      </trkpt>
      <trkpt lat="44.03952" lon="3.50297">
        <ele>1289.6303387412</ele>
        <time>2016-06-20T13:47:52Z</time>
      </trkpt>
      <trkpt lat="44.03952" lon="3.50289">
        <ele>1289.6303387412</ele>
        <time>2016-06-20T13:48:03Z</time>
      </trkpt>
      <trkpt lat="44.03949" lon="3.50269">
        <ele>1291.4547587593</ele>
        <time>2016-06-20T13:48:27Z</time>
      </trkpt>
      <trkpt lat="44.03947" lon="3.5025">
        <ele>1293.1773909431</ele>
        <time>2016-06-20T13:48:47Z</time>
      </trkpt>
      <trkpt lat="44.03944" lon="3.50236">
        <ele>1294.8753541498</ele>
        <time>2016-06-20T13:49:02Z</time>
      </trkpt>
      <trkpt lat="44.03938" lon="3.50225">
        <ele>1296.7499458508</ele>
        <time>2016-06-20T13:49:18Z</time>
      </trkpt>
      <trkpt lat="44.03929" lon="3.50199">
        <ele>1298.9584355992</ele>
        <time>2016-06-20T13:49:56Z</time>
      </trkpt>
      <trkpt lat="44.03918" lon="3.5018">
        <ele>1300.8963045395</ele>
        <time>2016-06-20T13:50:13Z</time>
      </trkpt>
      <trkpt lat="44.03915" lon="3.50179">
        <ele>1300.8963045395</ele>
        <time>2016-06-20T13:50:13Z</time>
      </trkpt>
      <trkpt lat="44.03913" lon="3.50163">
        <ele>1302.5663154336</ele>
        <time>2016-06-20T13:50:27Z</time>
      </trkpt>
      <trkpt lat="44.03906" lon="3.50147">
        <ele>1303.9430396848</ele>
        <time>2016-06-20T13:50:42Z</time>
      </trkpt>
      <trkpt lat="44.03902" lon="3.50133">
        <ele>1305.4937998384</ele>
        <time>2016-06-20T13:51:01Z</time>
      </trkpt>
      <trkpt lat="44.03902" lon="3.50132">
        <ele>1305.4937998384</ele>
        <time>2016-06-20T13:51:02Z</time>
      </trkpt>
      <trkpt lat="44.03901" lon="3.50128">
        <ele>1305.4937998384</ele>
        <time>2016-06-20T13:51:07Z</time>
      </trkpt>
      <trkpt lat="44.03903" lon="3.50104">
        <ele>1307.2332598949</ele>
        <time>2016-06-20T13:51:27Z</time>
      </trkpt>
      <trkpt lat="44.03896" lon="3.50083">
        <ele>1308.9583901663</ele>
        <time>2016-06-20T13:51:48Z</time>
      </trkpt>
      <trkpt lat="44.03883" lon="3.50071">
        <ele>1310.5964825487</ele>
        <time>2016-06-20T13:52:07Z</time>
      </trkpt>
      <trkpt lat="44.03864" lon="3.50063">
        <ele>1312.2534243782</ele>
        <time>2016-06-20T13:52:27Z</time>
      </trkpt>
      <trkpt lat="44.0386" lon="3.50061">
        <ele>1312.2534243782</ele>
        <time>2016-06-20T13:52:27Z</time>
      </trkpt>
      <trkpt lat="44.03851" lon="3.50054">
        <ele>1313.840002534</ele>
        <time>2016-06-20T13:52:47Z</time>
      </trkpt>
      <trkpt lat="44.03848" lon="3.50052">
        <ele>1313.840002534</ele>
        <time>2016-06-20T13:52:47Z</time>
      </trkpt>
      <trkpt lat="44.03842" lon="3.50045">
        <ele>1315.3891172699</ele>
        <time>2016-06-20T13:52:57Z</time>
      </trkpt>
      <trkpt lat="44.03836" lon="3.50038">
        <ele>1315.3891172699</ele>
        <time>2016-06-20T13:53:06Z</time>
      </trkpt>
      <trkpt lat="44.03828" lon="3.50029">
        <ele>1316.9026061054</ele>
        <time>2016-06-20T13:53:19Z</time>
      </trkpt>
      <trkpt lat="44.03812" lon="3.50003">
        <ele>1318.5985072677</ele>
        <time>2016-06-20T13:53:47Z</time>
      </trkpt>
      <trkpt lat="44.03806" lon="3.49976">
        <ele>1320.3613525807</ele>
        <time>2016-06-20T13:54:08Z</time>
      </trkpt>
      <trkpt lat="44.03797" lon="3.49957">
        <ele>1322.0263886501</ele>
        <time>2016-06-20T13:54:27Z</time>
      </trkpt>
      <trkpt lat="44.03794" lon="3.49945">
        <ele>1323.7583469158</ele>
        <time>2016-06-20T13:54:47Z</time>
      </trkpt>
      <trkpt lat="44.03789" lon="3.49935">
        <ele>1323.7583469158</ele>
        <time>2016-06-20T13:54:56Z</time>
      </trkpt>
      <trkpt lat="44.03777" lon="3.49925">
        <ele>1325.7241433037</ele>
        <time>2016-06-20T13:55:07Z</time>
      </trkpt>
      <trkpt lat="44.03775" lon="3.49919">
        <ele>1325.7241433037</ele>
        <time>2016-06-20T13:55:12Z</time>
      </trkpt>
      <trkpt lat="44.03761" lon="3.49903">
        <ele>1327.9625491505</ele>
        <time>2016-06-20T13:55:27Z</time>
      </trkpt>
      <trkpt lat="44.03761" lon="3.49901">
        <ele>1327.9625491505</ele>
        <time>2016-06-20T13:55:28Z</time>
      </trkpt>
      <trkpt lat="44.03761" lon="3.49884">
        <ele>1330.4799634281</ele>
        <time>2016-06-20T13:55:47Z</time>
      </trkpt>
      <trkpt lat="44.03728" lon="3.49844">
        <ele>1333.8003987753</ele>
        <time>2016-06-20T13:56:27Z</time>
      </trkpt>
      <trkpt lat="44.03707" lon="3.49817">
        <ele>1337.2975375594</ele>
        <time>2016-06-20T13:56:52Z</time>
      </trkpt>
      <trkpt lat="44.03705" lon="3.49813">
        <ele>1337.2975375594</ele>
        <time>2016-06-20T13:56:52Z</time>
      </trkpt>
      <trkpt lat="44.03697" lon="3.49804">
        <ele>1340.8085778558</ele>
        <time>2016-06-20T13:57:02Z</time>
      </trkpt>
      <trkpt lat="44.03689" lon="3.49793">
        <ele>1344.2836054671</ele>
        <time>2016-06-20T13:57:21Z</time>
      </trkpt>
      <trkpt lat="44.03675" lon="3.49766">
        <ele>1347.8783292047</ele>
        <time>2016-06-20T13:57:48Z</time>
      </trkpt>
      <trkpt lat="44.03672" lon="3.49757">
        <ele>1347.8783292047</ele>
        <time>2016-06-20T13:58:02Z</time>
      </trkpt>
      <trkpt lat="44.0367" lon="3.49755">
        <ele>1351.2756368143</ele>
        <time>2016-06-20T13:58:02Z</time>
      </trkpt>
      <trkpt lat="44.03665" lon="3.49749">
        <ele>1351.2756368143</ele>
        <time>2016-06-20T13:58:08Z</time>
      </trkpt>
      <trkpt lat="44.03665" lon="3.49739">
        <ele>1354.211202846</ele>
        <time>2016-06-20T13:58:25Z</time>
      </trkpt>
      <trkpt lat="44.03662" lon="3.49731">
        <ele>1354.211202846</ele>
        <time>2016-06-20T13:58:25Z</time>
      </trkpt>
      <trkpt lat="44.03652" lon="3.49714">
        <ele>1356.8162241228</ele>
        <time>2016-06-20T13:58:39Z</time>
      </trkpt>
      <trkpt lat="44.0363" lon="3.49682">
        <ele>1358.9971428281</ele>
        <time>2016-06-20T13:59:07Z</time>
      </trkpt>
      <trkpt lat="44.0363" lon="3.49663">
        <ele>1361.1585627966</ele>
        <time>2016-06-20T13:59:27Z</time>
      </trkpt>
      <trkpt lat="44.03635" lon="3.49656">
        <ele>1361.1585627966</ele>
        <time>2016-06-20T13:59:34Z</time>
      </trkpt>
      <trkpt lat="44.03622" lon="3.49635">
        <ele>1363.1855599689</ele>
        <time>2016-06-20T13:59:47Z</time>
      </trkpt>
      <trkpt lat="44.03606" lon="3.49618">
        <ele>1364.8280296425</ele>
        <time>2016-06-20T14:00:07Z</time>
      </trkpt>
      <trkpt lat="44.03597" lon="3.49613">
        <ele>1366.1868773048</ele>
        <time>2016-06-20T14:00:07Z</time>
      </trkpt>
      <trkpt lat="44.0359" lon="3.49604">
        <ele>1367.1691406072</ele>
        <time>2016-06-20T14:00:20Z</time>
      </trkpt>
      <trkpt lat="44.03591" lon="3.49602">
        <ele>1367.1691406072</ele>
        <time>2016-06-20T14:00:27Z</time>
      </trkpt>
      <trkpt lat="44.03591" lon="3.49593">
        <ele>1367.1691406072</ele>
        <time>2016-06-20T14:00:27Z</time>
      </trkpt>
      <trkpt lat="44.03588" lon="3.49578">
        <ele>1367.9636356447</ele>
        <time>2016-06-20T14:00:38Z</time>
      </trkpt>
      <trkpt lat="44.03579" lon="3.49557">
        <ele>1368.5873810653</ele>
        <time>2016-06-20T14:00:59Z</time>
      </trkpt>
      <trkpt lat="44.03574" lon="3.49533">
        <ele>1368.9269778443</ele>
        <time>2016-06-20T14:01:17Z</time>
      </trkpt>
      <trkpt lat="44.03574" lon="3.4952">
        <ele>1369.1087699459</ele>
        <time>2016-06-20T14:01:17Z</time>
      </trkpt>
      <trkpt lat="44.03569" lon="3.49504">
        <ele>1369.0341173695</ele>
        <time>2016-06-20T14:01:28Z</time>
      </trkpt>
      <trkpt lat="44.03553" lon="3.49451">
        <ele>1368.6988162519</ele>
        <time>2016-06-20T14:02:54Z</time>
      </trkpt>
      <trkpt lat="44.03545" lon="3.49457">
        <ele>1368.085277612</ele>
        <time>2016-06-20T14:03:22Z</time>
      </trkpt>
      <trkpt lat="44.03544" lon="3.49459">
        <ele>1368.085277612</ele>
        <time>2016-06-20T14:03:44Z</time>
      </trkpt>
      <trkpt lat="44.03546" lon="3.49445">
        <ele>1367.5094085921</ele>
        <time>2016-06-20T14:04:29Z</time>
      </trkpt>
      <trkpt lat="44.03545" lon="3.49419">
        <ele>1366.7737758185</ele>
        <time>2016-06-20T14:04:48Z</time>
      </trkpt>
      <trkpt lat="44.03545" lon="3.49408">
        <ele>1366.7737758185</ele>
        <time>2016-06-20T14:04:48Z</time>
      </trkpt>
      <trkpt lat="44.03539" lon="3.49391">
        <ele>1365.8399398993</ele>
        <time>2016-06-20T14:05:01Z</time>
      </trkpt>
      <trkpt lat="44.03539" lon="3.49388">
        <ele>1365.8399398993</ele>
        <time>2016-06-20T14:05:02Z</time>
      </trkpt>
      <trkpt lat="44.03528" lon="3.49368">
        <ele>1364.8312771507</ele>
        <time>2016-06-20T14:05:23Z</time>
      </trkpt>
      <trkpt lat="44.03529" lon="3.49358">
        <ele>1364.8312771507</ele>
        <time>2016-06-20T14:05:23Z</time>
      </trkpt>
      <trkpt lat="44.0353" lon="3.49359">
        <ele>1364.8312771507</ele>
        <time>2016-06-20T14:05:40Z</time>
      </trkpt>
      <trkpt lat="44.03525" lon="3.49343">
        <ele>1363.9486744496</ele>
        <time>2016-06-20T14:05:57Z</time>
      </trkpt>
      <trkpt lat="44.03521" lon="3.49333">
        <ele>1363.9486744496</ele>
        <time>2016-06-20T14:05:57Z</time>
      </trkpt>
      <trkpt lat="44.03517" lon="3.49324">
        <ele>1363.0463337963</ele>
        <time>2016-06-20T14:06:08Z</time>
      </trkpt>
      <trkpt lat="44.03515" lon="3.49319">
        <ele>1363.0463337963</ele>
        <time>2016-06-20T14:06:08Z</time>
      </trkpt>
      <trkpt lat="44.03494" lon="3.49287">
        <ele>1362.1043788729</ele>
        <time>2016-06-20T14:06:38Z</time>
      </trkpt>
      <trkpt lat="44.03485" lon="3.4926">
        <ele>1361.0178920049</ele>
        <time>2016-06-20T14:06:49Z</time>
      </trkpt>
      <trkpt lat="44.03485" lon="3.49253">
        <ele>1361.0178920049</ele>
        <time>2016-06-20T14:06:56Z</time>
      </trkpt>
      <trkpt lat="44.03477" lon="3.49231">
        <ele>1359.805199248</ele>
        <time>2016-06-20T14:07:07Z</time>
      </trkpt>
      <trkpt lat="44.03474" lon="3.49224">
        <ele>1359.805199248</ele>
        <time>2016-06-20T14:07:12Z</time>
      </trkpt>
      <trkpt lat="44.0346" lon="3.492">
        <ele>1358.2672981751</ele>
        <time>2016-06-20T14:07:29Z</time>
      </trkpt>
      <trkpt lat="44.03451" lon="3.49193">
        <ele>1356.7681588699</ele>
        <time>2016-06-20T14:07:37Z</time>
      </trkpt>
      <trkpt lat="44.03401" lon="3.49099">
        <ele>1354.3765340732</ele>
        <time>2016-06-20T14:08:49Z</time>
      </trkpt>
      <trkpt lat="44.03395" lon="3.49095">
        <ele>1354.3765340732</ele>
        <time>2016-06-20T14:08:53Z</time>
      </trkpt>
      <trkpt lat="44.03373" lon="3.49086">
        <ele>1351.9612168504</ele>
        <time>2016-06-20T14:09:09Z</time>
      </trkpt>
      <trkpt lat="44.03359" lon="3.4907">
        <ele>1349.8226373201</ele>
        <time>2016-06-20T14:09:28Z</time>
      </trkpt>
      <trkpt lat="44.03358" lon="3.49068">
        <ele>1349.8226373201</ele>
        <time>2016-06-20T14:09:28Z</time>
      </trkpt>
      <trkpt lat="44.03341" lon="3.49054">
        <ele>1347.9211035863</ele>
        <time>2016-06-20T14:09:48Z</time>
      </trkpt>
      <trkpt lat="44.03334" lon="3.49052">
        <ele>1347.9211035863</ele>
        <time>2016-06-20T14:09:48Z</time>
      </trkpt>
      <trkpt lat="44.03321" lon="3.49041">
        <ele>1346.2765766053</ele>
        <time>2016-06-20T14:10:07Z</time>
      </trkpt>
      <trkpt lat="44.03318" lon="3.49039">
        <ele>1346.2765766053</ele>
        <time>2016-06-20T14:10:08Z</time>
      </trkpt>
      <trkpt lat="44.03301" lon="3.49027">
        <ele>1344.9498137855</ele>
        <time>2016-06-20T14:10:24Z</time>
      </trkpt>
      <trkpt lat="44.03291" lon="3.4902">
        <ele>1343.8230311446</ele>
        <time>2016-06-20T14:10:24Z</time>
      </trkpt>
      <trkpt lat="44.03279" lon="3.49015">
        <ele>1342.9592155748</ele>
        <time>2016-06-20T14:10:41Z</time>
      </trkpt>
      <trkpt lat="44.03273" lon="3.49011">
        <ele>1342.9592155748</ele>
        <time>2016-06-20T14:10:41Z</time>
      </trkpt>
      <trkpt lat="44.03258" lon="3.49005">
        <ele>1342.5598494511</ele>
        <time>2016-06-20T14:10:54Z</time>
      </trkpt>
      <trkpt lat="44.03242" lon="3.48997">
        <ele>1342.3056770182</ele>
        <time>2016-06-20T14:11:07Z</time>
      </trkpt>
      <trkpt lat="44.03215" lon="3.48976">
        <ele>1342.0731835407</ele>
        <time>2016-06-20T14:11:30Z</time>
      </trkpt>
      <trkpt lat="44.03215" lon="3.48976">
        <ele>1342.0731835407</ele>
        <time>2016-06-20T14:11:34Z</time>
      </trkpt>
      <trkpt lat="44.03206" lon="3.48967">
        <ele>1342.6555408132</ele>
        <time>2016-06-20T14:12:20Z</time>
      </trkpt>
      <trkpt lat="44.03204" lon="3.48962">
        <ele>1342.6555408132</ele>
        <time>2016-06-20T14:12:22Z</time>
      </trkpt>
      <trkpt lat="44.03196" lon="3.48952">
        <ele>1343.300810554</ele>
        <time>2016-06-20T14:12:29Z</time>
      </trkpt>
      <trkpt lat="44.03193" lon="3.48948">
        <ele>1343.300810554</ele>
        <time>2016-06-20T14:12:34Z</time>
      </trkpt>
      <trkpt lat="44.03184" lon="3.48931">
        <ele>1343.5857270368</ele>
        <time>2016-06-20T14:12:48Z</time>
      </trkpt>
      <trkpt lat="44.0318" lon="3.48914">
        <ele>1343.7242107521</ele>
        <time>2016-06-20T14:13:01Z</time>
      </trkpt>
      <trkpt lat="44.03178" lon="3.48911">
        <ele>1343.7242107521</ele>
        <time>2016-06-20T14:13:02Z</time>
      </trkpt>
      <trkpt lat="44.03174" lon="3.48903">
        <ele>1343.6697191721</ele>
        <time>2016-06-20T14:13:09Z</time>
      </trkpt>
      <trkpt lat="44.03167" lon="3.48899">
        <ele>1343.6697191721</ele>
        <time>2016-06-20T14:13:23Z</time>
      </trkpt>
      <trkpt lat="44.03146" lon="3.48901">
        <ele>1343.682145657</ele>
        <time>2016-06-20T14:14:08Z</time>
      </trkpt>
      <trkpt lat="44.03114" lon="3.48908">
        <ele>1343.5840346404</ele>
        <time>2016-06-20T14:14:34Z</time>
      </trkpt>
      <trkpt lat="44.031" lon="3.48903">
        <ele>1343.5281835934</ele>
        <time>2016-06-20T14:14:48Z</time>
      </trkpt>
      <trkpt lat="44.03093" lon="3.48904">
        <ele>1343.5281835934</ele>
        <time>2016-06-20T14:14:54Z</time>
      </trkpt>
      <trkpt lat="44.03083" lon="3.48908">
        <ele>1343.583863406</ele>
        <time>2016-06-20T14:15:01Z</time>
      </trkpt>
      <trkpt lat="44.03082" lon="3.48908">
        <ele>1343.583863406</ele>
        <time>2016-06-20T14:15:02Z</time>
      </trkpt>
      <trkpt lat="44.03075" lon="3.48909">
        <ele>1343.583863406</ele>
        <time>2016-06-20T14:15:07Z</time>
      </trkpt>
      <trkpt lat="44.03056" lon="3.4891">
        <ele>1343.8148249116</ele>
        <time>2016-06-20T14:15:26Z</time>
      </trkpt>
      <trkpt lat="44.03053" lon="3.4891">
        <ele>1343.8148249116</ele>
        <time>2016-06-20T14:15:28Z</time>
      </trkpt>
      <trkpt lat="44.02973" lon="3.48902">
        <ele>1344.2074797339</ele>
        <time>2016-06-20T14:16:38Z</time>
      </trkpt>
      <trkpt lat="44.02966" lon="3.48897">
        <ele>1344.2074797339</ele>
        <time>2016-06-20T14:16:38Z</time>
      </trkpt>
      <trkpt lat="44.02949" lon="3.48889">
        <ele>1344.7342746108</ele>
        <time>2016-06-20T14:16:53Z</time>
      </trkpt>
      <trkpt lat="44.02946" lon="3.48888">
        <ele>1344.7342746108</ele>
        <time>2016-06-20T14:16:53Z</time>
      </trkpt>
      <trkpt lat="44.02923" lon="3.48879">
        <ele>1344.9512936966</ele>
        <time>2016-06-20T14:17:09Z</time>
      </trkpt>
      <trkpt lat="44.02899" lon="3.48882">
        <ele>1345.067700165</ele>
        <time>2016-06-20T14:17:30Z</time>
      </trkpt>
      <trkpt lat="44.02881" lon="3.48889">
        <ele>1345.0469278385</ele>
        <time>2016-06-20T14:17:49Z</time>
      </trkpt>
      <trkpt lat="44.02857" lon="3.48892">
        <ele>1344.7689533868</ele>
        <time>2016-06-20T14:18:04Z</time>
      </trkpt>
      <trkpt lat="44.02831" lon="3.489">
        <ele>1343.6620789654</ele>
        <time>2016-06-20T14:18:28Z</time>
      </trkpt>
      <trkpt lat="44.02813" lon="3.48917">
        <ele>1341.847372547</ele>
        <time>2016-06-20T14:18:50Z</time>
      </trkpt>
      <trkpt lat="44.02808" lon="3.48921">
        <ele>1341.847372547</ele>
        <time>2016-06-20T14:18:54Z</time>
      </trkpt>
      <trkpt lat="44.02805" lon="3.48927">
        <ele>1339.5974569743</ele>
        <time>2016-06-20T14:19:02Z</time>
      </trkpt>
      <trkpt lat="44.02807" lon="3.48932">
        <ele>1339.5974569743</ele>
        <time>2016-06-20T14:19:12Z</time>
      </trkpt>
      <trkpt lat="44.02791" lon="3.48928">
        <ele>1337.1949049274</ele>
        <time>2016-06-20T14:19:27Z</time>
      </trkpt>
      <trkpt lat="44.02781" lon="3.48923">
        <ele>1334.9162944526</ele>
        <time>2016-06-20T14:19:36Z</time>
      </trkpt>
      <trkpt lat="44.02775" lon="3.48913">
        <ele>1334.9162944526</ele>
        <time>2016-06-20T14:19:49Z</time>
      </trkpt>
      <trkpt lat="44.02775" lon="3.48912">
        <ele>1332.3545397186</ele>
        <time>2016-06-20T14:19:50Z</time>
      </trkpt>
      <trkpt lat="44.02774" lon="3.48911">
        <ele>1332.3545397186</ele>
        <time>2016-06-20T14:19:52Z</time>
      </trkpt>
      <trkpt lat="44.02774" lon="3.4891">
        <ele>1332.3545397186</ele>
        <time>2016-06-20T14:20:09Z</time>
      </trkpt>
      <trkpt lat="44.02776" lon="3.48915">
        <ele>1332.3545397186</ele>
        <time>2016-06-20T14:20:17Z</time>
      </trkpt>
      <trkpt lat="44.02768" lon="3.48932">
        <ele>1329.9113552914</ele>
        <time>2016-06-20T14:20:30Z</time>
      </trkpt>
      <trkpt lat="44.02757" lon="3.48935">
        <ele>1327.5117601805</ele>
        <time>2016-06-20T14:20:54Z</time>
      </trkpt>
      <trkpt lat="44.02755" lon="3.48937">
        <ele>1327.5117601805</ele>
        <time>2016-06-20T14:20:54Z</time>
      </trkpt>
      <trkpt lat="44.02751" lon="3.48944">
        <ele>1325.3166196931</ele>
        <time>2016-06-20T14:21:02Z</time>
      </trkpt>
      <trkpt lat="44.02745" lon="3.48951">
        <ele>1325.3166196931</ele>
        <time>2016-06-20T14:21:09Z</time>
      </trkpt>
      <trkpt lat="44.02725" lon="3.48956">
        <ele>1323.2148837159</ele>
        <time>2016-06-20T14:21:30Z</time>
      </trkpt>
      <trkpt lat="44.02725" lon="3.48954">
        <ele>1323.2148837159</ele>
        <time>2016-06-20T14:21:34Z</time>
      </trkpt>
      <trkpt lat="44.02724" lon="3.48951">
        <ele>1323.2148837159</ele>
        <time>2016-06-20T14:21:49Z</time>
      </trkpt>
      <trkpt lat="44.02721" lon="3.48959">
        <ele>1320.8726891899</ele>
        <time>2016-06-20T14:22:08Z</time>
      </trkpt>
      <trkpt lat="44.02711" lon="3.48979">
        <ele>1318.6585601324</ele>
        <time>2016-06-20T14:22:17Z</time>
      </trkpt>
      <trkpt lat="44.02703" lon="3.49004">
        <ele>1316.5819952342</ele>
        <time>2016-06-20T14:22:33Z</time>
      </trkpt>
      <trkpt lat="44.02706" lon="3.49032">
        <ele>1314.5215679671</ele>
        <time>2016-06-20T14:22:54Z</time>
      </trkpt>
      <trkpt lat="44.02723" lon="3.49033">
        <ele>1312.6960392492</ele>
        <time>2016-06-20T14:23:07Z</time>
      </trkpt>
      <trkpt lat="44.02764" lon="3.49052">
        <ele>1311.6819884869</ele>
        <time>2016-06-20T14:23:58Z</time>
      </trkpt>
      <trkpt lat="44.02774" lon="3.49055">
        <ele>1310.9159809649</ele>
        <time>2016-06-20T14:23:58Z</time>
      </trkpt>
      <trkpt lat="44.02786" lon="3.49056">
        <ele>1310.4948232047</ele>
        <time>2016-06-20T14:24:09Z</time>
      </trkpt>
      <trkpt lat="44.02808" lon="3.49072">
        <ele>1309.6136322856</ele>
        <time>2016-06-20T14:24:24Z</time>
      </trkpt>
      <trkpt lat="44.02813" lon="3.49078">
        <ele>1309.6136322856</ele>
        <time>2016-06-20T14:24:29Z</time>
      </trkpt>
      <trkpt lat="44.02821" lon="3.49088">
        <ele>1308.6086645581</ele>
        <time>2016-06-20T14:24:47Z</time>
      </trkpt>
      <trkpt lat="44.02821" lon="3.491">
        <ele>1308.6086645581</ele>
        <time>2016-06-20T14:24:47Z</time>
      </trkpt>
      <trkpt lat="44.02823" lon="3.49109">
        <ele>1307.6620209194</ele>
        <time>2016-06-20T14:24:54Z</time>
      </trkpt>
      <trkpt lat="44.02823" lon="3.49117">
        <ele>1307.6620209194</ele>
        <time>2016-06-20T14:25:00Z</time>
      </trkpt>
      <trkpt lat="44.02825" lon="3.49119">
        <ele>1307.6620209194</ele>
        <time>2016-06-20T14:25:02Z</time>
      </trkpt>
      <trkpt lat="44.0283" lon="3.4913">
        <ele>1306.697179899</ele>
        <time>2016-06-20T14:25:17Z</time>
      </trkpt>
      <trkpt lat="44.02836" lon="3.49155">
        <ele>1305.7152626451</ele>
        <time>2016-06-20T14:25:30Z</time>
      </trkpt>
      <trkpt lat="44.02836" lon="3.49157">
        <ele>1305.7152626451</ele>
        <time>2016-06-20T14:25:35Z</time>
      </trkpt>
      <trkpt lat="44.02839" lon="3.49182">
        <ele>1304.8613890856</ele>
        <time>2016-06-20T14:25:50Z</time>
      </trkpt>
      <trkpt lat="44.0285" lon="3.49208">
        <ele>1304.3560560598</ele>
        <time>2016-06-20T14:26:10Z</time>
      </trkpt>
      <trkpt lat="44.02851" lon="3.49209">
        <ele>1304.3560560598</ele>
        <time>2016-06-20T14:26:10Z</time>
      </trkpt>
      <trkpt lat="44.02851" lon="3.49211">
        <ele>1304.3560560598</ele>
        <time>2016-06-20T14:26:18Z</time>
      </trkpt>
      <trkpt lat="44.02855" lon="3.49224">
        <ele>1303.9125451184</ele>
        <time>2016-06-20T14:26:18Z</time>
      </trkpt>
      <trkpt lat="44.02861" lon="3.49247">
        <ele>1303.5676069418</ele>
        <time>2016-06-20T14:26:30Z</time>
      </trkpt>
      <trkpt lat="44.02864" lon="3.49273">
        <ele>1303.5999621249</ele>
        <time>2016-06-20T14:26:54Z</time>
      </trkpt>
      <trkpt lat="44.02856" lon="3.49287">
        <ele>1304.0794224509</ele>
        <time>2016-06-20T14:27:07Z</time>
      </trkpt>
      <trkpt lat="44.02841" lon="3.49305">
        <ele>1305.3287998197</ele>
        <time>2016-06-20T14:27:38Z</time>
      </trkpt>
      <trkpt lat="44.02834" lon="3.49314">
        <ele>1306.7659532106</ele>
        <time>2016-06-20T14:27:38Z</time>
      </trkpt>
      <trkpt lat="44.02822" lon="3.49326">
        <ele>1308.4418514054</ele>
        <time>2016-06-20T14:27:49Z</time>
      </trkpt>
      <trkpt lat="44.02796" lon="3.49348">
        <ele>1310.7489540764</ele>
        <time>2016-06-20T14:28:14Z</time>
      </trkpt>
      <trkpt lat="44.02785" lon="3.49362">
        <ele>1313.3142137759</ele>
        <time>2016-06-20T14:28:29Z</time>
      </trkpt>
      <trkpt lat="44.02784" lon="3.49363">
        <ele>1313.3142137759</ele>
        <time>2016-06-20T14:28:29Z</time>
      </trkpt>
      <trkpt lat="44.02755" lon="3.49384">
        <ele>1316.3822026598</ele>
        <time>2016-06-20T14:28:50Z</time>
      </trkpt>
      <trkpt lat="44.02753" lon="3.49385">
        <ele>1316.3822026598</ele>
        <time>2016-06-20T14:28:53Z</time>
      </trkpt>
      <trkpt lat="44.02744" lon="3.49392">
        <ele>1319.6306030165</ele>
        <time>2016-06-20T14:29:02Z</time>
      </trkpt>
      <trkpt lat="44.02739" lon="3.49395">
        <ele>1319.6306030165</ele>
        <time>2016-06-20T14:29:10Z</time>
      </trkpt>
      <trkpt lat="44.02716" lon="3.49412">
        <ele>1323.79800453</ele>
        <time>2016-06-20T14:29:34Z</time>
      </trkpt>
      <trkpt lat="44.02716" lon="3.49412">
        <ele>1323.79800453</ele>
        <time>2016-06-20T14:29:43Z</time>
      </trkpt>
      <trkpt lat="44.02711" lon="3.49414">
        <ele>1323.79800453</ele>
        <time>2016-06-20T14:29:43Z</time>
      </trkpt>
      <trkpt lat="44.02681" lon="3.49427">
        <ele>1328.6440153374</ele>
        <time>2016-06-20T14:30:18Z</time>
      </trkpt>
      <trkpt lat="44.02674" lon="3.49432">
        <ele>1328.6440153374</ele>
        <time>2016-06-20T14:30:18Z</time>
      </trkpt>
      <trkpt lat="44.02631" lon="3.49468">
        <ele>1334.0450717447</ele>
        <time>2016-06-20T14:30:54Z</time>
      </trkpt>
      <trkpt lat="44.02625" lon="3.49471">
        <ele>1334.0450717447</ele>
        <time>2016-06-20T14:30:54Z</time>
      </trkpt>
      <trkpt lat="44.02602" lon="3.49479">
        <ele>1339.2800896706</ele>
        <time>2016-06-20T14:31:07Z</time>
      </trkpt>
      <trkpt lat="44.02577" lon="3.49491">
        <ele>1344.3013576166</ele>
        <time>2016-06-20T14:31:31Z</time>
      </trkpt>
      <trkpt lat="44.02559" lon="3.49501">
        <ele>1348.7773335657</ele>
        <time>2016-06-20T14:31:49Z</time>
      </trkpt>
      <trkpt lat="44.02558" lon="3.49504">
        <ele>1348.7773335657</ele>
        <time>2016-06-20T14:31:58Z</time>
      </trkpt>
      <trkpt lat="44.02551" lon="3.49507">
        <ele>1353.0511724402</ele>
        <time>2016-06-20T14:31:58Z</time>
      </trkpt>
      <trkpt lat="44.02537" lon="3.49509">
        <ele>1357.0093862141</ele>
        <time>2016-06-20T14:32:09Z</time>
      </trkpt>
      <trkpt lat="44.02535" lon="3.49509">
        <ele>1357.0093862141</ele>
        <time>2016-06-20T14:32:18Z</time>
      </trkpt>
      <trkpt lat="44.02529" lon="3.49514">
        <ele>1360.8074549806</ele>
        <time>2016-06-20T14:32:18Z</time>
      </trkpt>
      <trkpt lat="44.02526" lon="3.49515">
        <ele>1360.8074549806</ele>
        <time>2016-06-20T14:32:30Z</time>
      </trkpt>
      <trkpt lat="44.02512" lon="3.49536">
        <ele>1363.6823407184</ele>
        <time>2016-06-20T14:32:52Z</time>
      </trkpt>
      <trkpt lat="44.02511" lon="3.49537">
        <ele>1363.6823407184</ele>
        <time>2016-06-20T14:32:54Z</time>
      </trkpt>
      <trkpt lat="44.02496" lon="3.49557">
        <ele>1365.8523166484</ele>
        <time>2016-06-20T14:33:10Z</time>
      </trkpt>
      <trkpt lat="44.02488" lon="3.49587">
        <ele>1365.9079064359</ele>
        <time>2016-06-20T14:33:30Z</time>
      </trkpt>
      <trkpt lat="44.02487" lon="3.49589">
        <ele>1365.9079064359</ele>
        <time>2016-06-20T14:33:31Z</time>
      </trkpt>
      <trkpt lat="44.02479" lon="3.49626">
        <ele>1364.8552211155</ele>
        <time>2016-06-20T14:33:58Z</time>
      </trkpt>
      <trkpt lat="44.02475" lon="3.49638">
        <ele>1363.5578315999</ele>
        <time>2016-06-20T14:33:58Z</time>
      </trkpt>
      <trkpt lat="44.02476" lon="3.4966">
        <ele>1361.4910183925</ele>
        <time>2016-06-20T14:34:12Z</time>
      </trkpt>
      <trkpt lat="44.02484" lon="3.49684">
        <ele>1358.7042228192</ele>
        <time>2016-06-20T14:34:30Z</time>
      </trkpt>
      <trkpt lat="44.025" lon="3.49712">
        <ele>1355.4616452467</ele>
        <time>2016-06-20T14:34:54Z</time>
      </trkpt>
      <trkpt lat="44.02508" lon="3.4973">
        <ele>1352.3553856843</ele>
        <time>2016-06-20T14:35:07Z</time>
      </trkpt>
      <trkpt lat="44.02518" lon="3.49756">
        <ele>1349.4726305875</ele>
        <time>2016-06-20T14:35:34Z</time>
      </trkpt>
      <trkpt lat="44.02539" lon="3.49782">
        <ele>1346.4612801624</ele>
        <time>2016-06-20T14:35:54Z</time>
      </trkpt>
      <trkpt lat="44.02544" lon="3.49789">
        <ele>1346.4612801624</ele>
        <time>2016-06-20T14:35:56Z</time>
      </trkpt>
      <trkpt lat="44.02551" lon="3.49812">
        <ele>1343.6728240175</ele>
        <time>2016-06-20T14:36:09Z</time>
      </trkpt>
      <trkpt lat="44.02552" lon="3.49816">
        <ele>1343.6728240175</ele>
        <time>2016-06-20T14:36:17Z</time>
      </trkpt>
      <trkpt lat="44.02569" lon="3.4984">
        <ele>1340.6973457493</ele>
        <time>2016-06-20T14:36:29Z</time>
      </trkpt>
      <trkpt lat="44.02572" lon="3.49846">
        <ele>1340.6973457493</ele>
        <time>2016-06-20T14:36:34Z</time>
      </trkpt>
      <trkpt lat="44.02588" lon="3.49871">
        <ele>1337.7463962851</ele>
        <time>2016-06-20T14:36:54Z</time>
      </trkpt>
      <trkpt lat="44.0259" lon="3.49875">
        <ele>1337.7463962851</ele>
        <time>2016-06-20T14:36:57Z</time>
      </trkpt>
      <trkpt lat="44.02595" lon="3.49891">
        <ele>1335.0879187573</ele>
        <time>2016-06-20T14:37:09Z</time>
      </trkpt>
      <trkpt lat="44.02598" lon="3.49892">
        <ele>1335.0879187573</ele>
        <time>2016-06-20T14:37:15Z</time>
      </trkpt>
      <trkpt lat="44.02632" lon="3.49929">
        <ele>1333.6177749349</ele>
        <time>2016-06-20T14:37:58Z</time>
      </trkpt>
      <trkpt lat="44.02649" lon="3.49942">
        <ele>1332.8799971987</ele>
        <time>2016-06-20T14:38:19Z</time>
      </trkpt>
      <trkpt lat="44.02654" lon="3.49951">
        <ele>1332.8799971987</ele>
        <time>2016-06-20T14:38:19Z</time>
      </trkpt>
      <trkpt lat="44.02668" lon="3.49973">
        <ele>1332.8678723439</ele>
        <time>2016-06-20T14:38:36Z</time>
      </trkpt>
      <trkpt lat="44.02677" lon="3.4999">
        <ele>1332.852475013</ele>
        <time>2016-06-20T14:38:50Z</time>
      </trkpt>
      <trkpt lat="44.02681" lon="3.49993">
        <ele>1332.852475013</ele>
        <time>2016-06-20T14:38:54Z</time>
      </trkpt>
      <trkpt lat="44.02691" lon="3.50009">
        <ele>1333.1094559184</ele>
        <time>2016-06-20T14:39:07Z</time>
      </trkpt>
      <trkpt lat="44.02713" lon="3.50008">
        <ele>1334.0806887122</ele>
        <time>2016-06-20T14:39:38Z</time>
      </trkpt>
      <trkpt lat="44.02727" lon="3.50009">
        <ele>1334.3720918346</ele>
        <time>2016-06-20T14:39:43Z</time>
      </trkpt>
      <trkpt lat="44.02728" lon="3.50009">
        <ele>1334.3720918346</ele>
        <time>2016-06-20T14:39:47Z</time>
      </trkpt>
      <trkpt lat="44.02735" lon="3.50002">
        <ele>1334.9131166006</ele>
        <time>2016-06-20T14:40:07Z</time>
      </trkpt>
      <trkpt lat="44.02736" lon="3.50005">
        <ele>1334.9131166006</ele>
        <time>2016-06-20T14:40:12Z</time>
      </trkpt>
      <trkpt lat="44.02736" lon="3.50004">
        <ele>1334.9131166006</ele>
        <time>2016-06-20T14:40:17Z</time>
      </trkpt>
      <trkpt lat="44.02738" lon="3.50006">
        <ele>1334.9131166006</ele>
        <time>2016-06-20T14:40:22Z</time>
      </trkpt>
      <trkpt lat="44.02741" lon="3.50006">
        <ele>1334.9131166006</ele>
        <time>2016-06-20T14:40:27Z</time>
      </trkpt>
      <trkpt lat="44.02746" lon="3.50002">
        <ele>1334.647470555</ele>
        <time>2016-06-20T14:40:32Z</time>
      </trkpt>
      <trkpt lat="44.0275" lon="3.49997">
        <ele>1334.647470555</ele>
        <time>2016-06-20T14:40:37Z</time>
      </trkpt>
      <trkpt lat="44.02755" lon="3.49997">
        <ele>1334.0109249471</ele>
        <time>2016-06-20T14:40:42Z</time>
      </trkpt>
      <trkpt lat="44.02762" lon="3.49995">
        <ele>1334.0109249471</ele>
        <time>2016-06-20T14:40:47Z</time>
      </trkpt>
      <trkpt lat="44.02768" lon="3.49993">
        <ele>1332.9902757101</ele>
        <time>2016-06-20T14:40:52Z</time>
      </trkpt>
      <trkpt lat="44.02774" lon="3.4999">
        <ele>1332.9902757101</ele>
        <time>2016-06-20T14:40:57Z</time>
      </trkpt>
      <trkpt lat="44.02779" lon="3.49987">
        <ele>1331.6607494912</ele>
        <time>2016-06-20T14:41:02Z</time>
      </trkpt>
      <trkpt lat="44.02786" lon="3.49985">
        <ele>1331.6607494912</ele>
        <time>2016-06-20T14:41:07Z</time>
      </trkpt>
      <trkpt lat="44.02792" lon="3.49984">
        <ele>1330.0207695014</ele>
        <time>2016-06-20T14:41:12Z</time>
      </trkpt>
      <trkpt lat="44.02796" lon="3.49981">
        <ele>1330.0207695014</ele>
        <time>2016-06-20T14:41:17Z</time>
      </trkpt>
      <trkpt lat="44.02803" lon="3.49979">
        <ele>1327.9543613261</ele>
        <time>2016-06-20T14:41:22Z</time>
      </trkpt>
      <trkpt lat="44.02806" lon="3.49975">
        <ele>1327.9543613261</ele>
        <time>2016-06-20T14:41:27Z</time>
      </trkpt>
      <trkpt lat="44.02814" lon="3.49969">
        <ele>1325.4992725657</ele>
        <time>2016-06-20T14:41:32Z</time>
      </trkpt>
      <trkpt lat="44.02817" lon="3.49966">
        <ele>1325.4992725657</ele>
        <time>2016-06-20T14:41:37Z</time>
      </trkpt>
      <trkpt lat="44.02819" lon="3.49964">
        <ele>1325.4992725657</ele>
        <time>2016-06-20T14:41:42Z</time>
      </trkpt>
      <trkpt lat="44.02823" lon="3.49962">
        <ele>1322.5473406273</ele>
        <time>2016-06-20T14:41:47Z</time>
      </trkpt>
      <trkpt lat="44.02839" lon="3.49957">
        <ele>1319.8354578305</ele>
        <time>2016-06-20T14:41:52Z</time>
      </trkpt>
      <trkpt lat="44.02846" lon="3.49954">
        <ele>1319.8354578305</ele>
        <time>2016-06-20T14:41:57Z</time>
      </trkpt>
      <trkpt lat="44.02853" lon="3.49954">
        <ele>1316.9791458961</ele>
        <time>2016-06-20T14:42:02Z</time>
      </trkpt>
      <trkpt lat="44.02861" lon="3.49956">
        <ele>1316.9791458961</ele>
        <time>2016-06-20T14:42:07Z</time>
      </trkpt>
      <trkpt lat="44.02867" lon="3.49954">
        <ele>1313.9826966321</ele>
        <time>2016-06-20T14:42:12Z</time>
      </trkpt>
      <trkpt lat="44.02868" lon="3.4995">
        <ele>1313.9826966321</ele>
        <time>2016-06-20T14:42:17Z</time>
      </trkpt>
      <trkpt lat="44.02871" lon="3.49944">
        <ele>1313.9826966321</ele>
        <time>2016-06-20T14:42:22Z</time>
      </trkpt>
      <trkpt lat="44.02877" lon="3.49937">
        <ele>1310.9223658002</ele>
        <time>2016-06-20T14:42:27Z</time>
      </trkpt>
      <trkpt lat="44.02888" lon="3.4994">
        <ele>1308.2434951026</ele>
        <time>2016-06-20T14:42:32Z</time>
      </trkpt>
      <trkpt lat="44.02895" lon="3.49941">
        <ele>1308.2434951026</ele>
        <time>2016-06-20T14:42:37Z</time>
      </trkpt>
      <trkpt lat="44.02899" lon="3.49943">
        <ele>1305.9539405954</ele>
        <time>2016-06-20T14:42:42Z</time>
      </trkpt>
      <trkpt lat="44.02904" lon="3.49944">
        <ele>1305.9539405954</ele>
        <time>2016-06-20T14:42:47Z</time>
      </trkpt>
      <trkpt lat="44.02906" lon="3.49948">
        <ele>1305.9539405954</ele>
        <time>2016-06-20T14:42:52Z</time>
      </trkpt>
      <trkpt lat="44.02906" lon="3.49949">
        <ele>1303.9299928903</ele>
        <time>2016-06-20T14:42:57Z</time>
      </trkpt>
      <trkpt lat="44.02906" lon="3.49949">
        <ele>1303.9299928903</ele>
        <time>2016-06-20T14:43:02Z</time>
      </trkpt>
      <trkpt lat="44.02911" lon="3.49964">
        <ele>1302.7766428106</ele>
        <time>2016-06-20T14:43:07Z</time>
      </trkpt>
      <trkpt lat="44.02913" lon="3.49968">
        <ele>1302.7766428106</ele>
        <time>2016-06-20T14:43:12Z</time>
      </trkpt>
      <trkpt lat="44.02914" lon="3.4997">
        <ele>1302.7766428106</ele>
        <time>2016-06-20T14:43:17Z</time>
      </trkpt>
      <trkpt lat="44.02922" lon="3.49972">
        <ele>1302.316834521</ele>
        <time>2016-06-20T14:43:22Z</time>
      </trkpt>
      <trkpt lat="44.02929" lon="3.49974">
        <ele>1302.316834521</ele>
        <time>2016-06-20T14:43:27Z</time>
      </trkpt>
      <trkpt lat="44.02936" lon="3.49977">
        <ele>1302.1393964879</ele>
        <time>2016-06-20T14:43:32Z</time>
      </trkpt>
      <trkpt lat="44.02938" lon="3.49977">
        <ele>1302.1393964879</ele>
        <time>2016-06-20T14:43:37Z</time>
      </trkpt>
      <trkpt lat="44.02943" lon="3.49979">
        <ele>1302.1393964879</ele>
        <time>2016-06-20T14:43:47Z</time>
      </trkpt>
      <trkpt lat="44.02946" lon="3.49978">
        <ele>1302.53971691</ele>
        <time>2016-06-20T14:43:52Z</time>
      </trkpt>
      <trkpt lat="44.02953" lon="3.49985">
        <ele>1303.0259160921</ele>
        <time>2016-06-20T14:44:45Z</time>
      </trkpt>
      <trkpt lat="44.02958" lon="3.4999">
        <ele>1303.0259160921</ele>
        <time>2016-06-20T14:44:49Z</time>
      </trkpt>
      <trkpt lat="44.02961" lon="3.49992">
        <ele>1303.0259160921</ele>
        <time>2016-06-20T14:44:54Z</time>
      </trkpt>
      <trkpt lat="44.02966" lon="3.49995">
        <ele>1303.603021833</ele>
        <time>2016-06-20T14:45:00Z</time>
      </trkpt>
      <trkpt lat="44.02973" lon="3.49997">
        <ele>1303.603021833</ele>
        <time>2016-06-20T14:45:03Z</time>
      </trkpt>
      <trkpt lat="44.02977" lon="3.49997">
        <ele>1304.2464941651</ele>
        <time>2016-06-20T14:45:08Z</time>
      </trkpt>
      <trkpt lat="44.02981" lon="3.49996">
        <ele>1304.2464941651</ele>
        <time>2016-06-20T14:45:19Z</time>
      </trkpt>
      <trkpt lat="44.0299" lon="3.50003">
        <ele>1304.9909525685</ele>
        <time>2016-06-20T14:45:20Z</time>
      </trkpt>
      <trkpt lat="44.03002" lon="3.50012">
        <ele>1305.8104632531</ele>
        <time>2016-06-20T14:45:36Z</time>
      </trkpt>
      <trkpt lat="44.03021" lon="3.50022">
        <ele>1306.7239566033</ele>
        <time>2016-06-20T14:45:51Z</time>
      </trkpt>
      <trkpt lat="44.03022" lon="3.50023">
        <ele>1306.7239566033</ele>
        <time>2016-06-20T14:46:00Z</time>
      </trkpt>
      <trkpt lat="44.03042" lon="3.50037">
        <ele>1307.7774855127</ele>
        <time>2016-06-20T14:46:17Z</time>
      </trkpt>
      <trkpt lat="44.03053" lon="3.50049">
        <ele>1308.8547769804</ele>
        <time>2016-06-20T14:46:31Z</time>
      </trkpt>
      <trkpt lat="44.03062" lon="3.50049">
        <ele>1308.8547769804</ele>
        <time>2016-06-20T14:46:34Z</time>
      </trkpt>
      <trkpt lat="44.03085" lon="3.50057">
        <ele>1309.9633109769</ele>
        <time>2016-06-20T14:46:55Z</time>
      </trkpt>
      <trkpt lat="44.03091" lon="3.50057">
        <ele>1309.9633109769</ele>
        <time>2016-06-20T14:46:59Z</time>
      </trkpt>
      <trkpt lat="44.03099" lon="3.50056">
        <ele>1311.0522915373</ele>
        <time>2016-06-20T14:47:03Z</time>
      </trkpt>
      <trkpt lat="44.03105" lon="3.50056">
        <ele>1311.0522915373</ele>
        <time>2016-06-20T14:47:07Z</time>
      </trkpt>
      <trkpt lat="44.03111" lon="3.50055">
        <ele>1312.0170852715</ele>
        <time>2016-06-20T14:47:12Z</time>
      </trkpt>
      <trkpt lat="44.03132" lon="3.50061">
        <ele>1312.8764167441</ele>
        <time>2016-06-20T14:47:39Z</time>
      </trkpt>
      <trkpt lat="44.03157" lon="3.50064">
        <ele>1313.6912105366</ele>
        <time>2016-06-20T14:47:59Z</time>
      </trkpt>
      <trkpt lat="44.03178" lon="3.50064">
        <ele>1314.6477976657</ele>
        <time>2016-06-20T14:48:18Z</time>
      </trkpt>
      <trkpt lat="44.03201" lon="3.50071">
        <ele>1315.2988113462</ele>
        <time>2016-06-20T14:48:35Z</time>
      </trkpt>
      <trkpt lat="44.03223" lon="3.50095">
        <ele>1315.4756668318</ele>
        <time>2016-06-20T14:48:55Z</time>
      </trkpt>
      <trkpt lat="44.03227" lon="3.50101">
        <ele>1315.4756668318</ele>
        <time>2016-06-20T14:48:58Z</time>
      </trkpt>
      <trkpt lat="44.03231" lon="3.50107">
        <ele>1315.5279600627</ele>
        <time>2016-06-20T14:49:07Z</time>
      </trkpt>
      <trkpt lat="44.03236" lon="3.50114">
        <ele>1315.5279600627</ele>
        <time>2016-06-20T14:49:15Z</time>
      </trkpt>
      <trkpt lat="44.03237" lon="3.50117">
        <ele>1315.5638684615</ele>
        <time>2016-06-20T14:49:24Z</time>
      </trkpt>
      <trkpt lat="44.0324" lon="3.5018">
        <ele>1315.2946485136</ele>
        <time>2016-06-20T14:49:53Z</time>
      </trkpt>
      <trkpt lat="44.03241" lon="3.5021">
        <ele>1314.914857458</ele>
        <time>2016-06-20T14:50:19Z</time>
      </trkpt>
      <trkpt lat="44.0324" lon="3.50239">
        <ele>1314.3313343447</ele>
        <time>2016-06-20T14:50:31Z</time>
      </trkpt>
      <trkpt lat="44.0324" lon="3.5024">
        <ele>1314.3313343447</ele>
        <time>2016-06-20T14:50:35Z</time>
      </trkpt>
      <trkpt lat="44.0324" lon="3.50248">
        <ele>1314.3313343447</ele>
        <time>2016-06-20T14:50:41Z</time>
      </trkpt>
      <trkpt lat="44.03242" lon="3.50254">
        <ele>1313.5592813665</ele>
        <time>2016-06-20T14:50:42Z</time>
      </trkpt>
      <trkpt lat="44.0324" lon="3.50269">
        <ele>1312.8295441067</ele>
        <time>2016-06-20T14:50:55Z</time>
      </trkpt>
      <trkpt lat="44.03237" lon="3.50275">
        <ele>1312.8295441067</ele>
        <time>2016-06-20T14:51:00Z</time>
      </trkpt>
      <trkpt lat="44.03234" lon="3.50285">
        <ele>1312.3415390772</ele>
        <time>2016-06-20T14:51:04Z</time>
      </trkpt>
      <trkpt lat="44.03232" lon="3.50288">
        <ele>1312.3415390772</ele>
        <time>2016-06-20T14:51:07Z</time>
      </trkpt>
      <trkpt lat="44.03228" lon="3.50298">
        <ele>1311.9767750052</ele>
        <time>2016-06-20T14:51:16Z</time>
      </trkpt>
      <trkpt lat="44.03216" lon="3.50302">
        <ele>1311.7116339269</ele>
        <time>2016-06-20T14:51:27Z</time>
      </trkpt>
      <trkpt lat="44.03215" lon="3.503">
        <ele>1311.7116339269</ele>
        <time>2016-06-20T14:51:32Z</time>
      </trkpt>
      <trkpt lat="44.03213" lon="3.50302">
        <ele>1311.7116339269</ele>
        <time>2016-06-20T14:51:49Z</time>
      </trkpt>
      <trkpt lat="44.03208" lon="3.50309">
        <ele>1311.4807644825</ele>
        <time>2016-06-20T14:51:49Z</time>
      </trkpt>
      <trkpt lat="44.03199" lon="3.50307">
        <ele>1311.1947393671</ele>
        <time>2016-06-20T14:51:57Z</time>
      </trkpt>
      <trkpt lat="44.03196" lon="3.50289">
        <ele>1310.7132499689</ele>
        <time>2016-06-20T14:52:14Z</time>
      </trkpt>
      <trkpt lat="44.03196" lon="3.50256">
        <ele>1309.8060009014</ele>
        <time>2016-06-20T14:52:39Z</time>
      </trkpt>
      <trkpt lat="44.03186" lon="3.50226">
        <ele>1308.7364064907</ele>
        <time>2016-06-20T14:52:55Z</time>
      </trkpt>
      <trkpt lat="44.03183" lon="3.50219">
        <ele>1308.7364064907</ele>
        <time>2016-06-20T14:53:00Z</time>
      </trkpt>
      <trkpt lat="44.03172" lon="3.50216">
        <ele>1307.4031441852</ele>
        <time>2016-06-20T14:53:09Z</time>
      </trkpt>
      <trkpt lat="44.03167" lon="3.50239">
        <ele>1306.0301356963</ele>
        <time>2016-06-20T14:53:28Z</time>
      </trkpt>
      <trkpt lat="44.03166" lon="3.50252">
        <ele>1304.6952732552</ele>
        <time>2016-06-20T14:53:36Z</time>
      </trkpt>
      <trkpt lat="44.0317" lon="3.50276">
        <ele>1303.2832748957</ele>
        <time>2016-06-20T14:53:51Z</time>
      </trkpt>
      <trkpt lat="44.03161" lon="3.50299">
        <ele>1301.9037008847</ele>
        <time>2016-06-20T14:54:09Z</time>
      </trkpt>
      <trkpt lat="44.03161" lon="3.503">
        <ele>1301.9037008847</ele>
        <time>2016-06-20T14:54:09Z</time>
      </trkpt>
      <trkpt lat="44.0314" lon="3.50316">
        <ele>1300.499432419</ele>
        <time>2016-06-20T14:54:31Z</time>
      </trkpt>
      <trkpt lat="44.03116" lon="3.50362">
        <ele>1298.8302457761</ele>
        <time>2016-06-20T14:55:04Z</time>
      </trkpt>
      <trkpt lat="44.03114" lon="3.50367">
        <ele>1298.8302457761</ele>
        <time>2016-06-20T14:55:07Z</time>
      </trkpt>
      <trkpt lat="44.03115" lon="3.50394">
        <ele>1297.0201403068</ele>
        <time>2016-06-20T14:55:30Z</time>
      </trkpt>
      <trkpt lat="44.03117" lon="3.50398">
        <ele>1297.0201403068</ele>
        <time>2016-06-20T14:55:30Z</time>
      </trkpt>
      <trkpt lat="44.03117" lon="3.50402">
        <ele>1297.0201403068</ele>
        <time>2016-06-20T14:55:35Z</time>
      </trkpt>
      <trkpt lat="44.0312" lon="3.50421">
        <ele>1295.1987712354</ele>
        <time>2016-06-20T14:55:55Z</time>
      </trkpt>
      <trkpt lat="44.03107" lon="3.5044">
        <ele>1293.4286067918</ele>
        <time>2016-06-20T14:56:14Z</time>
      </trkpt>
      <trkpt lat="44.03092" lon="3.50462">
        <ele>1291.7240918027</ele>
        <time>2016-06-20T14:56:36Z</time>
      </trkpt>
      <trkpt lat="44.03089" lon="3.50466">
        <ele>1291.7240918027</ele>
        <time>2016-06-20T14:56:36Z</time>
      </trkpt>
      <trkpt lat="44.03075" lon="3.50476">
        <ele>1290.1415948008</ele>
        <time>2016-06-20T14:56:55Z</time>
      </trkpt>
      <trkpt lat="44.03071" lon="3.50478">
        <ele>1290.1415948008</ele>
        <time>2016-06-20T14:57:00Z</time>
      </trkpt>
      <trkpt lat="44.03063" lon="3.50493">
        <ele>1288.603231142</ele>
        <time>2016-06-20T14:57:09Z</time>
      </trkpt>
      <trkpt lat="44.03042" lon="3.50508">
        <ele>1287.1375171401</ele>
        <time>2016-06-20T14:57:39Z</time>
      </trkpt>
      <trkpt lat="44.03035" lon="3.50514">
        <ele>1287.1375171401</ele>
        <time>2016-06-20T14:57:39Z</time>
      </trkpt>
      <trkpt lat="44.03018" lon="3.50535">
        <ele>1285.7850041145</ele>
        <time>2016-06-20T14:57:59Z</time>
      </trkpt>
      <trkpt lat="44.03008" lon="3.50558">
        <ele>1284.5108119056</ele>
        <time>2016-06-20T14:58:10Z</time>
      </trkpt>
      <trkpt lat="44.03005" lon="3.50561">
        <ele>1284.5108119056</ele>
        <time>2016-06-20T14:58:10Z</time>
      </trkpt>
      <trkpt lat="44.02998" lon="3.50608">
        <ele>1282.821165994</ele>
        <time>2016-06-20T14:58:35Z</time>
      </trkpt>
      <trkpt lat="44.02997" lon="3.50612">
        <ele>1282.821165994</ele>
        <time>2016-06-20T14:58:39Z</time>
      </trkpt>
      <trkpt lat="44.02997" lon="3.50614">
        <ele>1282.821165994</ele>
        <time>2016-06-20T14:58:42Z</time>
      </trkpt>
      <trkpt lat="44.02997" lon="3.50614">
        <ele>1282.821165994</ele>
        <time>2016-06-20T14:58:47Z</time>
      </trkpt>
      <trkpt lat="44.02999" lon="3.50624">
        <ele>1280.7640355436</ele>
        <time>2016-06-20T14:58:55Z</time>
      </trkpt>
      <trkpt lat="44.03008" lon="3.5064">
        <ele>1278.6586220168</ele>
        <time>2016-06-20T14:59:04Z</time>
      </trkpt>
      <trkpt lat="44.0301" lon="3.50643">
        <ele>1278.6586220168</ele>
        <time>2016-06-20T14:59:07Z</time>
      </trkpt>
      <trkpt lat="44.03038" lon="3.50695">
        <ele>1276.4260348363</ele>
        <time>2016-06-20T14:59:52Z</time>
      </trkpt>
      <trkpt lat="44.03046" lon="3.50716">
        <ele>1274.3825407618</ele>
        <time>2016-06-20T15:00:10Z</time>
      </trkpt>
      <trkpt lat="44.03047" lon="3.50718">
        <ele>1274.3825407618</ele>
        <time>2016-06-20T15:00:12Z</time>
      </trkpt>
      <trkpt lat="44.03052" lon="3.50744">
        <ele>1272.48908839</ele>
        <time>2016-06-20T15:00:37Z</time>
      </trkpt>
      <trkpt lat="44.03051" lon="3.50774">
        <ele>1270.7954383881</ele>
        <time>2016-06-20T15:00:52Z</time>
      </trkpt>
      <trkpt lat="44.03055" lon="3.50799">
        <ele>1269.274976004</ele>
        <time>2016-06-20T15:01:09Z</time>
      </trkpt>
      <trkpt lat="44.03055" lon="3.50802">
        <ele>1269.274976004</ele>
        <time>2016-06-20T15:01:12Z</time>
      </trkpt>
      <trkpt lat="44.03056" lon="3.50807">
        <ele>1269.274976004</ele>
        <time>2016-06-20T15:01:17Z</time>
      </trkpt>
      <trkpt lat="44.03056" lon="3.50812">
        <ele>1267.960096729</ele>
        <time>2016-06-20T15:01:22Z</time>
      </trkpt>
      <trkpt lat="44.03058" lon="3.5082">
        <ele>1267.960096729</ele>
        <time>2016-06-20T15:01:27Z</time>
      </trkpt>
      <trkpt lat="44.03061" lon="3.50824">
        <ele>1266.8657273315</ele>
        <time>2016-06-20T15:01:32Z</time>
      </trkpt>
      <trkpt lat="44.03062" lon="3.5083">
        <ele>1266.8657273315</ele>
        <time>2016-06-20T15:01:37Z</time>
      </trkpt>
      <trkpt lat="44.03064" lon="3.50835">
        <ele>1266.8657273315</ele>
        <time>2016-06-20T15:01:42Z</time>
      </trkpt>
      <trkpt lat="44.03067" lon="3.50838">
        <ele>1265.9329268546</ele>
        <time>2016-06-20T15:01:47Z</time>
      </trkpt>
      <trkpt lat="44.03069" lon="3.50838">
        <ele>1265.9329268546</ele>
        <time>2016-06-20T15:01:52Z</time>
      </trkpt>
      <trkpt lat="44.03071" lon="3.50843">
        <ele>1265.9329268546</ele>
        <time>2016-06-20T15:01:57Z</time>
      </trkpt>
      <trkpt lat="44.03071" lon="3.50852">
        <ele>1265.1209505454</ele>
        <time>2016-06-20T15:02:02Z</time>
      </trkpt>
      <trkpt lat="44.03069" lon="3.5086">
        <ele>1265.1209505454</ele>
        <time>2016-06-20T15:02:07Z</time>
      </trkpt>
      <trkpt lat="44.03066" lon="3.5087">
        <ele>1264.4348565917</ele>
        <time>2016-06-20T15:02:12Z</time>
      </trkpt>
      <trkpt lat="44.03062" lon="3.50883">
        <ele>1263.8644906645</ele>
        <time>2016-06-20T15:02:17Z</time>
      </trkpt>
      <trkpt lat="44.03057" lon="3.50893">
        <ele>1263.8644906645</ele>
        <time>2016-06-20T15:02:22Z</time>
      </trkpt>
      <trkpt lat="44.03053" lon="3.50896">
        <ele>1263.4288738541</ele>
        <time>2016-06-20T15:02:27Z</time>
      </trkpt>
      <trkpt lat="44.03048" lon="3.509">
        <ele>1263.4288738541</ele>
        <time>2016-06-20T15:02:32Z</time>
      </trkpt>
      <trkpt lat="44.03044" lon="3.50903">
        <ele>1263.0875485472</ele>
        <time>2016-06-20T15:02:37Z</time>
      </trkpt>
      <trkpt lat="44.03038" lon="3.50903">
        <ele>1263.0875485472</ele>
        <time>2016-06-20T15:02:42Z</time>
      </trkpt>
      <trkpt lat="44.03035" lon="3.50898">
        <ele>1262.8459486154</ele>
        <time>2016-06-20T15:02:47Z</time>
      </trkpt>
      <trkpt lat="44.03034" lon="3.50889">
        <ele>1262.8459486154</ele>
        <time>2016-06-20T15:02:52Z</time>
      </trkpt>
      <trkpt lat="44.03034" lon="3.50884">
        <ele>1262.6655561931</ele>
        <time>2016-06-20T15:02:57Z</time>
      </trkpt>
      <trkpt lat="44.03035" lon="3.50882">
        <ele>1262.6655561931</ele>
        <time>2016-06-20T15:03:02Z</time>
      </trkpt>
      <trkpt lat="44.03039" lon="3.50879">
        <ele>1262.6655561931</ele>
        <time>2016-06-20T15:03:07Z</time>
      </trkpt>
      <trkpt lat="44.03041" lon="3.50873">
        <ele>1262.4096037088</ele>
        <time>2016-06-20T15:03:12Z</time>
      </trkpt>
      <trkpt lat="44.03041" lon="3.50862">
        <ele>1262.4096037088</ele>
        <time>2016-06-20T15:03:17Z</time>
      </trkpt>
      <trkpt lat="44.03042" lon="3.50856">
        <ele>1262.2397846946</ele>
        <time>2016-06-20T15:03:22Z</time>
      </trkpt>
      <trkpt lat="44.03047" lon="3.50851">
        <ele>1262.2397846946</ele>
        <time>2016-06-20T15:03:27Z</time>
      </trkpt>
      <trkpt lat="44.03047" lon="3.50847">
        <ele>1262.2397846946</ele>
        <time>2016-06-20T15:03:32Z</time>
      </trkpt>
      <trkpt lat="44.03046" lon="3.50843">
        <ele>1262.1615512367</ele>
        <time>2016-06-20T15:03:37Z</time>
      </trkpt>
      <trkpt lat="44.03042" lon="3.50835">
        <ele>1262.1615512367</ele>
        <time>2016-06-20T15:03:42Z</time>
      </trkpt>
      <trkpt lat="44.0304" lon="3.50832">
        <ele>1262.1220517311</ele>
        <time>2016-06-20T15:03:47Z</time>
      </trkpt>
      <trkpt lat="44.03033" lon="3.5082">
        <ele>1262.1298596978</ele>
        <time>2016-06-20T15:03:52Z</time>
      </trkpt>
      <trkpt lat="44.03032" lon="3.50812">
        <ele>1262.1298596978</ele>
        <time>2016-06-20T15:03:57Z</time>
      </trkpt>
      <trkpt lat="44.0303" lon="3.50806">
        <ele>1262.1639792438</ele>
        <time>2016-06-20T15:04:02Z</time>
      </trkpt>
      <trkpt lat="44.03026" lon="3.50788">
        <ele>1262.2049064708</ele>
        <time>2016-06-20T15:04:11Z</time>
      </trkpt>
      <trkpt lat="44.03026" lon="3.50784">
        <ele>1262.2049064708</ele>
        <time>2016-06-20T15:04:12Z</time>
      </trkpt>
      <trkpt lat="44.03025" lon="3.50776">
        <ele>1262.2049064708</ele>
        <time>2016-06-20T15:04:21Z</time>
      </trkpt>
      <trkpt lat="44.03024" lon="3.50775">
        <ele>1262.2489933522</ele>
        <time>2016-06-20T15:04:22Z</time>
      </trkpt>
      <trkpt lat="44.03017" lon="3.50762">
        <ele>1262.1920112007</ele>
        <time>2016-06-20T15:04:33Z</time>
      </trkpt>
      <trkpt lat="44.03007" lon="3.50743">
        <ele>1262.1106490366</ele>
        <time>2016-06-20T15:04:52Z</time>
      </trkpt>
      <trkpt lat="44.03003" lon="3.50735">
        <ele>1262.1106490366</ele>
        <time>2016-06-20T15:04:59Z</time>
      </trkpt>
      <trkpt lat="44.03001" lon="3.50733">
        <ele>1262.0760803606</ele>
        <time>2016-06-20T15:05:02Z</time>
      </trkpt>
      <trkpt lat="44.02989" lon="3.50723">
        <ele>1262.0821178146</ele>
        <time>2016-06-20T15:05:22Z</time>
      </trkpt>
      <trkpt lat="44.0298" lon="3.50715">
        <ele>1262.1085621017</ele>
        <time>2016-06-20T15:05:31Z</time>
      </trkpt>
      <trkpt lat="44.02979" lon="3.50713">
        <ele>1262.1085621017</ele>
        <time>2016-06-20T15:05:32Z</time>
      </trkpt>
      <trkpt lat="44.02974" lon="3.50699">
        <ele>1262.1511141082</ele>
        <time>2016-06-20T15:05:42Z</time>
      </trkpt>
      <trkpt lat="44.02973" lon="3.50695">
        <ele>1262.1511141082</ele>
        <time>2016-06-20T15:05:47Z</time>
      </trkpt>
      <trkpt lat="44.02967" lon="3.50686">
        <ele>1262.1914003431</ele>
        <time>2016-06-20T15:05:57Z</time>
      </trkpt>
      <trkpt lat="44.02964" lon="3.50684">
        <ele>1262.1914003431</ele>
        <time>2016-06-20T15:06:02Z</time>
      </trkpt>
      <trkpt lat="44.02947" lon="3.50681">
        <ele>1262.2557061647</ele>
        <time>2016-06-20T15:06:12Z</time>
      </trkpt>
      <trkpt lat="44.02942" lon="3.5068">
        <ele>1262.2557061647</ele>
        <time>2016-06-20T15:06:17Z</time>
      </trkpt>
      <trkpt lat="44.02937" lon="3.50681">
        <ele>1262.3251576845</ele>
        <time>2016-06-20T15:06:22Z</time>
      </trkpt>
      <trkpt lat="44.02931" lon="3.50677">
        <ele>1262.3251576845</ele>
        <time>2016-06-20T15:06:27Z</time>
      </trkpt>
      <trkpt lat="44.02924" lon="3.50669">
        <ele>1262.382327998</ele>
        <time>2016-06-20T15:06:41Z</time>
      </trkpt>
      <trkpt lat="44.0292" lon="3.50662">
        <ele>1262.382327998</ele>
        <time>2016-06-20T15:06:42Z</time>
      </trkpt>
      <trkpt lat="44.02919" lon="3.50644">
        <ele>1262.2526593487</ele>
        <time>2016-06-20T15:06:53Z</time>
      </trkpt>
      <trkpt lat="44.02912" lon="3.50627">
        <ele>1262.0488301728</ele>
        <time>2016-06-20T15:07:07Z</time>
      </trkpt>
      <trkpt lat="44.02909" lon="3.50623">
        <ele>1262.0488301728</ele>
        <time>2016-06-20T15:07:12Z</time>
      </trkpt>
      <trkpt lat="44.02899" lon="3.50607">
        <ele>1261.7458276575</ele>
        <time>2016-06-20T15:07:30Z</time>
      </trkpt>
      <trkpt lat="44.02896" lon="3.506">
        <ele>1261.7458276575</ele>
        <time>2016-06-20T15:07:30Z</time>
      </trkpt>
      <trkpt lat="44.02891" lon="3.50596">
        <ele>1261.4361208029</ele>
        <time>2016-06-20T15:07:32Z</time>
      </trkpt>
      <trkpt lat="44.02886" lon="3.50587">
        <ele>1261.4361208029</ele>
        <time>2016-06-20T15:07:37Z</time>
      </trkpt>
      <trkpt lat="44.02885" lon="3.50583">
        <ele>1260.9893133576</ele>
        <time>2016-06-20T15:07:42Z</time>
      </trkpt>
      <trkpt lat="44.02884" lon="3.50578">
        <ele>1260.9893133576</ele>
        <time>2016-06-20T15:07:47Z</time>
      </trkpt>
      <trkpt lat="44.02884" lon="3.50578">
        <ele>1260.9893133576</ele>
        <time>2016-06-20T15:07:52Z</time>
      </trkpt>
      <trkpt lat="44.0288" lon="3.50572">
        <ele>1259.7518328094</ele>
        <time>2016-06-20T15:08:07Z</time>
      </trkpt>
      <trkpt lat="44.02879" lon="3.50565">
        <ele>1259.7518328094</ele>
        <time>2016-06-20T15:08:12Z</time>
      </trkpt>
      <trkpt lat="44.02879" lon="3.50558">
        <ele>1258.5182804969</ele>
        <time>2016-06-20T15:08:17Z</time>
      </trkpt>
      <trkpt lat="44.0288" lon="3.50552">
        <ele>1258.5182804969</ele>
        <time>2016-06-20T15:08:22Z</time>
      </trkpt>
      <trkpt lat="44.02878" lon="3.50548">
        <ele>1258.5182804969</ele>
        <time>2016-06-20T15:08:27Z</time>
      </trkpt>
      <trkpt lat="44.02876" lon="3.50547">
        <ele>1257.2467349259</ele>
        <time>2016-06-20T15:08:32Z</time>
      </trkpt>
      <trkpt lat="44.02872" lon="3.50545">
        <ele>1257.2467349259</ele>
        <time>2016-06-20T15:08:47Z</time>
      </trkpt>
      <trkpt lat="44.02873" lon="3.50545">
        <ele>1257.2467349259</ele>
        <time>2016-06-20T15:08:52Z</time>
      </trkpt>
      <trkpt lat="44.02874" lon="3.50547">
        <ele>1257.2467349259</ele>
        <time>2016-06-20T15:09:32Z</time>
      </trkpt>
      <trkpt lat="44.02874" lon="3.50547">
        <ele>1257.2467349259</ele>
        <time>2016-06-20T15:09:37Z</time>
      </trkpt>
      <trkpt lat="44.02873" lon="3.50555">
        <ele>1255.7399890222</ele>
        <time>2016-06-20T15:09:57Z</time>
      </trkpt>
      <trkpt lat="44.02873" lon="3.50561">
        <ele>1255.7399890222</ele>
        <time>2016-06-20T15:10:02Z</time>
      </trkpt>
      <trkpt lat="44.02875" lon="3.50565">
        <ele>1255.7399890222</ele>
        <time>2016-06-20T15:10:07Z</time>
      </trkpt>
      <trkpt lat="44.02875" lon="3.50567">
        <ele>1254.2627677155</ele>
        <time>2016-06-20T15:10:12Z</time>
      </trkpt>
      <trkpt lat="44.02874" lon="3.50568">
        <ele>1254.2627677155</ele>
        <time>2016-06-20T15:10:17Z</time>
      </trkpt>
      <trkpt lat="44.0287" lon="3.50581">
        <ele>1252.6279640393</ele>
        <time>2016-06-20T15:12:00Z</time>
      </trkpt>
      <trkpt lat="44.02884" lon="3.50557">
        <ele>1250.9364900364</ele>
        <time>2016-06-20T15:12:42Z</time>
      </trkpt>
      <trkpt lat="44.02887" lon="3.50561">
        <ele>1250.9364900364</ele>
        <time>2016-06-20T15:12:57Z</time>
      </trkpt>
      <trkpt lat="44.02886" lon="3.5057">
        <ele>1249.3684816932</ele>
        <time>2016-06-20T15:13:02Z</time>
      </trkpt>
      <trkpt lat="44.02886" lon="3.50577">
        <ele>1249.3684816932</ele>
        <time>2016-06-20T15:13:07Z</time>
      </trkpt>
      <trkpt lat="44.02885" lon="3.50585">
        <ele>1247.989620405</ele>
        <time>2016-06-20T15:13:12Z</time>
      </trkpt>
      <trkpt lat="44.02885" lon="3.50594">
        <ele>1247.989620405</ele>
        <time>2016-06-20T15:13:17Z</time>
      </trkpt>
      <trkpt lat="44.02886" lon="3.50603">
        <ele>1246.7881709444</ele>
        <time>2016-06-20T15:13:22Z</time>
      </trkpt>
      <trkpt lat="44.0289" lon="3.50609">
        <ele>1246.7881709444</ele>
        <time>2016-06-20T15:13:27Z</time>
      </trkpt>
      <trkpt lat="44.02893" lon="3.50613">
        <ele>1245.7239285806</ele>
        <time>2016-06-20T15:13:32Z</time>
      </trkpt>
      <trkpt lat="44.02895" lon="3.50619">
        <ele>1245.7239285806</ele>
        <time>2016-06-20T15:13:37Z</time>
      </trkpt>
      <trkpt lat="44.02901" lon="3.50625">
        <ele>1244.816885657</ele>
        <time>2016-06-20T15:13:42Z</time>
      </trkpt>
      <trkpt lat="44.02905" lon="3.5063">
        <ele>1244.816885657</ele>
        <time>2016-06-20T15:13:47Z</time>
      </trkpt>
      <trkpt lat="44.02907" lon="3.50636">
        <ele>1244.0418730933</ele>
        <time>2016-06-20T15:13:52Z</time>
      </trkpt>
      <trkpt lat="44.02911" lon="3.50651">
        <ele>1243.4040030566</ele>
        <time>2016-06-20T15:13:57Z</time>
      </trkpt>
      <trkpt lat="44.02915" lon="3.50657">
        <ele>1243.4040030566</ele>
        <time>2016-06-20T15:14:02Z</time>
      </trkpt>
      <trkpt lat="44.02918" lon="3.50664">
        <ele>1242.8355525251</ele>
        <time>2016-06-20T15:14:07Z</time>
      </trkpt>
      <trkpt lat="44.02923" lon="3.5067">
        <ele>1242.8355525251</ele>
        <time>2016-06-20T15:14:12Z</time>
      </trkpt>
      <trkpt lat="44.02927" lon="3.50676">
        <ele>1242.3167937835</ele>
        <time>2016-06-20T15:14:17Z</time>
      </trkpt>
      <trkpt lat="44.02932" lon="3.5068">
        <ele>1242.3167937835</ele>
        <time>2016-06-20T15:14:22Z</time>
      </trkpt>
      <trkpt lat="44.02937" lon="3.50681">
        <ele>1241.8581148241</ele>
        <time>2016-06-20T15:14:27Z</time>
      </trkpt>
      <trkpt lat="44.02943" lon="3.50684">
        <ele>1241.8581148241</ele>
        <time>2016-06-20T15:14:32Z</time>
      </trkpt>
      <trkpt lat="44.02948" lon="3.50687">
        <ele>1241.5121915326</ele>
        <time>2016-06-20T15:14:37Z</time>
      </trkpt>
      <trkpt lat="44.02953" lon="3.50692">
        <ele>1241.5121915326</ele>
        <time>2016-06-20T15:14:42Z</time>
      </trkpt>
      <trkpt lat="44.0296" lon="3.50693">
        <ele>1241.2410363646</ele>
        <time>2016-06-20T15:14:47Z</time>
      </trkpt>
      <trkpt lat="44.02967" lon="3.50693">
        <ele>1241.2410363646</ele>
        <time>2016-06-20T15:14:52Z</time>
      </trkpt>
      <trkpt lat="44.02974" lon="3.5071">
        <ele>1240.98041275</ele>
        <time>2016-06-20T15:15:07Z</time>
      </trkpt>
      <trkpt lat="44.02973" lon="3.50714">
        <ele>1240.98041275</ele>
        <time>2016-06-20T15:15:12Z</time>
      </trkpt>
      <trkpt lat="44.02965" lon="3.50739">
        <ele>1240.7428249248</ele>
        <time>2016-06-20T15:15:37Z</time>
      </trkpt>
      <trkpt lat="44.0298" lon="3.50762">
        <ele>1240.611849374</ele>
        <time>2016-06-20T15:15:57Z</time>
      </trkpt>
      <trkpt lat="44.02981" lon="3.50761">
        <ele>1240.611849374</ele>
        <time>2016-06-20T15:16:02Z</time>
      </trkpt>
      <trkpt lat="44.02986" lon="3.50769">
        <ele>1240.5349277841</ele>
        <time>2016-06-20T15:16:07Z</time>
      </trkpt>
      <trkpt lat="44.0299" lon="3.50772">
        <ele>1240.5349277841</ele>
        <time>2016-06-20T15:16:12Z</time>
      </trkpt>
      <trkpt lat="44.02992" lon="3.50776">
        <ele>1240.5349277841</ele>
        <time>2016-06-20T15:16:17Z</time>
      </trkpt>
      <trkpt lat="44.02994" lon="3.50781">
        <ele>1240.5208634991</ele>
        <time>2016-06-20T15:16:22Z</time>
      </trkpt>
      <trkpt lat="44.02996" lon="3.50785">
        <ele>1240.5208634991</ele>
        <time>2016-06-20T15:16:27Z</time>
      </trkpt>
      <trkpt lat="44.02999" lon="3.50787">
        <ele>1240.5208634991</ele>
        <time>2016-06-20T15:16:32Z</time>
      </trkpt>
      <trkpt lat="44.03002" lon="3.5079">
        <ele>1240.5488268236</ele>
        <time>2016-06-20T15:16:37Z</time>
      </trkpt>
      <trkpt lat="44.03004" lon="3.50791">
        <ele>1240.5488268236</ele>
        <time>2016-06-20T15:16:42Z</time>
      </trkpt>
      <trkpt lat="44.03005" lon="3.50794">
        <ele>1240.5488268236</ele>
        <time>2016-06-20T15:16:47Z</time>
      </trkpt>
      <trkpt lat="44.03009" lon="3.50796">
        <ele>1240.5488268236</ele>
        <time>2016-06-20T15:16:52Z</time>
      </trkpt>
      <trkpt lat="44.03011" lon="3.50806">
        <ele>1240.599416919</ele>
        <time>2016-06-20T15:16:57Z</time>
      </trkpt>
      <trkpt lat="44.03013" lon="3.5081">
        <ele>1240.599416919</ele>
        <time>2016-06-20T15:17:02Z</time>
      </trkpt>
      <trkpt lat="44.03016" lon="3.50815">
        <ele>1240.599416919</ele>
        <time>2016-06-20T15:17:07Z</time>
      </trkpt>
      <trkpt lat="44.03019" lon="3.50825">
        <ele>1240.6978490317</ele>
        <time>2016-06-20T15:17:12Z</time>
      </trkpt>
      <trkpt lat="44.03021" lon="3.50833">
        <ele>1240.6978490317</ele>
        <time>2016-06-20T15:17:17Z</time>
      </trkpt>
      <trkpt lat="44.03023" lon="3.50837">
        <ele>1240.8529662134</ele>
        <time>2016-06-20T15:17:22Z</time>
      </trkpt>
      <trkpt lat="44.03028" lon="3.50842">
        <ele>1240.8529662134</ele>
        <time>2016-06-20T15:17:27Z</time>
      </trkpt>
      <trkpt lat="44.0303" lon="3.50847">
        <ele>1241.0440104104</ele>
        <time>2016-06-20T15:17:32Z</time>
      </trkpt>
      <trkpt lat="44.03033" lon="3.50852">
        <ele>1241.0440104104</ele>
        <time>2016-06-20T15:17:37Z</time>
      </trkpt>
      <trkpt lat="44.03036" lon="3.50856">
        <ele>1241.0440104104</ele>
        <time>2016-06-20T15:17:42Z</time>
      </trkpt>
      <trkpt lat="44.03039" lon="3.50862">
        <ele>1241.2516816308</ele>
        <time>2016-06-20T15:17:47Z</time>
      </trkpt>
      <trkpt lat="44.03035" lon="3.50867">
        <ele>1241.2516816308</ele>
        <time>2016-06-20T15:17:52Z</time>
      </trkpt>
      <trkpt lat="44.03032" lon="3.50864">
        <ele>1241.2516816308</ele>
        <time>2016-06-20T15:17:57Z</time>
      </trkpt>
      <trkpt lat="44.03029" lon="3.50862">
        <ele>1241.4725001892</ele>
        <time>2016-06-20T15:18:07Z</time>
      </trkpt>
      <trkpt lat="44.03024" lon="3.50865">
        <ele>1241.4725001892</ele>
        <time>2016-06-20T15:18:12Z</time>
      </trkpt>
      <trkpt lat="44.0302" lon="3.50866">
        <ele>1241.7320693688</ele>
        <time>2016-06-20T15:18:17Z</time>
      </trkpt>
      <trkpt lat="44.03017" lon="3.50865">
        <ele>1241.7320693688</ele>
        <time>2016-06-20T15:18:22Z</time>
      </trkpt>
      <trkpt lat="44.0301" lon="3.50864">
        <ele>1241.9964041556</ele>
        <time>2016-06-20T15:18:27Z</time>
      </trkpt>
      <trkpt lat="44.03005" lon="3.50861">
        <ele>1241.9964041556</ele>
        <time>2016-06-20T15:18:32Z</time>
      </trkpt>
      <trkpt lat="44.03003" lon="3.5086">
        <ele>1241.9964041556</ele>
        <time>2016-06-20T15:18:37Z</time>
      </trkpt>
      <trkpt lat="44.03001" lon="3.50857">
        <ele>1242.3205185614</ele>
        <time>2016-06-20T15:18:42Z</time>
      </trkpt>
      <trkpt lat="44.02997" lon="3.50854">
        <ele>1242.3205185614</ele>
        <time>2016-06-20T15:18:47Z</time>
      </trkpt>
      <trkpt lat="44.02996" lon="3.50853">
        <ele>1242.3205185614</ele>
        <time>2016-06-20T15:18:52Z</time>
      </trkpt>
      <trkpt lat="44.02996" lon="3.50855">
        <ele>1242.3205185614</ele>
        <time>2016-06-20T15:18:57Z</time>
      </trkpt>
      <trkpt lat="44.02993" lon="3.50857">
        <ele>1242.6976256688</ele>
        <time>2016-06-20T15:19:02Z</time>
      </trkpt>
      <trkpt lat="44.0299" lon="3.50857">
        <ele>1242.6976256688</ele>
        <time>2016-06-20T15:19:07Z</time>
      </trkpt>
      <trkpt lat="44.02988" lon="3.50856">
        <ele>1242.6976256688</ele>
        <time>2016-06-20T15:19:12Z</time>
      </trkpt>
      <trkpt lat="44.02987" lon="3.50853">
        <ele>1242.6976256688</ele>
        <time>2016-06-20T15:19:17Z</time>
      </trkpt>
      <trkpt lat="44.02982" lon="3.5085">
        <ele>1243.1213442786</ele>
        <time>2016-06-20T15:19:22Z</time>
      </trkpt>
      <trkpt lat="44.02977" lon="3.50848">
        <ele>1243.1213442786</ele>
        <time>2016-06-20T15:19:27Z</time>
      </trkpt>
      <trkpt lat="44.02972" lon="3.50844">
        <ele>1243.5712790944</ele>
        <time>2016-06-20T15:19:32Z</time>
      </trkpt>
      <trkpt lat="44.02969" lon="3.50844">
        <ele>1243.5712790944</ele>
        <time>2016-06-20T15:19:37Z</time>
      </trkpt>
      <trkpt lat="44.02967" lon="3.50843">
        <ele>1243.5712790944</ele>
        <time>2016-06-20T15:19:42Z</time>
      </trkpt>
      <trkpt lat="44.02965" lon="3.50839">
        <ele>1243.5712790944</ele>
        <time>2016-06-20T15:19:47Z</time>
      </trkpt>
      <trkpt lat="44.02963" lon="3.50838">
        <ele>1243.9564659254</ele>
        <time>2016-06-20T15:19:52Z</time>
      </trkpt>
      <trkpt lat="44.0296" lon="3.50837">
        <ele>1243.9564659254</ele>
        <time>2016-06-20T15:19:57Z</time>
      </trkpt>
      <trkpt lat="44.02955" lon="3.50836">
        <ele>1243.9564659254</ele>
        <time>2016-06-20T15:20:02Z</time>
      </trkpt>
      <trkpt lat="44.02945" lon="3.5083">
        <ele>1244.3225691207</ele>
        <time>2016-06-20T15:20:09Z</time>
      </trkpt>
      <trkpt lat="44.02946" lon="3.5083">
        <ele>1244.3225691207</ele>
        <time>2016-06-20T15:20:12Z</time>
      </trkpt>
      <trkpt lat="44.02916" lon="3.5082">
        <ele>1245.0146530092</ele>
        <time>2016-06-20T15:20:57Z</time>
      </trkpt>
      <trkpt lat="44.02912" lon="3.50816">
        <ele>1245.0146530092</ele>
        <time>2016-06-20T15:21:02Z</time>
      </trkpt>
      <trkpt lat="44.02911" lon="3.50817">
        <ele>1245.0146530092</ele>
        <time>2016-06-20T15:21:07Z</time>
      </trkpt>
      <trkpt lat="44.0289" lon="3.508">
        <ele>1245.5013331386</ele>
        <time>2016-06-20T15:21:36Z</time>
      </trkpt>
      <trkpt lat="44.02883" lon="3.50801">
        <ele>1245.5013331386</ele>
        <time>2016-06-20T15:21:45Z</time>
      </trkpt>
      <trkpt lat="44.02882" lon="3.508">
        <ele>1245.5013331386</ele>
        <time>2016-06-20T15:21:47Z</time>
      </trkpt>
      <trkpt lat="44.02882" lon="3.508">
        <ele>1245.5013331386</ele>
        <time>2016-06-20T15:21:52Z</time>
      </trkpt>
      <trkpt lat="44.02878" lon="3.50795">
        <ele>1245.3053183955</ele>
        <time>2016-06-20T15:22:12Z</time>
      </trkpt>
      <trkpt lat="44.02875" lon="3.50787">
        <ele>1245.3053183955</ele>
        <time>2016-06-20T15:22:17Z</time>
      </trkpt>
      <trkpt lat="44.02874" lon="3.50783">
        <ele>1245.0239654278</ele>
        <time>2016-06-20T15:22:22Z</time>
      </trkpt>
      <trkpt lat="44.02871" lon="3.50778">
        <ele>1245.0239654278</ele>
        <time>2016-06-20T15:22:27Z</time>
      </trkpt>
      <trkpt lat="44.02866" lon="3.50778">
        <ele>1244.6634350959</ele>
        <time>2016-06-20T15:22:32Z</time>
      </trkpt>
      <trkpt lat="44.02862" lon="3.50777">
        <ele>1244.6634350959</ele>
        <time>2016-06-20T15:22:37Z</time>
      </trkpt>
      <trkpt lat="44.02858" lon="3.50773">
        <ele>1244.6634350959</ele>
        <time>2016-06-20T15:22:42Z</time>
      </trkpt>
      <trkpt lat="44.02857" lon="3.50772">
        <ele>1244.1288444547</ele>
        <time>2016-06-20T15:22:51Z</time>
      </trkpt>
      <trkpt lat="44.02847" lon="3.5076">
        <ele>1243.4192941479</ele>
        <time>2016-06-20T15:22:58Z</time>
      </trkpt>
      <trkpt lat="44.02844" lon="3.50757">
        <ele>1243.4192941479</ele>
        <time>2016-06-20T15:23:03Z</time>
      </trkpt>
      <trkpt lat="44.02835" lon="3.5075">
        <ele>1242.6641937147</ele>
        <time>2016-06-20T15:23:07Z</time>
      </trkpt>
      <trkpt lat="44.02835" lon="3.5075">
        <ele>1242.6641937147</ele>
        <time>2016-06-20T15:23:15Z</time>
      </trkpt>
      <trkpt lat="44.02839" lon="3.50752">
        <ele>1242.6641937147</ele>
        <time>2016-06-20T15:23:17Z</time>
      </trkpt>
      <trkpt lat="44.02846" lon="3.5076">
        <ele>1241.7530408374</ele>
        <time>2016-06-20T15:23:39Z</time>
      </trkpt>
      <trkpt lat="44.02845" lon="3.5076">
        <ele>1241.7530408374</ele>
        <time>2016-06-20T15:23:42Z</time>
      </trkpt>
      <trkpt lat="44.02818" lon="3.50734">
        <ele>1240.4830466943</ele>
        <time>2016-06-20T15:24:20Z</time>
      </trkpt>
      <trkpt lat="44.02816" lon="3.50734">
        <ele>1240.4830466943</ele>
        <time>2016-06-20T15:24:22Z</time>
      </trkpt>
      <trkpt lat="44.02785" lon="3.50707">
        <ele>1239.0708639233</ele>
        <time>2016-06-20T15:25:04Z</time>
      </trkpt>
      <trkpt lat="44.02784" lon="3.50704">
        <ele>1239.0708639233</ele>
        <time>2016-06-20T15:25:14Z</time>
      </trkpt>
      <trkpt lat="44.0278" lon="3.50696">
        <ele>1237.6600012067</ele>
        <time>2016-06-20T15:25:52Z</time>
      </trkpt>
      <trkpt lat="44.02757" lon="3.5068">
        <ele>1236.0519717478</ele>
        <time>2016-06-20T15:26:02Z</time>
      </trkpt>
      <trkpt lat="44.02743" lon="3.50685">
        <ele>1234.4669288016</ele>
        <time>2016-06-20T15:26:27Z</time>
      </trkpt>
      <trkpt lat="44.0273" lon="3.50682">
        <ele>1232.5755611836</ele>
        <time>2016-06-20T15:26:47Z</time>
      </trkpt>
      <trkpt lat="44.02729" lon="3.50682">
        <ele>1232.5755611836</ele>
        <time>2016-06-20T15:26:52Z</time>
      </trkpt>
      <trkpt lat="44.02729" lon="3.50682">
        <ele>1232.5755611836</ele>
        <time>2016-06-20T15:26:57Z</time>
      </trkpt>
      <trkpt lat="44.02724" lon="3.50697">
        <ele>1230.7220809424</ele>
        <time>2016-06-20T15:27:17Z</time>
      </trkpt>
      <trkpt lat="44.02722" lon="3.50691">
        <ele>1230.7220809424</ele>
        <time>2016-06-20T15:28:40Z</time>
      </trkpt>
      <trkpt lat="44.0272" lon="3.5069">
        <ele>1230.7220809424</ele>
        <time>2016-06-20T15:28:43Z</time>
      </trkpt>
      <trkpt lat="44.02698" lon="3.507">
        <ele>1228.1300238039</ele>
        <time>2016-06-20T15:29:05Z</time>
      </trkpt>
      <trkpt lat="44.02696" lon="3.50702">
        <ele>1228.1300238039</ele>
        <time>2016-06-20T15:29:13Z</time>
      </trkpt>
      <trkpt lat="44.02693" lon="3.50706">
        <ele>1228.1300238039</ele>
        <time>2016-06-20T15:29:13Z</time>
      </trkpt>
      <trkpt lat="44.02686" lon="3.50711">
        <ele>1225.6960291669</ele>
        <time>2016-06-20T15:29:38Z</time>
      </trkpt>
      <trkpt lat="44.02683" lon="3.50713">
        <ele>1225.6960291669</ele>
        <time>2016-06-20T15:29:50Z</time>
      </trkpt>
      <trkpt lat="44.02663" lon="3.50724">
        <ele>1223.1983499425</ele>
        <time>2016-06-20T15:30:19Z</time>
      </trkpt>
      <trkpt lat="44.02635" lon="3.50736">
        <ele>1220.7774960639</ele>
        <time>2016-06-20T15:30:47Z</time>
      </trkpt>
      <trkpt lat="44.02631" lon="3.50739">
        <ele>1220.7774960639</ele>
        <time>2016-06-20T15:30:52Z</time>
      </trkpt>
      <trkpt lat="44.02624" lon="3.50744">
        <ele>1218.5201168762</ele>
        <time>2016-06-20T15:31:00Z</time>
      </trkpt>
      <trkpt lat="44.02618" lon="3.50739">
        <ele>1218.5201168762</ele>
        <time>2016-06-20T15:31:08Z</time>
      </trkpt>
      <trkpt lat="44.0258" lon="3.50703">
        <ele>1216.2321262671</ele>
        <time>2016-06-20T15:31:57Z</time>
      </trkpt>
      <trkpt lat="44.02553" lon="3.50695">
        <ele>1214.0507167383</ele>
        <time>2016-06-20T15:32:27Z</time>
      </trkpt>
      <trkpt lat="44.02536" lon="3.50689">
        <ele>1212.0449429529</ele>
        <time>2016-06-20T15:32:36Z</time>
      </trkpt>
      <trkpt lat="44.02527" lon="3.50689">
        <ele>1212.0449429529</ele>
        <time>2016-06-20T15:32:43Z</time>
      </trkpt>
      <trkpt lat="44.02513" lon="3.5069">
        <ele>1210.1628836132</ele>
        <time>2016-06-20T15:33:02Z</time>
      </trkpt>
      <trkpt lat="44.02506" lon="3.5069">
        <ele>1210.1628836132</ele>
        <time>2016-06-20T15:33:08Z</time>
      </trkpt>
      <trkpt lat="44.02499" lon="3.50693">
        <ele>1208.4856594443</ele>
        <time>2016-06-20T15:33:25Z</time>
      </trkpt>
      <trkpt lat="44.02458" lon="3.50704">
        <ele>1206.756274806</ele>
        <time>2016-06-20T15:34:03Z</time>
      </trkpt>
      <trkpt lat="44.02421" lon="3.50708">
        <ele>1204.8951536745</ele>
        <time>2016-06-20T15:34:49Z</time>
      </trkpt>
      <trkpt lat="44.02403" lon="3.50708">
        <ele>1203.217907896</ele>
        <time>2016-06-20T15:35:09Z</time>
      </trkpt>
      <trkpt lat="44.02396" lon="3.5071">
        <ele>1203.217907896</ele>
        <time>2016-06-20T15:35:09Z</time>
      </trkpt>
      <trkpt lat="44.02327" lon="3.507">
        <ele>1201.0940099496</ele>
        <time>2016-06-20T15:36:47Z</time>
      </trkpt>
      <trkpt lat="44.02322" lon="3.507">
        <ele>1201.0940099496</ele>
        <time>2016-06-20T15:36:53Z</time>
      </trkpt>
      <trkpt lat="44.02309" lon="3.50698">
        <ele>1199.1653211845</ele>
        <time>2016-06-20T15:37:05Z</time>
      </trkpt>
      <trkpt lat="44.02308" lon="3.50699">
        <ele>1199.1653211845</ele>
        <time>2016-06-20T15:37:07Z</time>
      </trkpt>
      <trkpt lat="44.02223" lon="3.50707">
        <ele>1196.9594543411</ele>
        <time>2016-06-20T15:38:41Z</time>
      </trkpt>
      <trkpt lat="44.02217" lon="3.50709">
        <ele>1196.9594543411</ele>
        <time>2016-06-20T15:38:41Z</time>
      </trkpt>
      <trkpt lat="44.02203" lon="3.50709">
        <ele>1194.9184512413</ele>
        <time>2016-06-20T15:39:00Z</time>
      </trkpt>
      <trkpt lat="44.02195" lon="3.50712">
        <ele>1194.9184512413</ele>
        <time>2016-06-20T15:39:15Z</time>
      </trkpt>
      <trkpt lat="44.02131" lon="3.50731">
        <ele>1192.9180794971</ele>
        <time>2016-06-20T15:40:08Z</time>
      </trkpt>
      <trkpt lat="44.0212" lon="3.50735">
        <ele>1191.1023910729</ele>
        <time>2016-06-20T15:40:19Z</time>
      </trkpt>
      <trkpt lat="44.02092" lon="3.50737">
        <ele>1189.2871666011</ele>
        <time>2016-06-20T15:40:47Z</time>
      </trkpt>
      <trkpt lat="44.0208" lon="3.50736">
        <ele>1187.6762828326</ele>
        <time>2016-06-20T15:41:02Z</time>
      </trkpt>
      <trkpt lat="44.02079" lon="3.50735">
        <ele>1187.6762828326</ele>
        <time>2016-06-20T15:41:02Z</time>
      </trkpt>
      <trkpt lat="44.0206" lon="3.50737">
        <ele>1186.2561903856</ele>
        <time>2016-06-20T15:41:37Z</time>
      </trkpt>
      <trkpt lat="44.0202" lon="3.50695">
        <ele>1184.8407506683</ele>
        <time>2016-06-20T15:42:33Z</time>
      </trkpt>
      <trkpt lat="44.02018" lon="3.50694">
        <ele>1184.8407506683</ele>
        <time>2016-06-20T15:42:37Z</time>
      </trkpt>
      <trkpt lat="44.02017" lon="3.50694">
        <ele>1184.8407506683</ele>
        <time>2016-06-20T15:42:42Z</time>
      </trkpt>
      <trkpt lat="44.0201" lon="3.50695">
        <ele>1183.6752980564</ele>
        <time>2016-06-20T15:42:47Z</time>
      </trkpt>
      <trkpt lat="44.02009" lon="3.50697">
        <ele>1183.6752980564</ele>
        <time>2016-06-20T15:42:52Z</time>
      </trkpt>
      <trkpt lat="44.01999" lon="3.50681">
        <ele>1182.438717771</ele>
        <time>2016-06-20T15:43:29Z</time>
      </trkpt>
      <trkpt lat="44.01999" lon="3.5068">
        <ele>1182.438717771</ele>
        <time>2016-06-20T15:43:32Z</time>
      </trkpt>
      <trkpt lat="44.01999" lon="3.50668">
        <ele>1181.2803320774</ele>
        <time>2016-06-20T15:44:07Z</time>
      </trkpt>
      <trkpt lat="44.01999" lon="3.50668">
        <ele>1181.2803320774</ele>
        <time>2016-06-20T15:44:12Z</time>
      </trkpt>
      <trkpt lat="44.02013" lon="3.50664">
        <ele>1180.2084863504</ele>
        <time>2016-06-20T15:44:38Z</time>
      </trkpt>
      <trkpt lat="44.02017" lon="3.50661">
        <ele>1180.2084863504</ele>
        <time>2016-06-20T15:45:00Z</time>
      </trkpt>
      <trkpt lat="44.01999" lon="3.50628">
        <ele>1178.9567780755</ele>
        <time>2016-06-20T15:46:08Z</time>
      </trkpt>
      <trkpt lat="44.01988" lon="3.50619">
        <ele>1177.8552503158</ele>
        <time>2016-06-20T15:46:35Z</time>
      </trkpt>
      <trkpt lat="44.01989" lon="3.50616">
        <ele>1177.8552503158</ele>
        <time>2016-06-20T15:46:37Z</time>
      </trkpt>
      <trkpt lat="44.01983" lon="3.50624">
        <ele>1176.9209917899</ele>
        <time>2016-06-20T15:47:31Z</time>
      </trkpt>
      <trkpt lat="44.01966" lon="3.50603">
        <ele>1176.2701864237</ele>
        <time>2016-06-20T15:47:31Z</time>
      </trkpt>
      <trkpt lat="44.0193" lon="3.5059">
        <ele>1175.4764268162</ele>
        <time>2016-06-20T15:48:05Z</time>
      </trkpt>
      <trkpt lat="44.01928" lon="3.50591">
        <ele>1175.4764268162</ele>
        <time>2016-06-20T15:48:07Z</time>
      </trkpt>
      <trkpt lat="44.01924" lon="3.50593">
        <ele>1175.4764268162</ele>
        <time>2016-06-20T15:48:12Z</time>
      </trkpt>
      <trkpt lat="44.01919" lon="3.50595">
        <ele>1173.9720540324</ele>
        <time>2016-06-20T15:48:17Z</time>
      </trkpt>
      <trkpt lat="44.01913" lon="3.50597">
        <ele>1173.9720540324</ele>
        <time>2016-06-20T15:48:22Z</time>
      </trkpt>
      <trkpt lat="44.01906" lon="3.506">
        <ele>1171.9247987245</ele>
        <time>2016-06-20T15:48:27Z</time>
      </trkpt>
      <trkpt lat="44.019" lon="3.50602">
        <ele>1171.9247987245</ele>
        <time>2016-06-20T15:48:32Z</time>
      </trkpt>
      <trkpt lat="44.01897" lon="3.50602">
        <ele>1169.650080626</ele>
        <time>2016-06-20T15:48:37Z</time>
      </trkpt>
      <trkpt lat="44.01849" lon="3.50639">
        <ele>1166.0572822831</ele>
        <time>2016-06-20T15:49:27Z</time>
      </trkpt>
      <trkpt lat="44.01844" lon="3.50651">
        <ele>1162.5029788732</ele>
        <time>2016-06-20T15:49:35Z</time>
      </trkpt>
      <trkpt lat="44.01844" lon="3.50671">
        <ele>1158.3848952331</ele>
        <time>2016-06-20T15:49:47Z</time>
      </trkpt>
      <trkpt lat="44.01845" lon="3.50677">
        <ele>1158.3848952331</ele>
        <time>2016-06-20T15:49:52Z</time>
      </trkpt>
      <trkpt lat="44.01847" lon="3.50683">
        <ele>1154.1985233727</ele>
        <time>2016-06-20T15:49:57Z</time>
      </trkpt>
      <trkpt lat="44.01845" lon="3.50684">
        <ele>1154.1985233727</ele>
        <time>2016-06-20T15:50:02Z</time>
      </trkpt>
      <trkpt lat="44.01845" lon="3.50684">
        <ele>1154.1985233727</ele>
        <time>2016-06-20T15:50:07Z</time>
      </trkpt>
      <trkpt lat="44.01846" lon="3.50678">
        <ele>1154.1985233727</ele>
        <time>2016-06-20T15:50:12Z</time>
      </trkpt>
      <trkpt lat="44.01843" lon="3.5067">
        <ele>1149.6969190381</ele>
        <time>2016-06-20T15:50:17Z</time>
      </trkpt>
      <trkpt lat="44.0184" lon="3.50663">
        <ele>1149.6969190381</ele>
        <time>2016-06-20T15:50:22Z</time>
      </trkpt>
      <trkpt lat="44.0184" lon="3.50657">
        <ele>1145.1996845104</ele>
        <time>2016-06-20T15:50:27Z</time>
      </trkpt>
      <trkpt lat="44.01841" lon="3.50651">
        <ele>1145.1996845104</ele>
        <time>2016-06-20T15:50:32Z</time>
      </trkpt>
      <trkpt lat="44.01845" lon="3.50642">
        <ele>1140.8587044726</ele>
        <time>2016-06-20T15:50:37Z</time>
      </trkpt>
      <trkpt lat="44.01847" lon="3.50636">
        <ele>1140.8587044726</ele>
        <time>2016-06-20T15:50:42Z</time>
      </trkpt>
      <trkpt lat="44.01848" lon="3.50634">
        <ele>1140.8587044726</ele>
        <time>2016-06-20T15:50:47Z</time>
      </trkpt>
      <trkpt lat="44.01853" lon="3.50628">
        <ele>1136.3529807854</ele>
        <time>2016-06-20T15:50:52Z</time>
      </trkpt>
      <trkpt lat="44.01857" lon="3.5062">
        <ele>1136.3529807854</ele>
        <time>2016-06-20T15:50:57Z</time>
      </trkpt>
      <trkpt lat="44.01863" lon="3.50613">
        <ele>1130.6504435888</ele>
        <time>2016-06-20T15:51:02Z</time>
      </trkpt>
      <trkpt lat="44.01865" lon="3.50609">
        <ele>1130.6504435888</ele>
        <time>2016-06-20T15:51:07Z</time>
      </trkpt>
      <trkpt lat="44.01861" lon="3.50607">
        <ele>1130.6504435888</ele>
        <time>2016-06-20T15:51:12Z</time>
      </trkpt>
      <trkpt lat="44.01859" lon="3.50604">
        <ele>1124.5561881313</ele>
        <time>2016-06-20T15:51:17Z</time>
      </trkpt>
      <trkpt lat="44.01857" lon="3.50602">
        <ele>1124.5561881313</ele>
        <time>2016-06-20T15:51:22Z</time>
      </trkpt>
      <trkpt lat="44.01856" lon="3.50602">
        <ele>1124.5561881313</ele>
        <time>2016-06-20T15:51:27Z</time>
      </trkpt>
      <trkpt lat="44.01856" lon="3.50601">
        <ele>1124.5561881313</ele>
        <time>2016-06-20T15:51:32Z</time>
      </trkpt>
      <trkpt lat="44.01848" lon="3.50596">
        <ele>1118.6297408435</ele>
        <time>2016-06-20T15:51:37Z</time>
      </trkpt>
      <trkpt lat="44.01847" lon="3.50591">
        <ele>1118.6297408435</ele>
        <time>2016-06-20T15:51:42Z</time>
      </trkpt>
      <trkpt lat="44.01846" lon="3.50589">
        <ele>1118.6297408435</ele>
        <time>2016-06-20T15:51:47Z</time>
      </trkpt>
      <trkpt lat="44.01846" lon="3.50585">
        <ele>1118.6297408435</ele>
        <time>2016-06-20T15:51:52Z</time>
      </trkpt>
      <trkpt lat="44.01842" lon="3.50582">
        <ele>1112.797999061</ele>
        <time>2016-06-20T15:51:57Z</time>
      </trkpt>
      <trkpt lat="44.01843" lon="3.50577">
        <ele>1112.797999061</ele>
        <time>2016-06-20T15:52:02Z</time>
      </trkpt>
      <trkpt lat="44.01843" lon="3.50574">
        <ele>1112.797999061</ele>
        <time>2016-06-20T15:52:07Z</time>
      </trkpt>
      <trkpt lat="44.01842" lon="3.50568">
        <ele>1107.0936238637</ele>
        <time>2016-06-20T15:52:12Z</time>
      </trkpt>
      <trkpt lat="44.01842" lon="3.50565">
        <ele>1107.0936238637</ele>
        <time>2016-06-20T15:52:17Z</time>
      </trkpt>
      <trkpt lat="44.01836" lon="3.50563">
        <ele>1107.0936238637</ele>
        <time>2016-06-20T15:52:22Z</time>
      </trkpt>
      <trkpt lat="44.01832" lon="3.50563">
        <ele>1101.2724737094</ele>
        <time>2016-06-20T15:52:27Z</time>
      </trkpt>
      <trkpt lat="44.01828" lon="3.50561">
        <ele>1101.2724737094</ele>
        <time>2016-06-20T15:52:32Z</time>
      </trkpt>
      <trkpt lat="44.01823" lon="3.50562">
        <ele>1095.6704543415</ele>
        <time>2016-06-20T15:52:37Z</time>
      </trkpt>
      <trkpt lat="44.01818" lon="3.50565">
        <ele>1095.6704543415</ele>
        <time>2016-06-20T15:52:42Z</time>
      </trkpt>
      <trkpt lat="44.01813" lon="3.50566">
        <ele>1090.3241109329</ele>
        <time>2016-06-20T15:52:47Z</time>
      </trkpt>
      <trkpt lat="44.01809" lon="3.50568">
        <ele>1090.3241109329</ele>
        <time>2016-06-20T15:52:52Z</time>
      </trkpt>
      <trkpt lat="44.01805" lon="3.50569">
        <ele>1090.3241109329</ele>
        <time>2016-06-20T15:52:57Z</time>
      </trkpt>
      <trkpt lat="44.01801" lon="3.50565">
        <ele>1085.1798527881</ele>
        <time>2016-06-20T15:53:02Z</time>
      </trkpt>
      <trkpt lat="44.01798" lon="3.50564">
        <ele>1085.1798527881</ele>
        <time>2016-06-20T15:53:07Z</time>
      </trkpt>
      <trkpt lat="44.01794" lon="3.50562">
        <ele>1085.1798527881</ele>
        <time>2016-06-20T15:53:12Z</time>
      </trkpt>
      <trkpt lat="44.01788" lon="3.50561">
        <ele>1080.1727751893</ele>
        <time>2016-06-20T15:53:17Z</time>
      </trkpt>
      <trkpt lat="44.01785" lon="3.50564">
        <ele>1080.1727751893</ele>
        <time>2016-06-20T15:53:22Z</time>
      </trkpt>
      <trkpt lat="44.01783" lon="3.50566">
        <ele>1080.1727751893</ele>
        <time>2016-06-20T15:53:27Z</time>
      </trkpt>
      <trkpt lat="44.01779" lon="3.50578">
        <ele>1075.0835585276</ele>
        <time>2016-06-20T15:53:56Z</time>
      </trkpt>
      <trkpt lat="44.01778" lon="3.50581">
        <ele>1075.0835585276</ele>
        <time>2016-06-20T15:53:56Z</time>
      </trkpt>
      <trkpt lat="44.01778" lon="3.50581">
        <ele>1075.0835585276</ele>
        <time>2016-06-20T15:53:57Z</time>
      </trkpt>
      <trkpt lat="44.0176" lon="3.50586">
        <ele>1070.415093594</ele>
        <time>2016-06-20T15:54:27Z</time>
      </trkpt>
      <trkpt lat="44.01749" lon="3.50586">
        <ele>1066.2139529854</ele>
        <time>2016-06-20T15:54:42Z</time>
      </trkpt>
      <trkpt lat="44.01751" lon="3.50591">
        <ele>1066.2139529854</ele>
        <time>2016-06-20T15:54:47Z</time>
      </trkpt>
      <trkpt lat="44.01752" lon="3.50594">
        <ele>1066.2139529854</ele>
        <time>2016-06-20T15:54:52Z</time>
      </trkpt>
      <trkpt lat="44.01753" lon="3.50598">
        <ele>1062.2478974689</ele>
        <time>2016-06-20T15:54:57Z</time>
      </trkpt>
      <trkpt lat="44.01757" lon="3.50605">
        <ele>1062.2478974689</ele>
        <time>2016-06-20T15:55:02Z</time>
      </trkpt>
      <trkpt lat="44.01758" lon="3.50611">
        <ele>1058.7043394689</ele>
        <time>2016-06-20T15:55:07Z</time>
      </trkpt>
      <trkpt lat="44.01759" lon="3.50618">
        <ele>1058.7043394689</ele>
        <time>2016-06-20T15:55:12Z</time>
      </trkpt>
      <trkpt lat="44.01756" lon="3.50624">
        <ele>1055.5969680364</ele>
        <time>2016-06-20T15:55:17Z</time>
      </trkpt>
      <trkpt lat="44.01754" lon="3.50629">
        <ele>1055.5969680364</ele>
        <time>2016-06-20T15:55:22Z</time>
      </trkpt>
      <trkpt lat="44.01753" lon="3.50632">
        <ele>1055.5969680364</ele>
        <time>2016-06-20T15:55:27Z</time>
      </trkpt>
      <trkpt lat="44.01753" lon="3.50632">
        <ele>1055.5969680364</ele>
        <time>2016-06-20T15:55:32Z</time>
      </trkpt>
      <trkpt lat="44.01747" lon="3.50634">
        <ele>1052.8217200448</ele>
        <time>2016-06-20T15:55:47Z</time>
      </trkpt>
      <trkpt lat="44.01745" lon="3.50635">
        <ele>1052.8217200448</ele>
        <time>2016-06-20T15:55:52Z</time>
      </trkpt>
      <trkpt lat="44.01745" lon="3.50636">
        <ele>1052.8217200448</ele>
        <time>2016-06-20T15:55:57Z</time>
      </trkpt>
      <trkpt lat="44.01738" lon="3.50635">
        <ele>1050.5404287436</ele>
        <time>2016-06-20T15:56:02Z</time>
      </trkpt>
      <trkpt lat="44.01735" lon="3.50636">
        <ele>1050.5404287436</ele>
        <time>2016-06-20T15:56:07Z</time>
      </trkpt>
      <trkpt lat="44.01731" lon="3.50639">
        <ele>1050.5404287436</ele>
        <time>2016-06-20T15:56:12Z</time>
      </trkpt>
      <trkpt lat="44.01723" lon="3.50641">
        <ele>1048.7285241832</ele>
        <time>2016-06-20T15:56:17Z</time>
      </trkpt>
      <trkpt lat="44.01717" lon="3.50642">
        <ele>1048.7285241832</ele>
        <time>2016-06-20T15:56:22Z</time>
      </trkpt>
      <trkpt lat="44.01708" lon="3.50642">
        <ele>1047.2752849694</ele>
        <time>2016-06-20T15:56:27Z</time>
      </trkpt>
      <trkpt lat="44.017" lon="3.50644">
        <ele>1047.2752849694</ele>
        <time>2016-06-20T15:56:32Z</time>
      </trkpt>
      <trkpt lat="44.01693" lon="3.50644">
        <ele>1046.1490250632</ele>
        <time>2016-06-20T15:56:37Z</time>
      </trkpt>
      <trkpt lat="44.0169" lon="3.50644">
        <ele>1046.1490250632</ele>
        <time>2016-06-20T15:56:42Z</time>
      </trkpt>
      <trkpt lat="44.01688" lon="3.50644">
        <ele>1046.1490250632</ele>
        <time>2016-06-20T15:56:47Z</time>
      </trkpt>
      <trkpt lat="44.01683" lon="3.5064">
        <ele>1045.3914039974</ele>
        <time>2016-06-20T15:56:52Z</time>
      </trkpt>
      <trkpt lat="44.01681" lon="3.50637">
        <ele>1045.3914039974</ele>
        <time>2016-06-20T15:56:57Z</time>
      </trkpt>
      <trkpt lat="44.01683" lon="3.50644">
        <ele>1045.3914039974</ele>
        <time>2016-06-20T15:57:26Z</time>
      </trkpt>
      <trkpt lat="44.01664" lon="3.5064">
        <ele>1044.4202161435</ele>
        <time>2016-06-20T15:58:05Z</time>
      </trkpt>
      <trkpt lat="44.01643" lon="3.50621">
        <ele>1043.2441802694</ele>
        <time>2016-06-20T15:58:27Z</time>
      </trkpt>
      <trkpt lat="44.01637" lon="3.50618">
        <ele>1043.2441802694</ele>
        <time>2016-06-20T15:58:32Z</time>
      </trkpt>
      <trkpt lat="44.01633" lon="3.50616">
        <ele>1042.0880761549</ele>
        <time>2016-06-20T15:58:37Z</time>
      </trkpt>
      <trkpt lat="44.01627" lon="3.50616">
        <ele>1042.0880761549</ele>
        <time>2016-06-20T15:58:42Z</time>
      </trkpt>
      <trkpt lat="44.01622" lon="3.50616">
        <ele>1040.5980649787</ele>
        <time>2016-06-20T15:58:47Z</time>
      </trkpt>
      <trkpt lat="44.01618" lon="3.50616">
        <ele>1040.5980649787</ele>
        <time>2016-06-20T15:58:52Z</time>
      </trkpt>
      <trkpt lat="44.01613" lon="3.50612">
        <ele>1038.778695752</ele>
        <time>2016-06-20T15:58:57Z</time>
      </trkpt>
      <trkpt lat="44.0161" lon="3.5061">
        <ele>1038.778695752</ele>
        <time>2016-06-20T15:59:02Z</time>
      </trkpt>
      <trkpt lat="44.01604" lon="3.50608">
        <ele>1036.8801154869</ele>
        <time>2016-06-20T15:59:07Z</time>
      </trkpt>
      <trkpt lat="44.01596" lon="3.50602">
        <ele>1035.1775845267</ele>
        <time>2016-06-20T15:59:12Z</time>
      </trkpt>
      <trkpt lat="44.01591" lon="3.50598">
        <ele>1035.1775845267</ele>
        <time>2016-06-20T15:59:17Z</time>
      </trkpt>
      <trkpt lat="44.01586" lon="3.50597">
        <ele>1033.4212490139</ele>
        <time>2016-06-20T15:59:22Z</time>
      </trkpt>
      <trkpt lat="44.0158" lon="3.50595">
        <ele>1033.4212490139</ele>
        <time>2016-06-20T15:59:27Z</time>
      </trkpt>
      <trkpt lat="44.01575" lon="3.50592">
        <ele>1031.4518712601</ele>
        <time>2016-06-20T15:59:32Z</time>
      </trkpt>
      <trkpt lat="44.0157" lon="3.50592">
        <ele>1031.4518712601</ele>
        <time>2016-06-20T15:59:37Z</time>
      </trkpt>
      <trkpt lat="44.01548" lon="3.50575">
        <ele>1028.661416249</ele>
        <time>2016-06-20T16:00:02Z</time>
      </trkpt>
      <trkpt lat="44.0154" lon="3.50576">
        <ele>1028.661416249</ele>
        <time>2016-06-20T16:00:12Z</time>
      </trkpt>
      <trkpt lat="44.01521" lon="3.50565">
        <ele>1025.6561871111</ele>
        <time>2016-06-20T16:00:31Z</time>
      </trkpt>
      <trkpt lat="44.01396" lon="3.5054">
        <ele>1023.0274442467</ele>
        <time>2016-06-20T16:02:05Z</time>
      </trkpt>
      <trkpt lat="44.01331" lon="3.5055">
        <ele>1020.6014744576</ele>
        <time>2016-06-20T16:03:16Z</time>
      </trkpt>
      <trkpt lat="44.01324" lon="3.50561">
        <ele>1018.4906404212</ele>
        <time>2016-06-20T16:03:33Z</time>
      </trkpt>
      <trkpt lat="44.01321" lon="3.50561">
        <ele>1018.4906404212</ele>
        <time>2016-06-20T16:03:50Z</time>
      </trkpt>
      <trkpt lat="44.01322" lon="3.50553">
        <ele>1018.4906404212</ele>
        <time>2016-06-20T16:03:50Z</time>
      </trkpt>
      <trkpt lat="44.01319" lon="3.50548">
        <ele>1016.1353291377</ele>
        <time>2016-06-20T16:04:04Z</time>
      </trkpt>
      <trkpt lat="44.01316" lon="3.50547">
        <ele>1016.1353291377</ele>
        <time>2016-06-20T16:04:07Z</time>
      </trkpt>
      <trkpt lat="44.01314" lon="3.50547">
        <ele>1016.1353291377</ele>
        <time>2016-06-20T16:04:12Z</time>
      </trkpt>
      <trkpt lat="44.01307" lon="3.50545">
        <ele>1013.4501311662</ele>
        <time>2016-06-20T16:04:32Z</time>
      </trkpt>
      <trkpt lat="44.01306" lon="3.50543">
        <ele>1013.4501311662</ele>
        <time>2016-06-20T16:04:37Z</time>
      </trkpt>
      <trkpt lat="44.01294" lon="3.50542">
        <ele>1010.8468912819</ele>
        <time>2016-06-20T16:05:17Z</time>
      </trkpt>
      <trkpt lat="44.01245" lon="3.50537">
        <ele>1008.6205814641</ele>
        <time>2016-06-20T16:06:02Z</time>
      </trkpt>
      <trkpt lat="44.01242" lon="3.50538">
        <ele>1008.6205814641</ele>
        <time>2016-06-20T16:06:07Z</time>
      </trkpt>
      <trkpt lat="44.0122" lon="3.5054">
        <ele>1006.7697153315</ele>
        <time>2016-06-20T16:06:38Z</time>
      </trkpt>
      <trkpt lat="44.01204" lon="3.50546">
        <ele>1005.0037207056</ele>
        <time>2016-06-20T16:06:49Z</time>
      </trkpt>
      <trkpt lat="44.01199" lon="3.50545">
        <ele>1005.0037207056</ele>
        <time>2016-06-20T16:06:52Z</time>
      </trkpt>
      <trkpt lat="44.01182" lon="3.5053">
        <ele>1003.4279057383</ele>
        <time>2016-06-20T16:07:09Z</time>
      </trkpt>
      <trkpt lat="44.01178" lon="3.50529">
        <ele>1003.4279057383</ele>
        <time>2016-06-20T16:07:16Z</time>
      </trkpt>
      <trkpt lat="44.01128" lon="3.50534">
        <ele>1000.4677060965</ele>
        <time>2016-06-20T16:08:02Z</time>
      </trkpt>
      <trkpt lat="44.01086" lon="3.50516">
        <ele>996.61369433198</ele>
        <time>2016-06-20T16:08:48Z</time>
      </trkpt>
      <trkpt lat="44.0108" lon="3.50515">
        <ele>996.61369433198</ele>
        <time>2016-06-20T16:08:48Z</time>
      </trkpt>
      <trkpt lat="44.01031" lon="3.50489">
        <ele>991.64567052255</ele>
        <time>2016-06-20T16:10:02Z</time>
      </trkpt>
      <trkpt lat="44.01027" lon="3.50488">
        <ele>991.64567052255</ele>
        <time>2016-06-20T16:10:17Z</time>
      </trkpt>
      <trkpt lat="44.01008" lon="3.50494">
        <ele>986.76068207745</ele>
        <time>2016-06-20T16:10:39Z</time>
      </trkpt>
      <trkpt lat="44.01008" lon="3.50494">
        <ele>986.76068207745</ele>
        <time>2016-06-20T16:10:42Z</time>
      </trkpt>
      <trkpt lat="44.00978" lon="3.50504">
        <ele>981.84271541577</ele>
        <time>2016-06-20T16:11:25Z</time>
      </trkpt>
      <trkpt lat="44.00969" lon="3.50503">
        <ele>981.84271541577</ele>
        <time>2016-06-20T16:11:25Z</time>
      </trkpt>
      <trkpt lat="44.00941" lon="3.50506">
        <ele>977.3032048384</ele>
        <time>2016-06-20T16:12:27Z</time>
      </trkpt>
      <trkpt lat="44.00876" lon="3.50523">
        <ele>972.28295726568</ele>
        <time>2016-06-20T16:13:09Z</time>
      </trkpt>
      <trkpt lat="44.00855" lon="3.50518">
        <ele>967.70216449412</ele>
        <time>2016-06-20T16:13:17Z</time>
      </trkpt>
      <trkpt lat="44.00843" lon="3.50514">
        <ele>963.61956087633</ele>
        <time>2016-06-20T16:13:24Z</time>
      </trkpt>
      <trkpt lat="44.00801" lon="3.50506">
        <ele>959.38199534466</ele>
        <time>2016-06-20T16:14:03Z</time>
      </trkpt>
      <trkpt lat="44.00763" lon="3.50494">
        <ele>955.20612682928</ele>
        <time>2016-06-20T16:14:36Z</time>
      </trkpt>
      <trkpt lat="44.00745" lon="3.50488">
        <ele>951.32130213863</ele>
        <time>2016-06-20T16:14:54Z</time>
      </trkpt>
      <trkpt lat="44.00697" lon="3.50489">
        <ele>947.86709785238</ele>
        <time>2016-06-20T16:15:48Z</time>
      </trkpt>
      <trkpt lat="44.00694" lon="3.50491">
        <ele>947.86709785238</ele>
        <time>2016-06-20T16:16:07Z</time>
      </trkpt>
      <trkpt lat="44.0069" lon="3.50496">
        <ele>947.86709785238</ele>
        <time>2016-06-20T16:16:12Z</time>
      </trkpt>
      <trkpt lat="44.00684" lon="3.50499">
        <ele>945.62007791934</ele>
        <time>2016-06-20T16:16:17Z</time>
      </trkpt>
      <trkpt lat="44.00678" lon="3.50499">
        <ele>945.62007791934</ele>
        <time>2016-06-20T16:16:22Z</time>
      </trkpt>
      <trkpt lat="44.00673" lon="3.50501">
        <ele>943.61022422746</ele>
        <time>2016-06-20T16:16:27Z</time>
      </trkpt>
      <trkpt lat="44.00672" lon="3.50505">
        <ele>943.61022422746</ele>
        <time>2016-06-20T16:16:32Z</time>
      </trkpt>
      <trkpt lat="44.00668" lon="3.50509">
        <ele>943.61022422746</ele>
        <time>2016-06-20T16:16:37Z</time>
      </trkpt>
      <trkpt lat="44.00665" lon="3.50511">
        <ele>941.7595019321</ele>
        <time>2016-06-20T16:16:42Z</time>
      </trkpt>
      <trkpt lat="44.00662" lon="3.50508">
        <ele>941.7595019321</ele>
        <time>2016-06-20T16:16:47Z</time>
      </trkpt>
      <trkpt lat="44.00657" lon="3.50509">
        <ele>941.7595019321</ele>
        <time>2016-06-20T16:16:52Z</time>
      </trkpt>
      <trkpt lat="44.00648" lon="3.50517">
        <ele>940.02395282695</ele>
        <time>2016-06-20T16:16:57Z</time>
      </trkpt>
      <trkpt lat="44.00643" lon="3.50522">
        <ele>940.02395282695</ele>
        <time>2016-06-20T16:17:02Z</time>
      </trkpt>
      <trkpt lat="44.0064" lon="3.50527">
        <ele>938.67955075932</ele>
        <time>2016-06-20T16:17:07Z</time>
      </trkpt>
      <trkpt lat="44.00634" lon="3.50532">
        <ele>938.67955075932</ele>
        <time>2016-06-20T16:17:12Z</time>
      </trkpt>
      <trkpt lat="44.00629" lon="3.50538">
        <ele>937.70708376653</ele>
        <time>2016-06-20T16:17:17Z</time>
      </trkpt>
      <trkpt lat="44.00626" lon="3.50548">
        <ele>937.70708376653</ele>
        <time>2016-06-20T16:17:22Z</time>
      </trkpt>
      <trkpt lat="44.00624" lon="3.50553">
        <ele>937.18859678274</ele>
        <time>2016-06-20T16:17:27Z</time>
      </trkpt>
      <trkpt lat="44.00623" lon="3.5056">
        <ele>937.18859678274</ele>
        <time>2016-06-20T16:17:32Z</time>
      </trkpt>
      <trkpt lat="44.00621" lon="3.50563">
        <ele>937.18859678274</ele>
        <time>2016-06-20T16:17:37Z</time>
      </trkpt>
      <trkpt lat="44.00617" lon="3.50567">
        <ele>937.01151815665</ele>
        <time>2016-06-20T16:17:42Z</time>
      </trkpt>
      <trkpt lat="44.00613" lon="3.50572">
        <ele>937.01151815665</ele>
        <time>2016-06-20T16:17:47Z</time>
      </trkpt>
      <trkpt lat="44.00609" lon="3.50577">
        <ele>937.08504648076</ele>
        <time>2016-06-20T16:17:52Z</time>
      </trkpt>
      <trkpt lat="44.00604" lon="3.50583">
        <ele>937.08504648076</ele>
        <time>2016-06-20T16:17:57Z</time>
      </trkpt>
      <trkpt lat="44.00602" lon="3.50589">
        <ele>937.42529308795</ele>
        <time>2016-06-20T16:18:02Z</time>
      </trkpt>
      <trkpt lat="44.00599" lon="3.50596">
        <ele>937.42529308795</ele>
        <time>2016-06-20T16:18:07Z</time>
      </trkpt>
      <trkpt lat="44.00593" lon="3.506">
        <ele>938.27710476557</ele>
        <time>2016-06-20T16:18:12Z</time>
      </trkpt>
      <trkpt lat="44.00589" lon="3.50605">
        <ele>938.27710476557</ele>
        <time>2016-06-20T16:18:17Z</time>
      </trkpt>
      <trkpt lat="44.00585" lon="3.5061">
        <ele>939.53456316043</ele>
        <time>2016-06-20T16:18:22Z</time>
      </trkpt>
      <trkpt lat="44.00579" lon="3.5061">
        <ele>939.53456316043</ele>
        <time>2016-06-20T16:18:27Z</time>
      </trkpt>
      <trkpt lat="44.00575" lon="3.50609">
        <ele>940.66619387775</ele>
        <time>2016-06-20T16:18:32Z</time>
      </trkpt>
      <trkpt lat="44.00569" lon="3.50611">
        <ele>940.66619387775</ele>
        <time>2016-06-20T16:18:37Z</time>
      </trkpt>
      <trkpt lat="44.00565" lon="3.5061">
        <ele>941.64123016548</ele>
        <time>2016-06-20T16:18:42Z</time>
      </trkpt>
      <trkpt lat="44.00561" lon="3.50612">
        <ele>941.64123016548</ele>
        <time>2016-06-20T16:18:47Z</time>
      </trkpt>
      <trkpt lat="44.00556" lon="3.50613">
        <ele>942.50383845279</ele>
        <time>2016-06-20T16:18:52Z</time>
      </trkpt>
      <trkpt lat="44.00554" lon="3.50616">
        <ele>942.50383845279</ele>
        <time>2016-06-20T16:18:57Z</time>
      </trkpt>
      <trkpt lat="44.00549" lon="3.50614">
        <ele>942.50383845279</ele>
        <time>2016-06-20T16:19:02Z</time>
      </trkpt>
      <trkpt lat="44.00543" lon="3.50616">
        <ele>943.19457495301</ele>
        <time>2016-06-20T16:19:07Z</time>
      </trkpt>
      <trkpt lat="44.00538" lon="3.50617">
        <ele>943.19457495301</ele>
        <time>2016-06-20T16:19:12Z</time>
      </trkpt>
      <trkpt lat="44.00533" lon="3.50617">
        <ele>943.71670105962</ele>
        <time>2016-06-20T16:19:17Z</time>
      </trkpt>
      <trkpt lat="44.00528" lon="3.5062">
        <ele>943.71670105962</ele>
        <time>2016-06-20T16:19:22Z</time>
      </trkpt>
      <trkpt lat="44.00524" lon="3.50621">
        <ele>944.20363582583</ele>
        <time>2016-06-20T16:19:27Z</time>
      </trkpt>
      <trkpt lat="44.00517" lon="3.5062">
        <ele>944.20363582583</ele>
        <time>2016-06-20T16:19:32Z</time>
      </trkpt>
      <trkpt lat="44.00513" lon="3.50617">
        <ele>944.51992975643</ele>
        <time>2016-06-20T16:19:37Z</time>
      </trkpt>
      <trkpt lat="44.00508" lon="3.50611">
        <ele>944.51992975643</ele>
        <time>2016-06-20T16:19:42Z</time>
      </trkpt>
      <trkpt lat="44.00503" lon="3.50606">
        <ele>944.58403594202</ele>
        <time>2016-06-20T16:19:47Z</time>
      </trkpt>
      <trkpt lat="44.00501" lon="3.50599">
        <ele>944.58403594202</ele>
        <time>2016-06-20T16:19:52Z</time>
      </trkpt>
      <trkpt lat="44.00498" lon="3.50595">
        <ele>944.47987236018</ele>
        <time>2016-06-20T16:19:57Z</time>
      </trkpt>
      <trkpt lat="44.00494" lon="3.50593">
        <ele>944.47987236018</ele>
        <time>2016-06-20T16:20:02Z</time>
      </trkpt>
      <trkpt lat="44.00488" lon="3.50592">
        <ele>944.09856628528</ele>
        <time>2016-06-20T16:20:07Z</time>
      </trkpt>
      <trkpt lat="44.00481" lon="3.50592">
        <ele>944.09856628528</ele>
        <time>2016-06-20T16:20:12Z</time>
      </trkpt>
      <trkpt lat="44.00475" lon="3.50593">
        <ele>943.57084338779</ele>
        <time>2016-06-20T16:20:17Z</time>
      </trkpt>
      <trkpt lat="44.00469" lon="3.50594">
        <ele>943.57084338779</ele>
        <time>2016-06-20T16:20:22Z</time>
      </trkpt>
      <trkpt lat="44.00466" lon="3.50595">
        <ele>942.80231211149</ele>
        <time>2016-06-20T16:20:27Z</time>
      </trkpt>
      <trkpt lat="44.00466" lon="3.50594">
        <ele>942.80231211149</ele>
        <time>2016-06-20T16:20:32Z</time>
      </trkpt>
      <trkpt lat="44.0046" lon="3.50593">
        <ele>942.80231211149</ele>
        <time>2016-06-20T16:21:13Z</time>
      </trkpt>
      <trkpt lat="44.00453" lon="3.50597">
        <ele>942.16758277059</ele>
        <time>2016-06-20T16:21:13Z</time>
      </trkpt>
      <trkpt lat="44.00445" lon="3.50597">
        <ele>942.16758277059</ele>
        <time>2016-06-20T16:21:35Z</time>
      </trkpt>
      <trkpt lat="44.00441" lon="3.50594">
        <ele>941.48039044771</ele>
        <time>2016-06-20T16:21:55Z</time>
      </trkpt>
      <trkpt lat="44.00442" lon="3.50594">
        <ele>941.48039044771</ele>
        <time>2016-06-20T16:21:57Z</time>
      </trkpt>
      <trkpt lat="44.00408" lon="3.50582">
        <ele>940.38117794092</ele>
        <time>2016-06-20T16:23:24Z</time>
      </trkpt>
      <trkpt lat="44.00406" lon="3.50584">
        <ele>940.38117794092</ele>
        <time>2016-06-20T16:23:33Z</time>
      </trkpt>
      <trkpt lat="44.00391" lon="3.50604">
        <ele>939.04255882718</ele>
        <time>2016-06-20T16:23:45Z</time>
      </trkpt>
      <trkpt lat="44.00389" lon="3.50606">
        <ele>939.04255882718</ele>
        <time>2016-06-20T16:23:47Z</time>
      </trkpt>
      <trkpt lat="44.00385" lon="3.50612">
        <ele>939.04255882718</ele>
        <time>2016-06-20T16:23:52Z</time>
      </trkpt>
      <trkpt lat="44.00378" lon="3.50615">
        <ele>937.52446287856</ele>
        <time>2016-06-20T16:24:07Z</time>
      </trkpt>
      <trkpt lat="44.00375" lon="3.50617">
        <ele>937.52446287856</ele>
        <time>2016-06-20T16:24:07Z</time>
      </trkpt>
      <trkpt lat="44.00374" lon="3.50621">
        <ele>937.52446287856</ele>
        <time>2016-06-20T16:28:07Z</time>
      </trkpt>
      <trkpt lat="44.0037" lon="3.50622">
        <ele>934.02407401174</ele>
        <time>2016-06-20T16:28:12Z</time>
      </trkpt>
      <trkpt lat="44.00368" lon="3.50622">
        <ele>934.02407401174</ele>
        <time>2016-06-20T16:28:22Z</time>
      </trkpt>
      <trkpt lat="44.0034" lon="3.50609">
        <ele>930.6092185007</ele>
        <time>2016-06-20T16:29:08Z</time>
      </trkpt>
      <trkpt lat="44.00335" lon="3.50607">
        <ele>930.6092185007</ele>
        <time>2016-06-20T16:29:08Z</time>
      </trkpt>
      <trkpt lat="44.00294" lon="3.50625">
        <ele>926.61613647833</ele>
        <time>2016-06-20T16:29:49Z</time>
      </trkpt>
      <trkpt lat="44.00285" lon="3.50623">
        <ele>922.5988681006</ele>
        <time>2016-06-20T16:30:09Z</time>
      </trkpt>
      <trkpt lat="44.00282" lon="3.50616">
        <ele>922.5988681006</ele>
        <time>2016-06-20T16:30:09Z</time>
      </trkpt>
      <trkpt lat="44.00281" lon="3.50601">
        <ele>918.82592245135</ele>
        <time>2016-06-20T16:31:08Z</time>
      </trkpt>
      <trkpt lat="44.00268" lon="3.50569">
        <ele>913.81612467791</ele>
        <time>2016-06-20T16:31:28Z</time>
      </trkpt>
      <trkpt lat="44.00268" lon="3.50569">
        <ele>913.81612467791</ele>
        <time>2016-06-20T16:31:32Z</time>
      </trkpt>
      <trkpt lat="44.00265" lon="3.50569">
        <ele>913.81612467791</ele>
        <time>2016-06-20T16:31:57Z</time>
      </trkpt>
      <trkpt lat="44.00266" lon="3.50551">
        <ele>908.56402911888</ele>
        <time>2016-06-20T16:32:07Z</time>
      </trkpt>
      <trkpt lat="44.0024" lon="3.50529">
        <ele>903.31448795142</ele>
        <time>2016-06-20T16:33:10Z</time>
      </trkpt>
      <trkpt lat="44.00237" lon="3.5053">
        <ele>903.31448795142</ele>
        <time>2016-06-20T16:33:18Z</time>
      </trkpt>
      <trkpt lat="44.00234" lon="3.50539">
        <ele>897.97728430991</ele>
        <time>2016-06-20T16:33:27Z</time>
      </trkpt>
      <trkpt lat="44.00225" lon="3.50552">
        <ele>893.03104769642</ele>
        <time>2016-06-20T16:33:52Z</time>
      </trkpt>
      <trkpt lat="44.0022" lon="3.50569">
        <ele>888.44249709438</ele>
        <time>2016-06-20T16:33:52Z</time>
      </trkpt>
      <trkpt lat="44.00197" lon="3.50589">
        <ele>883.02679179611</ele>
        <time>2016-06-20T16:35:09Z</time>
      </trkpt>
      <trkpt lat="44.00191" lon="3.5059">
        <ele>883.02679179611</ele>
        <time>2016-06-20T16:35:27Z</time>
      </trkpt>
      <trkpt lat="44.00193" lon="3.50596">
        <ele>877.57617149032</ele>
        <time>2016-06-20T16:35:32Z</time>
      </trkpt>
      <trkpt lat="44.00183" lon="3.506">
        <ele>872.29141066974</ele>
        <time>2016-06-20T16:35:57Z</time>
      </trkpt>
      <trkpt lat="44.00186" lon="3.50656">
        <ele>866.83909555284</ele>
        <time>2016-06-20T16:36:43Z</time>
      </trkpt>
      <trkpt lat="44.00186" lon="3.50664">
        <ele>866.83909555284</ele>
        <time>2016-06-20T16:36:43Z</time>
      </trkpt>
      <trkpt lat="44.00185" lon="3.50666">
        <ele>866.83909555284</ele>
        <time>2016-06-20T16:36:59Z</time>
      </trkpt>
      <trkpt lat="44.00186" lon="3.50669">
        <ele>861.05469265235</ele>
        <time>2016-06-20T16:37:27Z</time>
      </trkpt>
      <trkpt lat="44.00183" lon="3.50723">
        <ele>855.56467640732</ele>
        <time>2016-06-20T16:38:17Z</time>
      </trkpt>
      <trkpt lat="44.00194" lon="3.50733">
        <ele>850.54493834734</ele>
        <time>2016-06-20T16:38:48Z</time>
      </trkpt>
      <trkpt lat="44.00198" lon="3.5074">
        <ele>850.54493834734</ele>
        <time>2016-06-20T16:38:48Z</time>
      </trkpt>
      <trkpt lat="44.00219" lon="3.50775">
        <ele>845.50839152174</ele>
        <time>2016-06-20T16:39:27Z</time>
      </trkpt>
      <trkpt lat="44.0023" lon="3.50807">
        <ele>840.79614121563</ele>
        <time>2016-06-20T16:40:00Z</time>
      </trkpt>
      <trkpt lat="44.0023" lon="3.50812">
        <ele>840.79614121563</ele>
        <time>2016-06-20T16:40:04Z</time>
      </trkpt>
      <trkpt lat="44.00225" lon="3.50827">
        <ele>836.52131706669</ele>
        <time>2016-06-20T16:40:17Z</time>
      </trkpt>
      <trkpt lat="44.00211" lon="3.50851">
        <ele>832.52785630206</ele>
        <time>2016-06-20T16:40:48Z</time>
      </trkpt>
      <trkpt lat="44.00197" lon="3.50877">
        <ele>828.39630582452</ele>
        <time>2016-06-20T16:41:09Z</time>
      </trkpt>
      <trkpt lat="44.00188" lon="3.50898">
        <ele>824.06961706793</ele>
        <time>2016-06-20T16:41:27Z</time>
      </trkpt>
      <trkpt lat="44.00187" lon="3.50932">
        <ele>819.50964296616</ele>
        <time>2016-06-20T16:41:52Z</time>
      </trkpt>
      <trkpt lat="44.00192" lon="3.50964">
        <ele>815.04172682835</ele>
        <time>2016-06-20T16:42:07Z</time>
      </trkpt>
      <trkpt lat="44.00192" lon="3.50969">
        <ele>815.04172682835</ele>
        <time>2016-06-20T16:42:16Z</time>
      </trkpt>
      <trkpt lat="44.00186" lon="3.5097">
        <ele>810.46242376293</ele>
        <time>2016-06-20T16:42:38Z</time>
      </trkpt>
      <trkpt lat="44.00183" lon="3.50968">
        <ele>810.46242376293</ele>
        <time>2016-06-20T16:42:42Z</time>
      </trkpt>
      <trkpt lat="44.00182" lon="3.50968">
        <ele>810.46242376293</ele>
        <time>2016-06-20T16:42:57Z</time>
      </trkpt>
      <trkpt lat="44.00183" lon="3.50975">
        <ele>810.46242376293</ele>
        <time>2016-06-20T16:43:02Z</time>
      </trkpt>
      <trkpt lat="44.00185" lon="3.50979">
        <ele>805.5977182898</ele>
        <time>2016-06-20T16:43:07Z</time>
      </trkpt>
      <trkpt lat="44.00186" lon="3.50986">
        <ele>805.5977182898</ele>
        <time>2016-06-20T16:43:12Z</time>
      </trkpt>
      <trkpt lat="44.00183" lon="3.51096">
        <ele>799.56638368855</ele>
        <time>2016-06-20T16:44:37Z</time>
      </trkpt>
      <trkpt lat="44.00183" lon="3.51104">
        <ele>799.56638368855</ele>
        <time>2016-06-20T16:44:44Z</time>
      </trkpt>
      <trkpt lat="44.00199" lon="3.51129">
        <ele>793.61574954963</ele>
        <time>2016-06-20T16:45:03Z</time>
      </trkpt>
      <trkpt lat="44.00198" lon="3.51148">
        <ele>787.30141232591</ele>
        <time>2016-06-20T16:45:35Z</time>
      </trkpt>
      <trkpt lat="44.00185" lon="3.51186">
        <ele>780.42854929341</ele>
        <time>2016-06-20T16:46:18Z</time>
      </trkpt>
      <trkpt lat="44.00182" lon="3.51189">
        <ele>780.42854929341</ele>
        <time>2016-06-20T16:46:18Z</time>
      </trkpt>
      <trkpt lat="44.00172" lon="3.51193">
        <ele>773.52410018049</ele>
        <time>2016-06-20T16:46:37Z</time>
      </trkpt>
      <trkpt lat="44.00162" lon="3.51224">
        <ele>766.16821369335</ele>
        <time>2016-06-20T16:47:18Z</time>
      </trkpt>
      <trkpt lat="44.00161" lon="3.51231">
        <ele>766.16821369335</ele>
        <time>2016-06-20T16:47:22Z</time>
      </trkpt>
      <trkpt lat="44.00145" lon="3.5128">
        <ele>757.59817459609</ele>
        <time>2016-06-20T16:48:10Z</time>
      </trkpt>
      <trkpt lat="44.00147" lon="3.51289">
        <ele>757.59817459609</ele>
        <time>2016-06-20T16:48:12Z</time>
      </trkpt>
      <trkpt lat="44.00148" lon="3.51298">
        <ele>749.38736172003</ele>
        <time>2016-06-20T16:48:17Z</time>
      </trkpt>
      <trkpt lat="44.00148" lon="3.51304">
        <ele>749.38736172003</ele>
        <time>2016-06-20T16:48:22Z</time>
      </trkpt>
      <trkpt lat="44.0015" lon="3.5131">
        <ele>749.38736172003</ele>
        <time>2016-06-20T16:48:27Z</time>
      </trkpt>
      <trkpt lat="44.00152" lon="3.51314">
        <ele>741.23409881676</ele>
        <time>2016-06-20T16:48:32Z</time>
      </trkpt>
      <trkpt lat="44.00155" lon="3.51322">
        <ele>741.23409881676</ele>
        <time>2016-06-20T16:48:37Z</time>
      </trkpt>
      <trkpt lat="44.00157" lon="3.51326">
        <ele>733.47806147375</ele>
        <time>2016-06-20T16:48:42Z</time>
      </trkpt>
      <trkpt lat="44.0016" lon="3.51328">
        <ele>733.47806147375</ele>
        <time>2016-06-20T16:48:47Z</time>
      </trkpt>
      <trkpt lat="44.00162" lon="3.51333">
        <ele>733.47806147375</ele>
        <time>2016-06-20T16:48:52Z</time>
      </trkpt>
      <trkpt lat="44.00165" lon="3.51337">
        <ele>726.27399926562</ele>
        <time>2016-06-20T16:48:57Z</time>
      </trkpt>
      <trkpt lat="44.00187" lon="3.51391">
        <ele>719.40312385211</ele>
        <time>2016-06-20T16:49:39Z</time>
      </trkpt>
      <trkpt lat="44.0019" lon="3.51403">
        <ele>713.3099394346</ele>
        <time>2016-06-20T16:49:47Z</time>
      </trkpt>
      <trkpt lat="44.00193" lon="3.51429">
        <ele>707.82733002221</ele>
        <time>2016-06-20T16:50:05Z</time>
      </trkpt>
      <trkpt lat="44.00193" lon="3.51431">
        <ele>707.82733002221</ele>
        <time>2016-06-20T16:50:05Z</time>
      </trkpt>
      <trkpt lat="44.00206" lon="3.51474">
        <ele>702.87046743384</ele>
        <time>2016-06-20T16:50:37Z</time>
      </trkpt>
      <trkpt lat="44.00211" lon="3.5148">
        <ele>702.87046743384</ele>
        <time>2016-06-20T16:50:42Z</time>
      </trkpt>
      <trkpt lat="44.00226" lon="3.51493">
        <ele>698.70483095565</ele>
        <time>2016-06-20T16:50:53Z</time>
      </trkpt>
      <trkpt lat="44.0023" lon="3.51496">
        <ele>698.70483095565</ele>
        <time>2016-06-20T16:50:57Z</time>
      </trkpt>
      <trkpt lat="44.00239" lon="3.51502">
        <ele>695.27124973024</ele>
        <time>2016-06-20T16:51:13Z</time>
      </trkpt>
      <trkpt lat="44.00256" lon="3.5154">
        <ele>692.55580996897</ele>
        <time>2016-06-20T16:51:58Z</time>
      </trkpt>
      <trkpt lat="44.00257" lon="3.51556">
        <ele>690.44248872684</ele>
        <time>2016-06-20T16:51:58Z</time>
      </trkpt>
      <trkpt lat="44.00251" lon="3.51593">
        <ele>688.95159289393</ele>
        <time>2016-06-20T16:52:22Z</time>
      </trkpt>
      <trkpt lat="44.00253" lon="3.51601">
        <ele>688.95159289393</ele>
        <time>2016-06-20T16:52:27Z</time>
      </trkpt>
      <trkpt lat="44.00253" lon="3.51607">
        <ele>687.88385868903</ele>
        <time>2016-06-20T16:52:35Z</time>
      </trkpt>
      <trkpt lat="44.00254" lon="3.51616">
        <ele>687.88385868903</ele>
        <time>2016-06-20T16:52:37Z</time>
      </trkpt>
      <trkpt lat="44.00256" lon="3.51627">
        <ele>687.39921435001</ele>
        <time>2016-06-20T16:52:52Z</time>
      </trkpt>
      <trkpt lat="44.0026" lon="3.51638">
        <ele>687.39921435001</ele>
        <time>2016-06-20T16:52:52Z</time>
      </trkpt>
      <trkpt lat="44.00264" lon="3.51649">
        <ele>687.37030983872</ele>
        <time>2016-06-20T16:53:09Z</time>
      </trkpt>
      <trkpt lat="44.00267" lon="3.51658">
        <ele>687.37030983872</ele>
        <time>2016-06-20T16:53:09Z</time>
      </trkpt>
      <trkpt lat="44.00268" lon="3.51673">
        <ele>687.76429895983</ele>
        <time>2016-06-20T16:53:23Z</time>
      </trkpt>
      <trkpt lat="44.0027" lon="3.5168">
        <ele>687.76429895983</ele>
        <time>2016-06-20T16:53:27Z</time>
      </trkpt>
      <trkpt lat="44.00286" lon="3.51733">
        <ele>689.14042378522</ele>
        <time>2016-06-20T16:54:02Z</time>
      </trkpt>
      <trkpt lat="44.00289" lon="3.51739">
        <ele>689.14042378522</ele>
        <time>2016-06-20T16:54:07Z</time>
      </trkpt>
      <trkpt lat="44.00292" lon="3.51747">
        <ele>690.91889721395</ele>
        <time>2016-06-20T16:54:12Z</time>
      </trkpt>
      <trkpt lat="44.00294" lon="3.51753">
        <ele>690.91889721395</ele>
        <time>2016-06-20T16:54:17Z</time>
      </trkpt>
      <trkpt lat="44.00297" lon="3.5176">
        <ele>692.92177185221</ele>
        <time>2016-06-20T16:54:22Z</time>
      </trkpt>
      <trkpt lat="44.00265" lon="3.51848">
        <ele>695.37279028242</ele>
        <time>2016-06-20T16:55:43Z</time>
      </trkpt>
      <trkpt lat="44.00267" lon="3.51855">
        <ele>695.37279028242</ele>
        <time>2016-06-20T16:55:52Z</time>
      </trkpt>
      <trkpt lat="44.0027" lon="3.51858">
        <ele>697.98821852115</ele>
        <time>2016-06-20T16:55:57Z</time>
      </trkpt>
      <trkpt lat="44.00274" lon="3.51861">
        <ele>697.98821852115</ele>
        <time>2016-06-20T16:56:02Z</time>
      </trkpt>
      <trkpt lat="44.00279" lon="3.51864">
        <ele>700.67787750152</ele>
        <time>2016-06-20T16:56:07Z</time>
      </trkpt>
      <trkpt lat="44.00286" lon="3.51865">
        <ele>700.67787750152</ele>
        <time>2016-06-20T16:56:12Z</time>
      </trkpt>
      <trkpt lat="44.00345" lon="3.51933">
        <ele>703.68974315511</ele>
        <time>2016-06-20T16:57:57Z</time>
      </trkpt>
      <trkpt lat="44.00349" lon="3.51946">
        <ele>706.59008347334</ele>
        <time>2016-06-20T16:58:12Z</time>
      </trkpt>
      <trkpt lat="44.00352" lon="3.51951">
        <ele>706.59008347334</ele>
        <time>2016-06-20T16:58:18Z</time>
      </trkpt>
      <trkpt lat="44.0036" lon="3.5197">
        <ele>709.3379793819</ele>
        <time>2016-06-20T16:58:34Z</time>
      </trkpt>
      <trkpt lat="44.00419" lon="3.52031">
        <ele>711.3198931893</ele>
        <time>2016-06-20T17:00:03Z</time>
      </trkpt>
      <trkpt lat="44.00431" lon="3.52047">
        <ele>713.12281494562</ele>
        <time>2016-06-20T17:00:31Z</time>
      </trkpt>
      <trkpt lat="44.0043" lon="3.52048">
        <ele>713.12281494562</ele>
        <time>2016-06-20T17:00:35Z</time>
      </trkpt>
      <trkpt lat="44.00419" lon="3.52054">
        <ele>714.80157956723</ele>
        <time>2016-06-20T17:00:56Z</time>
      </trkpt>
      <trkpt lat="44.00418" lon="3.52056">
        <ele>714.80157956723</ele>
        <time>2016-06-20T17:01:00Z</time>
      </trkpt>
      <trkpt lat="44.00422" lon="3.52083">
        <ele>716.40779860124</ele>
        <time>2016-06-20T17:01:38Z</time>
      </trkpt>
      <trkpt lat="44.00424" lon="3.52086">
        <ele>716.40779860124</ele>
        <time>2016-06-20T17:01:38Z</time>
      </trkpt>
      <trkpt lat="44.00423" lon="3.5209">
        <ele>716.40779860124</ele>
        <time>2016-06-20T17:01:52Z</time>
      </trkpt>
      <trkpt lat="44.00422" lon="3.52094">
        <ele>716.40779860124</ele>
        <time>2016-06-20T17:01:59Z</time>
      </trkpt>
      <trkpt lat="44.00422" lon="3.52107">
        <ele>717.93231910308</ele>
        <time>2016-06-20T17:02:22Z</time>
      </trkpt>
      <trkpt lat="44.00427" lon="3.52123">
        <ele>719.59794392832</ele>
        <time>2016-06-20T17:03:06Z</time>
      </trkpt>
      <trkpt lat="44.00418" lon="3.52138">
        <ele>721.45267371942</ele>
        <time>2016-06-20T17:03:28Z</time>
      </trkpt>
      <trkpt lat="44.00412" lon="3.52147">
        <ele>721.45267371942</ele>
        <time>2016-06-20T17:03:54Z</time>
      </trkpt>
      <trkpt lat="44.00412" lon="3.52153">
        <ele>723.74269661709</ele>
        <time>2016-06-20T17:03:57Z</time>
      </trkpt>
      <trkpt lat="44.00412" lon="3.52155">
        <ele>723.74269661709</ele>
        <time>2016-06-20T17:04:15Z</time>
      </trkpt>
      <trkpt lat="44.00414" lon="3.52174">
        <ele>726.76744494312</ele>
        <time>2016-06-20T17:04:26Z</time>
      </trkpt>
      <trkpt lat="44.00414" lon="3.52175">
        <ele>726.76744494312</ele>
        <time>2016-06-20T17:04:27Z</time>
      </trkpt>
      <trkpt lat="44.00426" lon="3.52212">
        <ele>730.21193987014</ele>
        <time>2016-06-20T17:05:29Z</time>
      </trkpt>
      <trkpt lat="44.00431" lon="3.52219">
        <ele>730.21193987014</ele>
        <time>2016-06-20T17:05:29Z</time>
      </trkpt>
      <trkpt lat="44.00438" lon="3.52232">
        <ele>733.56750663078</ele>
        <time>2016-06-20T17:05:42Z</time>
      </trkpt>
      <trkpt lat="44.0044" lon="3.52253">
        <ele>736.65182781179</ele>
        <time>2016-06-20T17:05:57Z</time>
      </trkpt>
      <trkpt lat="44.00444" lon="3.52294">
        <ele>739.5998991822</ele>
        <time>2016-06-20T17:06:22Z</time>
      </trkpt>
      <trkpt lat="44.0044" lon="3.52337">
        <ele>742.52330152398</ele>
        <time>2016-06-20T17:06:50Z</time>
      </trkpt>
      <trkpt lat="44.00438" lon="3.52374">
        <ele>745.26662016765</ele>
        <time>2016-06-20T17:07:21Z</time>
      </trkpt>
      <trkpt lat="44.00436" lon="3.52419">
        <ele>747.97511550609</ele>
        <time>2016-06-20T17:08:06Z</time>
      </trkpt>
      <trkpt lat="44.00421" lon="3.52477">
        <ele>750.85605823715</ele>
        <time>2016-06-20T17:09:08Z</time>
      </trkpt>
      <trkpt lat="44.00379" lon="3.52536">
        <ele>753.78448791072</ele>
        <time>2016-06-20T17:10:17Z</time>
      </trkpt>
      <trkpt lat="44.00368" lon="3.52553">
        <ele>756.42884057239</ele>
        <time>2016-06-20T17:10:17Z</time>
      </trkpt>
      <trkpt lat="44.00343" lon="3.52591">
        <ele>758.94437082365</ele>
        <time>2016-06-20T17:11:00Z</time>
      </trkpt>
      <trkpt lat="44.00349" lon="3.52623">
        <ele>760.92816686709</ele>
        <time>2016-06-20T17:11:17Z</time>
      </trkpt>
      <trkpt lat="44.00357" lon="3.52691">
        <ele>762.44122639199</ele>
        <time>2016-06-20T17:12:03Z</time>
      </trkpt>
      <trkpt lat="44.00341" lon="3.52775">
        <ele>762.90776672263</ele>
        <time>2016-06-20T17:13:57Z</time>
      </trkpt>
      <trkpt lat="44.00338" lon="3.52772">
        <ele>762.90776672263</ele>
        <time>2016-06-20T17:14:02Z</time>
      </trkpt>
      <trkpt lat="44.00336" lon="3.5276">
        <ele>762.96498516879</ele>
        <time>2016-06-20T17:14:25Z</time>
      </trkpt>
      <trkpt lat="44.00297" lon="3.52754">
        <ele>762.72927287323</ele>
        <time>2016-06-20T17:15:03Z</time>
      </trkpt>
      <trkpt lat="44.00252" lon="3.52739">
        <ele>762.46820576211</ele>
        <time>2016-06-20T17:15:57Z</time>
      </trkpt>
      <trkpt lat="44.00242" lon="3.52733">
        <ele>762.14191166973</ele>
        <time>2016-06-20T17:16:06Z</time>
      </trkpt>
      <trkpt lat="44.00142" lon="3.52751">
        <ele>762.40569247142</ele>
        <time>2016-06-20T17:17:57Z</time>
      </trkpt>
      <trkpt lat="44.00138" lon="3.52756">
        <ele>762.40569247142</ele>
        <time>2016-06-20T17:18:05Z</time>
      </trkpt>
      <trkpt lat="44.00133" lon="3.5278">
        <ele>762.899811618</ele>
        <time>2016-06-20T17:18:19Z</time>
      </trkpt>
      <trkpt lat="44.00132" lon="3.52785">
        <ele>762.899811618</ele>
        <time>2016-06-20T17:18:22Z</time>
      </trkpt>
      <trkpt lat="44.00122" lon="3.52851">
        <ele>764.22731025329</ele>
        <time>2016-06-20T17:19:23Z</time>
      </trkpt>
      <trkpt lat="44.00122" lon="3.52862">
        <ele>764.22731025329</ele>
        <time>2016-06-20T17:19:25Z</time>
      </trkpt>
      <trkpt lat="44.00114" lon="3.53003">
        <ele>766.75750456158</ele>
        <time>2016-06-20T17:21:00Z</time>
      </trkpt>
      <trkpt lat="44.00112" lon="3.53012">
        <ele>766.75750456158</ele>
        <time>2016-06-20T17:21:06Z</time>
      </trkpt>
      <trkpt lat="44.00112" lon="3.53014">
        <ele>766.75750456158</ele>
        <time>2016-06-20T17:21:07Z</time>
      </trkpt>
      <trkpt lat="44.00112" lon="3.53022">
        <ele>769.02805998979</ele>
        <time>2016-06-20T17:21:12Z</time>
      </trkpt>
      <trkpt lat="44.00113" lon="3.53029">
        <ele>769.02805998979</ele>
        <time>2016-06-20T17:21:17Z</time>
      </trkpt>
      <trkpt lat="44.00112" lon="3.53038">
        <ele>770.9387920794</ele>
        <time>2016-06-20T17:21:22Z</time>
      </trkpt>
      <trkpt lat="44.00111" lon="3.53045">
        <ele>770.9387920794</ele>
        <time>2016-06-20T17:21:27Z</time>
      </trkpt>
      <trkpt lat="44.0011" lon="3.53055">
        <ele>772.49898724681</ele>
        <time>2016-06-20T17:21:32Z</time>
      </trkpt>
      <trkpt lat="44.00108" lon="3.53059">
        <ele>772.49898724681</ele>
        <time>2016-06-20T17:21:37Z</time>
      </trkpt>
      <trkpt lat="44.00107" lon="3.53066">
        <ele>773.77609288643</ele>
        <time>2016-06-20T17:21:42Z</time>
      </trkpt>
      <trkpt lat="44.00106" lon="3.53075">
        <ele>773.77609288643</ele>
        <time>2016-06-20T17:21:49Z</time>
      </trkpt>
      <trkpt lat="44.00099" lon="3.53092">
        <ele>774.97771127927</ele>
        <time>2016-06-20T17:22:09Z</time>
      </trkpt>
      <trkpt lat="44.00084" lon="3.53158">
        <ele>776.13807523817</ele>
        <time>2016-06-20T17:22:51Z</time>
      </trkpt>
      <trkpt lat="44.00084" lon="3.53159">
        <ele>776.13807523817</ele>
        <time>2016-06-20T17:22:54Z</time>
      </trkpt>
      <trkpt lat="44.00082" lon="3.53178">
        <ele>777.15949600918</ele>
        <time>2016-06-20T17:23:05Z</time>
      </trkpt>
      <trkpt lat="44.00081" lon="3.5318">
        <ele>777.15949600918</ele>
        <time>2016-06-20T17:23:07Z</time>
      </trkpt>
      <trkpt lat="44.00077" lon="3.53222">
        <ele>778.12494735047</ele>
        <time>2016-06-20T17:23:39Z</time>
      </trkpt>
      <trkpt lat="44.00075" lon="3.53239">
        <ele>778.93868009445</ele>
        <time>2016-06-20T17:23:39Z</time>
      </trkpt>
      <trkpt lat="44.00073" lon="3.53281">
        <ele>779.62782724439</ele>
        <time>2016-06-20T17:24:05Z</time>
      </trkpt>
      <trkpt lat="44.00068" lon="3.53306">
        <ele>780.17476369144</ele>
        <time>2016-06-20T17:24:25Z</time>
      </trkpt>
      <trkpt lat="44.00067" lon="3.53311">
        <ele>780.17476369144</ele>
        <time>2016-06-20T17:24:30Z</time>
      </trkpt>
      <trkpt lat="44.00066" lon="3.53383">
        <ele>779.92957133197</ele>
        <time>2016-06-20T17:25:01Z</time>
      </trkpt>
      <trkpt lat="44.00065" lon="3.53385">
        <ele>779.92957133197</ele>
        <time>2016-06-20T17:25:02Z</time>
      </trkpt>
      <trkpt lat="44.0007" lon="3.53419">
        <ele>779.28674832779</ele>
        <time>2016-06-20T17:25:42Z</time>
      </trkpt>
      <trkpt lat="44.00076" lon="3.53475">
        <ele>778.10860365152</ele>
        <time>2016-06-20T17:26:24Z</time>
      </trkpt>
      <trkpt lat="44.00077" lon="3.53489">
        <ele>776.75908202818</ele>
        <time>2016-06-20T17:26:24Z</time>
      </trkpt>
      <trkpt lat="44.00083" lon="3.53521">
        <ele>775.20120146201</ele>
        <time>2016-06-20T17:26:44Z</time>
      </trkpt>
      <trkpt lat="44.00085" lon="3.53532">
        <ele>775.20120146201</ele>
        <time>2016-06-20T17:26:50Z</time>
      </trkpt>
      <trkpt lat="44.0008" lon="3.53552">
        <ele>773.55979494809</ele>
        <time>2016-06-20T17:27:05Z</time>
      </trkpt>
      <trkpt lat="44.00079" lon="3.53554">
        <ele>773.55979494809</ele>
        <time>2016-06-20T17:27:07Z</time>
      </trkpt>
      <trkpt lat="44.00054" lon="3.53581">
        <ele>771.70573695491</ele>
        <time>2016-06-20T17:27:37Z</time>
      </trkpt>
      <trkpt lat="44.00008" lon="3.53624">
        <ele>769.28934713893</ele>
        <time>2016-06-20T17:28:29Z</time>
      </trkpt>
      <trkpt lat="44" lon="3.53628">
        <ele>769.28934713893</ele>
        <time>2016-06-20T17:28:29Z</time>
      </trkpt>
      <trkpt lat="43.99981" lon="3.53647">
        <ele>766.29075861529</ele>
        <time>2016-06-20T17:28:50Z</time>
      </trkpt>
      <trkpt lat="43.9998" lon="3.53651">
        <ele>766.29075861529</ele>
        <time>2016-06-20T17:28:52Z</time>
      </trkpt>
      <trkpt lat="43.99976" lon="3.53653">
        <ele>766.29075861529</ele>
        <time>2016-06-20T17:28:57Z</time>
      </trkpt>
      <trkpt lat="43.99972" lon="3.53657">
        <ele>762.93807462733</ele>
        <time>2016-06-20T17:29:02Z</time>
      </trkpt>
      <trkpt lat="43.99969" lon="3.5366">
        <ele>762.93807462733</ele>
        <time>2016-06-20T17:29:07Z</time>
      </trkpt>
      <trkpt lat="43.99964" lon="3.53663">
        <ele>759.64525226075</ele>
        <time>2016-06-20T17:29:12Z</time>
      </trkpt>
    </trkseg>
  </trk>
</gpx>